[[{"header":{"parameterUnit":"m.s-1","parameterCategory":1,"la1":31.0,"la2":29.5877,"lo1":-88.7671,"lo2":-86.6584,"dy":0.0162,"dx":0.0185,"nx":115,"ny":88,"refTime":"2024-05-30T12:00:00:Z","depth":0,"parameterNumber":2,"parameterNumberName":"U-component_of_WINDS"},"data":[0.0,0.0,0.0,0.0,0.0,0.0,0.0,0.0,0.0,0.0,0.0,0.0,0.0,0.0,0.0,0.0,0.0,0.0,0.0,0.0,0.0,0.0,0.0,0.0,0.0,0.0,0.0,0.0,0.0,0.0,0.0,0.0,0.0,0.0,0.0,0.0,0.0,0.0,0.0,0.0,0.0,0.0,0.0,0.0,0.0,0.0,0.0,0.0,0.0,0.0,0.0,0.0,0.0,0.0,0.0,0.0,0.0,0.0,0.0,0.0,0.0,0.0,0.0,0.0,0.0,0.0,0.0,0.0,0.0,0.0,0.0,0.0,0.0,0.0,0.0,0.0,0.0,0.0,0.0,0.0,0.0,0.0,0.0,0.0,0.0,0.0,0.0,0.0,0.0,0.0,0.0,0.0,0.0,0.0,0.0,0.0,0.0,0.0,0.0,0.0,0.0,0.0,0.0,0.0,0.0,0.0,0.0,0.0,0.0,0.0,0.0,0.0,0.0,0.0,0.0,0.0,0.0,0.0,0.0,0.0,0.0,0.0,0.0,0.0,0.0,0.0,0.0,0.0,0.0,0.0,0.0,0.0,0.0,0.0,0.0,0.0,0.0,0.0,0.0,0.0,0.0,0.0,0.0,0.0,0.0,0.0,0.0,0.0,0.0,0.0,0.0,0.0,0.0,0.0,0.0,0.0,0.0,0.0,0.0,0.0,0.0,0.0,0.0,0.0,0.0,0.0,0.0,0.0,0.0,0.0,0.0,0.0,0.0,0.0,0.0,0.0,0.0,0.0,0.0,0.0,0.0,0.0,0.0,0.0,0.0,0.0,0.0,0.0,0.0,0.0,0.0,0.0,0.0,0.0,0.0,0.0,0.0,0.0,0.0,0.0,0.0,0.0,0.0,0.0,0.0,0.0,0.0,0.0,0.0,0.0,0.0,0.0,0.0,0.0,0.0,0.0,0.0,0.0,0.0,0.0,0.0,0.0,0.0,0.0,0.0,0.0,0.0,0.0,0.0,0.0,0.0,0.0,0.0,0.0,0.0,0.0,0.0,0.0,0.0,0.0,0.0,0.0,0.0,0.0,0.0,0.0,0.0,0.0,0.0,0.0,0.0,0.0,0.0,0.0,0.0,0.0,0.0,0.0,0.0,0.0,0.0,0.0,0.0,0.0,0.0,0.0,0.0,0.0,0.0,0.0,0.0,0.0,0.0,0.0,0.0,0.0,0.0,0.0,0.0,0.0,0.0,0.0,0.0,0.0,0.0,0.0,0.0,0.0,0.0,0.0,0.0,0.0,0.0,0.0,0.0,0.0,0.0,0.0,0.0,0.0,0.0,0.0,0.0,0.0,0.0,0.0,0.0,0.0,0.0,0.0,0.0,0.0,0.0,0.0,0.0,0.0,0.0,0.0,0.0,0.0,0.0,0.0,0.0,0.0,0.0,0.0,0.0,0.0,0.0,0.0,0.0,0.0,0.0,0.0,0.0,0.0,0.0,0.0,0.0,0.0,0.0,0.0,0.0,0.0,0.0,0.0,0.0,0.0,0.0,0.0,0.0,0.0,0.0,0.0,0.0,0.0,0.0,0.0,0.0,0.0,0.0,0.0,0.0,0.0,0.0,0.0,0.0,0.0,0.0,0.0,0.0,0.0,0.0,0.0,0.0,0.0,0.0,0.0,0.0,0.0,0.0,0.0,0.0,0.0,0.0,0.0,0.0,0.0,0.0,0.0,0.0,0.0,0.0,0.0,0.0,0.0,0.0,0.0,0.0,0.0,0.0,0.0,0.0,0.0,0.0,0.0,0.0,0.0,0.0,0.0,0.0,0.0,0.0,0.0,0.0,0.0,0.0,0.0,0.0,0.0,0.0,0.0,0.0,0.0,0.0,0.0,0.0,0.0,0.0,0.0,0.0,0.0,0.0,0.0,0.0,0.0,0.0,0.0,0.0,0.0,0.0,0.0,0.0,0.0,0.0,0.0,0.0,0.0,0.0,0.0,0.0,0.0,0.0,0.0,0.0,0.0,0.0,0.0,0.0,0.0,0.0,0.0,0.0,0.0,0.0,0.0,0.0,0.0,0.0,0.0,0.0,0.0,0.0,0.0,0.0,0.0,0.0,0.0,0.0,0.0,0.0,0.0,0.0,0.0,0.0,0.0,0.0,0.0,0.0,0.0,0.0,0.0,0.0,0.0,0.0,0.0,0.0,0.0,0.0,0.0,0.0,0.0,0.0,0.0,0.0,0.0,0.0,0.0,0.0,0.0,0.0,0.0,0.0,0.0,0.0,0.0,0.0,0.0,0.0,0.0,0.0,0.0,0.0,0.0,0.0,0.0,0.0,0.0,0.0,0.0,0.0,0.0,0.0,0.0,0.0,0.0,0.0,0.0,0.0,0.0,0.0,0.0,0.0,0.0,0.0,0.0,0.0,0.0,0.0,0.0,0.0,0.0,0.0,0.0,0.0,0.0,0.0,0.0,0.0,0.0,0.0,0.0,0.0,0.0,0.0,0.0,0.0,0.0,0.0,0.0,0.0,0.0,0.0,0.0,0.0,0.0,0.0,0.0,0.0,0.0,0.0,0.0,0.0,0.0,0.0,0.0,0.0,0.0,0.0,0.0,0.0,0.0,0.0,0.0,0.0,0.0,0.0,0.0,0.0,0.0,0.0,0.0,0.0,0.0,0.0,0.0,0.0,0.0,0.0,0.0,0.0,0.0,0.0,0.0,0.0,0.0,0.0,0.0,0.0,0.0,0.0,0.0,0.0,0.0,0.0,0.0,0.0,0.0,0.0,0.0,0.0,0.0,0.0,0.0,0.0,0.0,0.0,0.0,0.0,0.0,0.0,0.0,0.0,0.0,0.0,0.0,0.0,0.0,0.0,0.0,0.0,0.0,0.0,0.0,0.0,0.0,0.0,0.0,0.0,0.0,0.0,0.0,0.0,0.0,0.0,0.0,0.0,0.0,0.0,0.0,0.0,0.0,0.0,0.0,0.0,0.0,0.0,0.0,0.0,0.0,0.0,0.0,0.0,0.0,0.0,0.0,0.0,0.0,0.0,0.0,0.0,0.0,0.0,0.0,0.0,0.0,0.0,0.0,0.0,0.0,0.0,0.0,0.0,0.0,0.0,0.0,0.0,0.0,0.0,0.0,0.0,0.0,0.0,0.0,0.0,0.0,0.0,0.0,0.0,0.0,0.0,0.0,0.0,0.0,0.0,0.0,0.0,0.0,0.0,0.0,0.0,0.0,0.0,0.0,0.0,0.0,0.0,0.0,0.0,0.0,0.0,0.0,0.0,0.0,0.0,0.0,0.0,0.0,0.0,0.0,0.0,0.0,0.0,0.0,0.0,0.0,0.0,0.0,0.0,0.0,0.0,0.0,0.0,0.0,0.0,0.0,0.0,0.0,0.0,0.0,0.0,0.0,0.0,0.0,0.0,0.0,0.0,0.0,0.0,0.0,0.0,0.0,0.0,0.0,0.0,0.0,0.0,0.0,0.0,0.0,0.0,0.0,0.0,0.0,0.0,0.0,0.0,0.0,0.0,0.0,0.0,0.0,0.0,0.0,0.0,0.0,0.0,0.0,0.0,0.0,0.0,0.0,0.0,0.0,0.0,0.0,0.0,0.0,0.0,0.0,0.0,0.0,0.0,0.0,0.0,0.0,0.0,0.0,0.0,0.0,0.0,0.0,0.0,0.0,0.0,0.0,0.0,0.0,0.0,0.0,0.0,0.0,0.0,0.0,0.0,0.0,0.0,0.0,0.0,0.0,0.0,0.0,0.0,0.0,0.0,0.0,0.0,0.0,0.0,0.0,0.0,0.0,0.0,0.0,0.0,0.0,0.0,0.0,0.0,0.0,0.0,0.0,0.0,0.0,0.0,0.0,0.0,0.0,0.0,0.0,0.0,0.0,0.0,0.0,0.0,0.0,0.0,0.0,0.0,0.0,0.0,0.0,0.0,0.0,0.0,0.0,0.0,0.0,0.0,0.0,0.0,0.0,0.0,0.0,0.0,0.0,0.0,0.0,0.0,0.0,0.0,0.0,0.0,0.0,0.0,0.0,0.0,0.0,0.0,0.0,0.0,0.0,0.0,0.0,0.0,0.0,0.0,0.0,0.0,0.0,0.0,0.0,0.0,0.0,0.0,0.0,0.0,0.0,0.0,0.0,0.0,0.0,0.0,0.0,0.0,0.0,0.0,0.0,0.0,0.0,0.0,0.0,0.0,0.0,0.0,0.0,0.0,0.0,0.0,0.0,0.0,0.0,0.0,0.0,0.0,0.0,0.1194,0.0,0.0,0.0,0.0,0.0,0.0,0.0,0.0,0.0,0.0,0.0,0.0,0.0,0.0,0.0,0.0,0.0,0.0,0.0,0.0,0.0,0.0,0.0,0.0,0.0,0.0,0.0,0.0,0.0,0.0,0.0,0.0,0.0,0.0,0.0,0.0,0.0,0.0,0.0,0.0,0.0,0.0,0.0,0.0,0.0,0.0,0.0,0.0,0.0,0.0,0.0,0.0,0.0,0.0,0.0,0.0,0.0,0.0,0.0,0.0,0.0,0.0,0.0,0.0,0.0,0.0,0.0,0.0,0.0,0.0,0.0,0.0,0.0,0.0,0.0,0.0,0.0,0.0,0.0,0.0,0.0,0.0,0.0,0.0,0.0,0.0,0.0,0.0,0.0,0.0,0.0,0.0,0.0,0.0,0.0,0.0,0.0,0.0,0.0,0.0,0.0,0.0,0.0,0.0,0.0,0.0,0.0,0.0,0.0,0.0,0.214,0.21,0.1626,0.1327,0.1208,0.0,0.0,0.0,0.0,0.0,0.0,0.0,0.0,0.0,0.0,0.0,0.0,0.0,0.0,0.0,0.0,0.0,0.0,0.0,0.0,0.0,0.0,0.0,0.0,0.0,0.0,0.0,0.0,0.0,0.0,0.0,0.0,0.0,0.0,0.0,0.0,0.0,0.0,0.0,0.0,0.0,0.0,0.0,0.0,0.0,0.0,0.0,0.0,0.0,0.0,0.0,0.0,0.0,0.0,0.0,0.0,0.0,0.0,0.0,0.0,0.0,0.0,0.0,0.0,0.0,0.0,0.0,0.0,0.0,0.0,0.0,0.0,0.0,0.0,0.0,0.0,0.0,0.0,0.0,0.0,0.0,0.0,0.0,0.0,0.0,0.0,0.0,0.0,0.0,0.0,0.0,0.0,0.0,0.0,0.0,0.0,0.0,0.0,0.0,0.0,0.0,0.0,0.0,0.0,0.0,0.0,0.0,0.0,0.0,0.0,0.0,0.0,0.1493,0.1127,0.0967,0.0,0.0,0.0,0.0,0.0,0.0,0.0,0.0,0.0,0.0,0.0,0.0,0.0,0.0,0.0,0.0,0.0,0.0,0.0,0.0,0.0,0.0,0.0,0.0,0.0,0.0,0.0,0.0,0.0,0.0,0.0,0.0,0.0,0.0,0.0,0.0,0.0,0.0,0.0,0.0,0.0,0.0,0.0,0.0,0.0,0.0,0.0,0.0,0.0,0.0,0.0,0.0,0.0,0.0,0.0,0.0,0.0,0.0,0.0,0.0,0.0,0.0,0.0,0.0,0.0,0.0,0.0,0.0,0.0,0.0,0.0,0.0,0.0,0.0,0.0,0.0,0.0,0.0,0.0,0.0,0.0,0.0,0.0,0.0,0.0,0.0,0.0,0.0,0.0,0.0,0.0,0.0,0.0,0.0,0.0,0.0,0.0,0.0,0.0,0.0,0.0,0.0,0.0,0.0,0.0,0.0,0.0,0.0,0.0,0.0,0.1989,0.1744,0.1392,0.0,0.0338,0.0,0.0,0.0,0.0,0.0,0.0,0.0,0.0,0.0,0.0,0.0,0.0,0.0,0.0,0.0,0.0,0.0,0.0,0.0,0.0,0.0,0.0,0.0,0.0,0.0,0.0,0.0,0.0,0.0,0.0,0.0,0.0,0.0,0.0,0.0,0.0,0.0,0.0,0.0,0.0,0.0,0.0,0.0,0.0,0.0,0.0,0.0,0.0,0.0,0.0,0.0,0.0,0.0,0.0,0.0,0.0,0.0,0.0,0.0,0.0,0.0,0.0,0.0,0.0,0.0,0.0,0.0,0.0,0.0,0.0,0.0,0.0,0.0,0.0,0.0,0.0,0.0,0.0,0.0,0.0,0.0,0.0,0.0,0.0,0.0,0.0,0.0,0.0,0.0,0.0,0.0,0.0,0.0,0.0,0.0,0.0,0.0,0.0,0.0,0.0,0.0,0.0,0.0,0.0,0.0,0.0,0.0,0.0,0.0,0.0,0.0,0.1995,0.1522,0.0946,0.0,0.0,0.0,0.0,0.0,0.0,0.0,0.0,0.0,0.0,0.0,0.0,0.0,0.0,0.0,0.0,0.0,0.0,0.0,0.0,0.0,0.0,0.0,0.0,0.0,0.0,0.0,0.0,0.0,0.0,0.0,0.0,0.0,0.0,0.0,0.0,0.0,0.0,0.0,0.0,0.0,0.0,0.0,0.0,0.0,0.0,0.0,0.0,0.0,0.0,0.0,0.0,0.0,0.0,0.0,0.0,0.0,0.0,0.0,0.0,0.0,0.0,0.0,0.0,0.0,0.0,0.0,0.0,0.0,0.0,0.0,0.0,0.0,0.0,0.0,0.0,0.0,0.0,0.0,0.0,0.0,0.0,0.0,0.0,0.0,0.0,0.0,0.0,0.0,0.0,0.0,0.0,0.0,0.0,0.0,0.0,0.0,0.0,0.0,0.0,0.0,0.0,0.0,0.0,0.0,0.0,0.0,0.0,0.0,0.0,0.2153,0.0,0.18,0.1323,0.08,0.0292,0.0,0.0,0.0,0.0,0.0,0.0,0.0,0.0,0.0,0.0,0.0,0.0,0.0,0.0,0.0,0.0,0.0,0.0,0.0,0.0,0.0,0.0,0.0,0.0,0.0,0.0,0.0,0.0,0.0,0.0,0.0,0.0,0.0,0.0,0.0,0.0,0.0,0.0,0.0,0.0,0.0,0.0,0.0,0.0,0.0,0.0,0.0,0.0,0.0,0.0,0.0,0.0,0.0,0.0,0.0,0.0,0.0,0.0,0.0,0.0,0.0,0.0,0.0,0.0,0.0,0.0,0.0,0.0,0.0,0.0,0.0,0.0,0.0,0.0,0.0,0.0,0.0,0.0,0.0,0.0,0.0,0.0,0.0,0.0,0.0,0.0,0.0,0.0,0.0,0.0,0.0,0.0,0.0,0.0,0.0,0.0,0.0,0.0,0.0,0.0,0.0,0.0,0.0,0.0,0.0,0.0,0.0,0.0,0.0,0.1995,0.1452,0.093,0.0587,0.0367,0.0,0.0,0.0,0.0,0.0,0.0,0.0,0.0,0.0,0.0,0.0,0.0,0.0,0.0,0.0,0.0,0.0,0.0,0.0,0.0,0.0,0.0,0.0,0.0,0.0,0.0,0.0,0.0,0.0,0.0,0.0,0.0,0.0,0.0,0.0,0.0,0.0,0.0,0.0,0.0,0.0,0.0,0.0,0.0,0.0,0.0,0.0,0.0,0.0,0.0,0.0,0.0,0.0,0.0,0.0,0.0,0.0,0.0,0.0,0.0,0.0,0.0,0.0,0.0,0.0,0.0,0.0,0.0,0.0,0.0,0.0,0.0,0.0,0.0,0.0,0.0,0.0,0.0,0.0,0.0,0.0,0.0,0.0,0.0,0.0,0.0,0.0,0.0,0.0,0.0,0.0,0.0,0.0,0.0,0.0,0.0,0.0,0.0,0.0,0.0,0.0,0.0,0.0,0.0,0.0,0.0,0.0,0.0,0.0,0.2159,0.1858,0.158,0.0,0.0918,0.0609,0.0,0.0,0.0,0.0,0.0,0.0,0.0,0.0,0.0,0.0,0.0,0.0,0.0,0.0,0.0,0.0,0.0,0.0,0.0,0.0,0.0,0.0,0.0,0.0,0.0,0.0,0.0,0.0,0.0,0.0,0.0,0.0,0.0,0.0,0.0,0.0,0.0,0.0,0.0,0.0,0.0,0.0,0.0,0.0,0.0,0.0,0.0,0.0,0.0,0.0,0.0,0.0,0.0,0.0,0.0,0.0,0.0,0.0,0.0,0.0,0.0,0.0,0.0,0.0,0.0,0.0,0.0,0.0,0.0,0.0,0.0,0.0,0.0,0.0,0.0,0.0,0.0,0.0,0.0,0.0,0.0,0.0,0.0,0.0,0.0,0.0,0.0,0.0,0.0,0.0,0.0,0.0,0.0,0.0,0.0,0.0,0.0,0.0,0.0,0.0,0.0,0.0,0.0,0.0,0.0,0.0,0.0,0.0,0.0,0.1786,0.0,0.1448,0.0,0.0958,0.0654,0.0,0.0,0.0,0.0,0.0,0.0,0.0,0.0,0.0,0.0,0.0,0.0,0.0,0.0,0.0,0.0,0.0,0.0,0.0,0.0,0.0,0.0,0.0,0.0,0.0,0.0,0.0,0.0,0.0,0.0,0.0,0.0,0.0,0.0,0.0,0.0,0.0,0.0,0.0,0.0,0.0,0.0,0.0,0.0,0.0,0.0,0.0,0.0,0.0,0.0,0.0,0.0,0.0,0.0,0.0,0.0,0.0,0.0,0.0,0.0,0.0,0.0,0.0,0.0,0.0,0.0,0.0,0.0,0.0,0.0,0.0,0.0,0.0,0.0,0.0,0.0,0.0,0.0,0.0,0.0,0.0,0.0,0.0,0.0,0.0,0.0,0.0,0.0,0.0,0.0,0.0,0.0,0.0,0.0,0.0,0.0,0.0,0.0,0.0,0.0,0.0,0.0,0.0,0.0,0.0,0.0,0.0,0.0,0.1825,0.1347,0.1297,0.104,0.0453,0.0546,0.0472,0.0,0.0,0.0,0.0,0.0,0.0,0.0,0.0,0.0,0.0,0.0,0.0,0.0,0.0,0.0,0.0,0.0,0.0,0.0,0.0,0.0,0.0,0.0,0.0,0.0,0.0,0.0,0.0,0.0,0.0,0.0,0.0,0.0,0.0,0.0,0.0,0.0,0.0,0.0,0.0,0.0,0.0,0.0,0.0,0.0,0.0,0.0,0.0,0.0,0.0,0.0,0.0,0.0,0.0,0.0,0.0,0.0,0.0,0.0,0.0,0.0,0.0,0.0,0.0,0.0,0.0,0.0,0.0,0.0,0.0,0.0,0.0,0.0,0.0,0.0,0.0,0.0,0.0,0.0,0.0,0.0,0.0,0.0,0.0,0.0,0.0,0.0,0.0,0.0,0.0,0.0,0.0,0.0,0.0,0.0,0.0,0.0,0.0,0.0,0.0,0.0,0.0,0.0,0.0,0.0,0.0,0.0,0.0,0.0,0.1227,0.1058,0.0908,0.0808,0.055,0.0375,0.0,0.0,0.0,0.0,0.0,0.0,0.0,0.0,0.0,0.0,0.0,0.0,0.0,0.0,0.0,0.0,0.0,0.0,0.0,0.0,0.0,0.0,0.0,0.0,0.0,0.0,0.0,0.0,0.0,0.0,0.0,0.0,0.0,0.0,0.0,0.0,0.0,0.0,0.0,0.0,0.0,0.0,0.0,0.0,0.0,0.0,0.0,0.0,0.0,0.0,0.0,0.0,0.0,0.0,0.0,0.0,0.0,0.0,0.0,0.0,0.0,0.0,0.0,0.0,0.0,0.0,0.0,0.0,0.0,0.0,0.0,0.0,0.0,0.0,0.0,0.0,0.0,0.0,0.0,0.0,0.0,0.0,0.0,0.0,0.0,0.0,0.0,0.0,0.0,0.0,0.0,0.0,0.0,0.0,0.0,0.0,0.0,0.0,0.0,0.0,0.0,0.0,0.0,0.0,0.0,0.0,0.0,0.0,0.0,0.0273,0.0532,0.0698,0.0697,0.0458,0.0321,0.0286,0.0,0.0,0.0,0.0,0.0,0.0,0.0,0.0,0.0,0.0,0.0,0.0,0.0,0.0,0.0,0.0,0.0,0.0,0.0,0.0,0.0,0.0,0.0,0.0,0.0,0.0,0.0,0.0,0.0,0.0,0.0,0.0,0.0,0.0,0.0,0.0,0.0,0.0,0.0,0.0,0.0,0.0,0.0,0.0,0.0,0.0,0.0,0.0,0.0,0.0,0.0,0.0,0.0,0.0,0.0,0.0,0.0,0.0,0.0,0.0,0.0,0.0,0.0,0.0,0.0,0.0,0.0,0.0,0.0,0.0,0.0,0.0,0.0,0.0,0.0,0.0,0.0,0.0,0.0,0.0,0.0,0.0,0.0,0.0,0.0,0.0,0.0,0.0,0.0,0.0,0.0,0.0,0.0,0.0,0.0,0.0,0.0,0.0,0.0,0.0,0.0,0.0,0.0,0.0,0.0,0.0,0.0,0.0,-0.1301,-0.0209,0.0274,0.0161,0.0245,0.0249,0.0,0.0,0.0,0.0,0.0,0.0,0.0,0.0,0.0,0.0,0.0,0.0,0.0,0.0,0.0,0.0,0.0,0.0,0.0,0.0,0.0,0.0,0.0,0.0,0.0,0.0,0.0,0.0,0.0,0.0,0.0,0.0,0.0,0.0,0.0,0.0,0.0,0.0,0.0,0.0,0.0,0.0,0.0,0.0,0.0,0.0,0.0,0.0,0.0,0.0,0.0,0.0,0.0,0.0,0.0,0.0,0.0,0.0,0.0,0.0,0.0,0.0,0.0,0.0,0.0,0.0,0.0,0.0,0.0,0.0,0.0,0.0,0.0,0.0,0.0,0.0,0.0,0.0,0.0,0.0,0.0,0.0,0.0,0.0,0.0,0.0,0.0,0.0,0.0,0.0,0.0,0.0,0.0,0.0,0.0,0.0,0.0,0.0,0.0,0.0,0.0,0.0,0.0,0.0,0.0,0.0,0.0,0.0,0.0,-0.1277,-0.134,-0.1084,-0.0569,-0.0553,-0.0343,0.0,0.0,0.0,0.0,0.0,0.0,0.0,0.0,0.0,0.0,0.0,0.0,0.0,0.0,0.0,0.0,0.0,0.0,0.0,0.0,0.0,0.0,0.0,0.0,0.0,0.0,0.0,0.0,0.0,0.0,0.0,0.0,0.0,0.0,0.0,0.0,0.0,0.0,0.0,0.0,0.0,0.0,0.0,0.0,0.0,0.0,0.0,0.0,0.0,0.0,0.0,0.0,0.0,0.0,0.0,0.0,0.0,0.0,0.0,0.0,0.0,0.0,0.0,0.0,0.0,0.0,0.0,0.0,0.0,0.0,0.0,0.0,0.0,0.0,0.0,0.0,0.0,0.0,0.0,0.0,0.0,0.0,0.0,0.0,0.0,0.0,0.0,0.0,0.0,0.0,0.0,0.0,0.0,0.0,0.0,0.0,0.0,0.0,0.0,0.0,0.0,0.0,0.0,0.0,0.0,0.0,0.0,0.0,-0.175,-0.2047,-0.2652,-0.2604,-0.1829,-0.125,-0.0735,0.0,0.0,0.0,0.0,0.0,0.0,0.0,0.0,0.0,0.0,0.0,0.0,0.0,0.0,0.0,0.0,0.0,0.0,0.0,0.0,0.0,0.0,0.0,0.0,0.0,0.0,0.0,0.0,0.0,0.0,0.0,0.0,0.0,0.0,0.0,0.0,0.0,0.0,0.0,0.0,0.0,0.0,0.0,0.0,0.0,0.0,0.0,0.0,0.0,0.0,0.0,0.0,0.0,0.0,0.0,0.0,0.0,0.0,0.0,0.0,0.0,0.0,0.0,0.0,0.0,0.0,0.0,0.0,0.0,0.0,0.0,0.0,0.0,0.0,0.0,0.0,0.0,0.0,0.0,0.0,0.0,0.0,0.0,0.0,0.0,0.0,0.0,0.0,0.0,0.0,0.0,0.0,0.0,0.0,0.0,0.0,0.0,0.0,0.0,0.0,0.0,0.0,0.0,0.0,0.0,0.0,0.0,0.0,-0.2672,-0.313,-0.3908,-0.3995,-0.3303,-0.1877,-0.1082,0.0,0.0,0.0,0.0,0.0,0.0,0.0,0.0,0.0,0.0,0.0,0.0,0.0,0.0,0.0,0.0,0.0,0.0,0.0,0.0,0.0,0.0,0.0,0.0,0.0,0.0,0.0,0.0,0.0,0.0,0.0,0.0,0.0,0.0,0.0,0.0,0.0,0.0,0.0,0.0,0.0,0.0,0.0,0.0,0.0,0.0,0.0,0.0,0.0,0.0,0.0,0.0,0.0,0.0,0.0,0.0,0.0,0.0,0.0,0.0,0.0,0.0,0.0,0.0,0.0,0.0,0.0,0.0,0.0,0.0,0.0,0.0,0.0,0.0,0.0,0.0,0.0,0.0,0.0,0.0,0.0,0.0,0.0,0.0,0.0,0.0,0.0,0.0,0.0,0.0,0.0,0.0,0.0,0.0,0.0,0.0,0.0,0.0,0.0,0.0,0.0,0.0,0.0,0.0,0.0,0.0,0.0,0.0,-0.3306,-0.342,-0.3994,-0.4233,-0.4059,-0.2627,-0.1604,0.0,0.0,0.0,0.0,0.0,0.0,0.0,0.0,0.0,0.0,0.0,0.0,0.0,0.0,0.0,0.0,0.0,0.0,0.0,0.0,0.0,0.0,0.0,0.0,0.0,0.0,0.0,0.0,0.0,0.0,0.0,0.0,0.0,0.0,0.0,0.0,0.0,0.0,0.0,0.0,0.0,0.0,0.0,0.0,0.0,0.0,0.0,0.0,0.6213,0.0,0.0,0.0,0.0,0.0,0.0,0.0,0.0,0.0,0.0,0.0,0.0,0.0,0.0,0.0,0.0,0.0,0.0,0.0,0.0,0.0,0.0,0.0,0.0,0.0,0.0,0.0,0.0,0.0,0.0,0.0,0.0,0.0,0.0,0.0,0.0,0.0,0.0,0.0,0.0,0.0,0.0,0.0,0.0,0.0,0.0,0.0,0.0,0.0,0.0,0.0,0.0,0.0,0.0,0.0,0.0,0.0,0.0,0.0,-0.3542,-0.3656,-0.408,-0.4303,-0.4245,-0.2861,-0.1885,0.0,0.0,0.0,0.0,0.0,0.0,0.0,0.0,0.0,0.0,0.0,0.0,0.0,0.0,0.0,0.0,0.0,0.0,0.0,0.0,0.0,0.0,0.0,0.0,0.0,0.0,0.0,0.0,0.0,0.0,0.0,0.0,0.0,0.0,0.0,0.0,0.0,0.0,0.0,0.0,0.0,0.0,0.0,0.0,0.0,0.0,0.0,0.0,0.0,0.0,0.0,0.0,0.0,0.0,0.0,0.0,0.0,0.0,0.0,0.0,0.0,0.0,0.0,0.0,0.0,0.0,0.0,0.0,0.0,0.0,0.0,0.0,0.0,0.0,0.0,0.0,0.0,0.0,0.0,0.0,0.0,0.0,0.0,0.0,0.0,0.0,0.0,0.0,0.0,0.0,0.0,0.0,0.0,0.0,0.0,0.0,0.0,0.0,0.0,0.0,0.0,0.0,0.0,0.0,0.0,0.0,0.0,-0.3256,-0.3661,-0.3881,-0.4172,-0.4303,-0.4261,-0.287,-0.2065,-0.1982,0.0,0.0,0.0,0.0,0.0,0.0,0.0,0.0,0.0,0.0,0.0,0.0,0.0,0.0,0.0,0.0,0.0,0.0,0.0,0.0,0.0,0.0,0.0,0.0,0.0,0.0,0.0,0.0,0.0,0.0,0.0,0.0,0.0,0.0,0.0,0.0,0.0,0.0,0.3732,0.4541,0.0,0.0,0.0,0.0,0.0,0.0,0.0,0.0,0.6092,0.0,0.0,0.0,0.0,0.0,0.0,0.0,0.0,0.0,0.0,0.0,0.0,0.0,0.0,0.0,0.0,0.0,0.0,0.0,0.0,0.0,0.0,0.0,0.0,0.0,0.0,0.0,0.0,0.0,0.0,0.0,0.0,0.0,0.0,0.0,0.0,0.0,0.0,0.0,0.0,0.0,0.0,0.0,0.0,0.0,0.0,0.0,0.0,0.0,0.0,0.0,0.0,0.0,0.0,0.0,0.0,-0.3182,-0.3605,-0.3953,-0.4221,-0.4268,-0.4303,-0.4259,-0.287,-0.2092,-0.2009,0.0,0.0,0.0,0.0,0.0,0.0,0.0,0.0,0.0,0.0,0.0,0.0,0.0,0.0,0.0,0.0,0.0,0.0,0.0,0.0,0.0,0.0,0.0,0.0,0.0,0.0,0.0,0.0,0.0,0.0,0.0,0.0,0.0,0.0,0.0,0.0,0.0,0.0,0.0,0.5782,0.6244,0.0,0.0,0.0,0.0,0.0,0.0,0.0,0.0,0.667,0.0,0.0,0.0,0.0,0.0,0.0,0.0,0.0,0.0,0.0,0.0,0.0,0.0,0.0,0.0,0.0,0.0,0.0,0.0,0.0,0.0,0.0,0.0,0.0,0.0,0.0,0.0,0.0,0.0,0.0,0.0,0.0,0.0,0.0,0.0,0.0,0.0,0.0,0.0,0.0,0.0,0.0,0.0,0.0,0.0,0.0,0.0,0.0,0.0,0.0,0.0,0.0,0.0,0.0,0.0,-0.4111,-0.4453,-0.4752,-0.4962,-0.4531,-0.4303,-0.4259,-0.2857,-0.2106,0.0,0.0,0.0,0.0,0.0,0.0,0.0,0.0,0.0,0.0,0.0,0.0,0.0,0.0,0.0,0.0,0.0,0.0,0.0,0.0,0.0,0.0,0.0,0.0,0.0,0.0,0.0,0.0,0.0,0.0,0.0,0.0,0.0,0.0,0.0,0.0,0.0,0.0,0.0,0.0,0.6314,0.6881,0.7917,0.0,0.0,0.0,0.0,0.0,0.0,0.7017,0.6647,0.0,0.0,0.0,0.0,0.0,0.0,0.0,0.0,0.0,0.0,0.0,0.0,0.0,0.0,0.0,0.0,0.0,0.0,0.0,0.0,0.0,0.0,0.0,0.0,0.0,0.0,0.0,0.0,0.0,0.0,0.0,0.0,0.0,0.0,0.0,0.0,0.0,0.0,0.0,0.0,0.0,0.0,0.0,0.0,0.0,0.0,0.0,0.0,0.0,0.0,0.0,0.0,0.0,0.0,0.0,-0.4901,-0.5157,-0.5378,-0.5555,-0.4764,-0.4303,-0.4292,-0.2869,-0.2116,0.0,0.0,0.0,0.0,0.0,0.0,0.0,0.0,0.0,0.0,0.0,0.0,0.0,0.0,0.0,0.0,0.0,0.0,0.0,0.0,0.0,0.0,0.0,0.0,0.0,0.0,0.0,0.0,0.0,0.0,0.0,0.0,0.0,0.0,0.0,0.0,0.0,0.0,0.0,0.0,0.0,0.7586,0.8882,0.8041,0.0,0.0,0.0,0.0,0.7636,0.7289,0.0,0.0,0.0,0.0,0.0,0.0,0.0,0.0,0.0,0.0,0.0,0.0,0.0,0.0,0.0,0.0,0.0,0.0,0.0,0.0,0.0,0.0,0.0,0.0,0.0,0.0,0.0,0.0,0.0,0.0,0.0,0.0,0.0,0.0,0.0,0.0,0.0,0.0,0.0,0.0,0.0,0.0,0.0,0.0,0.0,0.0,0.0,0.0,0.0,0.0,0.0,0.0,0.0,0.0,0.0,0.0,-0.4957,-0.5136,-0.535,-0.5545,-0.4761,-0.4303,-0.4292,-0.2889,-0.2108,0.0,0.0,0.0,0.0,0.0,0.0,0.0,0.0,0.0,0.0,0.0,0.0,0.0,0.0,0.0,0.0,0.0,0.0,0.0,0.0,0.0,0.0,0.0,0.0,0.0,0.0,0.0,0.0,0.0,0.0,0.0,0.0,0.0,0.0,0.0,0.0,0.0,0.0,0.0,0.0,0.0,0.8414,0.8342,0.7971,0.773,0.0,0.0,0.8349,0.8969,0.9146,0.0,0.0,0.0,0.0,0.0,0.0,0.0,0.0,0.0,0.0,0.0,0.0,0.0,0.0,0.0,0.0,0.0,0.0,0.0,0.0,0.0,0.0,0.0,0.0,0.0,0.0,0.0,0.0,0.0,0.0,0.0,0.0,0.0,0.0,0.0,0.0,0.0,0.0,0.0,0.0,0.0,0.0,0.0,0.0,0.0,0.0,0.0,0.0,0.0,0.0,0.0,0.0,0.0,0.0,0.0,-0.4964,-0.5712,-0.6155,-0.6384,-0.6318,-0.5382,-0.4694,-0.43,-0.287,-0.2111,0.0,0.0,0.0,0.0,0.0,0.0,0.0,0.0,0.0,0.0,0.0,0.0,0.0,0.0,0.0,0.0,0.0,0.0,0.0,0.0,0.0,0.0,0.0,0.0,0.0,0.0,0.0,0.0,0.0,0.0,0.0,0.0,0.0,0.0,0.0,0.0,0.0,0.0,0.0,0.0,0.0,0.0,0.8856,0.8556,0.0,0.0,0.0,0.8707,0.8735,0.0,0.0,0.0,0.0,0.0,0.0,0.0,0.0,0.0,0.0,0.0,0.0,0.0,0.0,0.0,0.0,0.0,0.0,0.0,0.0,0.0,0.0,0.0,0.0,0.0,0.0,0.0,0.0,0.0,0.0,0.0,0.0,0.0,0.0,0.0,0.0,0.0,0.0,0.0,0.0,0.0,0.0,0.0,0.0,0.0,0.0,0.0,0.0,0.0,0.0,0.0,0.0,0.0,0.0,0.0,0.0,0.0,-0.6263,-0.6989,-0.7207,-0.6846,-0.5837,-0.4984,-0.4317,-0.2843,0.0,0.0,0.0,0.0,0.0,0.0,0.0,0.0,0.0,0.0,0.0,0.0,0.0,0.0,0.0,0.0,0.0,0.0,0.0,0.0,0.0,0.0,0.0,0.0,0.0,0.0,0.0,0.1903,0.0,0.0,0.0,0.0,0.0,0.0,0.0,0.0,0.0,0.0,0.0,0.0,0.0,0.0,0.871,0.919,0.9017,0.8943,0.0,0.0,0.898,0.8783,0.9652,0.9785,0.0,0.0,0.0,0.0,0.0,0.0,0.0,0.0,0.0,0.0,0.0,0.0,0.0,0.0,0.0,0.0,0.0,0.0,0.0,0.0,0.0,0.0,0.0,0.0,0.0,0.0,0.0,0.0,0.0,0.0,0.0,0.0,0.0,0.0,0.0,0.0,0.0,0.0,0.0,0.0,0.0,0.0,0.0,0.0,0.0,0.0,0.0,0.0,0.0,0.0,0.0,0.0,0.0,0.0,0.0,-0.6119,-0.7078,-0.7324,-0.6711,-0.58,-0.4984,-0.4289,-0.2767,-0.1949,0.0,0.0,0.0,0.0,0.0,0.0,0.0,0.0,0.0,0.0,0.0,0.0,0.0,0.0,0.0,0.0,0.0,0.0,0.0,0.0,0.0,0.0,0.0,0.0,0.0,0.0,0.0,0.0,0.0,0.0,0.0,0.0,0.0,0.0,0.0,0.0,0.0,0.0,0.0,0.0,0.0,0.8873,0.8948,0.9073,0.9386,0.0,0.0,0.9358,0.9883,1.0543,1.0411,0.8629,0.0,0.0,0.0,0.0,0.0,0.0,0.0,0.0,0.0,0.0,0.0,0.0,0.0,0.0,0.0,0.0,0.0,0.0,0.0,0.0,0.0,0.0,0.0,0.0,0.0,0.0,0.0,0.0,0.0,0.0,0.0,0.0,0.0,0.0,0.0,0.0,0.0,0.0,0.0,0.0,0.0,0.0,0.0,0.0,0.0,0.0,0.0,0.0,0.0,0.0,0.0,0.0,0.0,-0.6133,-0.6615,-0.7875,-0.8307,-0.7812,-0.6621,-0.5639,-0.4954,-0.3411,-0.241,0.0,0.0,0.0,0.0,0.0,0.0,0.0,0.0,0.0,0.0,0.0,0.0,0.0,0.0,0.0,0.0,0.0,0.0,0.0,0.0,0.0,0.0,0.0,0.0,0.0,0.0,0.0,0.0,0.3112,0.3354,0.3987,0.0,0.0,0.0,0.0,0.0,0.0,0.0,0.0,0.0,0.0,0.8926,0.9667,0.961,0.0,0.0,1.0074,0.9861,0.959,1.0298,1.0293,0.8403,0.8181,0.0,0.0,0.0,0.0,0.0,0.0,0.0,0.0,0.0,0.0,0.0,0.0,0.0,0.0,0.0,0.0,0.0,0.0,0.0,0.0,0.0,0.0,0.0,0.0,0.0,0.0,0.0,0.0,0.0,0.0,0.0,0.0,0.0,0.0,0.0,0.0,0.0,0.0,0.0,0.0,0.0,0.0,0.0,0.0,0.0,0.0,0.0,0.0,0.0,0.0,0.0,0.0,-0.6454,-0.6893,-0.8499,-0.9023,-0.8409,-0.7437,-0.6424,-0.5328,-0.3938,-0.2862,0.0,0.0,0.0,0.0,0.0,0.0,0.0,0.0,0.0,0.0,0.0,0.0,0.0,0.0,0.0,0.0,0.0,0.0,0.0,0.0,0.0,0.0,0.0,0.0,0.0,0.0,0.0,0.0,0.3516,0.3686,0.3875,0.0,0.0,0.0,0.0,0.0,0.0,0.0,0.0,0.0,0.0,0.9044,0.9778,0.9632,0.9556,0.9809,0.9744,0.9528,0.913,0.9591,0.9563,0.8289,0.0,0.0,0.0,0.0,0.0,0.0,0.0,0.0,0.0,0.0,0.0,0.0,0.0,0.0,0.0,0.0,0.0,0.0,0.0,0.0,0.0,0.0,0.0,0.0,0.0,0.0,0.0,0.0,0.0,0.0,-0.1869,0.0,0.0,0.0,0.0,0.0,0.0,0.0,0.0,0.0,0.0,0.0,0.0,0.0,0.0,0.0,0.0,0.0,0.0,0.0,0.0,0.0,0.0,-0.6518,-0.6929,-0.8869,-0.9352,-0.8297,-0.8178,-0.7265,-0.543,-0.4199,-0.3307,-0.2696,0.0,0.0,0.0,0.0,0.0,0.0,0.0,0.0,0.0,0.0,0.0,0.0,0.0,0.0,0.0,0.0,0.0,0.0,0.0,0.0,0.0,0.0,0.0,0.0,0.0,0.0,0.2278,0.3115,0.3602,0.0,0.0,0.0,0.0,0.0,0.0,0.0,0.0,0.0,0.0,0.8506,0.9275,0.9071,0.8917,0.8838,0.8865,0.8353,0.8172,0.8711,0.848,0.8239,0.0,0.0,0.0,0.0,0.0,0.0,0.0,0.0,0.0,0.0,0.0,0.0,0.0,0.0,0.0,0.0,0.0,0.0,0.0,0.0,0.0,0.0,0.0,0.0,0.0,0.0,0.0,-0.6565,-0.6234,0.0,0.0,0.0,0.0,0.0,0.0,0.0,0.0,0.0,0.0,0.0,-1.2443,-1.2152,0.0,0.0,0.0,0.0,0.0,0.0,0.0,0.0,0.0,0.0,0.0,0.0,-0.7356,-0.7896,-0.9555,-1.0258,-0.9913,-0.879,-0.7914,-0.7233,-0.5528,-0.3953,-0.2613,0.0,0.0,0.0,0.0,0.0,0.0,0.0,0.0,0.0,0.0,0.0,0.0,0.0,0.0,0.0,0.0,0.0,0.0,0.0,0.0,0.0,0.0,0.0,0.0,0.0,0.2498,0.0,0.0,0.0,0.0,0.0,0.0,0.0,0.0,0.0,0.0,0.0,0.7038,0.7982,0.8274,0.8563,0.9072,0.8677,0.8526,0.0,0.0,0.0,0.0,0.0,0.0,0.0,0.0,0.0,0.0,0.0,0.0,0.0,0.0,0.9393,0.7885,0.8449,0.9203,0.9364,0.0,0.0,0.0,0.0,0.0,0.0,0.0,0.0,0.0,0.0,0.0,0.0,0.0,0.0,-1.0623,0.0,-0.9358,0.0,0.0,0.0,0.0,0.0,0.0,0.0,0.0,-1.4473,-1.5347,-1.5742,-1.5364,-1.475,0.0,-1.3128,-1.0503,0.0,0.0,0.0,0.0,0.0,0.0,0.0,0.0,-0.826,-0.8806,-1.0354,-1.1057,-1.0762,-0.9697,-0.8822,-0.8205,-0.6298,-0.4507,-0.287,-0.1839,-0.1038,0.0,0.0,0.0,0.0,0.0,0.0,0.0,0.0,0.0,0.0,0.0,0.0,0.0,0.0,0.0,0.0,0.0,0.0,0.0,0.0,0.0,0.0,0.0,0.2715,0.0,0.0,0.0,0.0,0.0,0.0,0.0,0.0,0.0,0.5798,0.6359,0.7011,0.7959,0.8015,0.8027,0.8336,0.0,0.0,0.0,0.0,0.0,0.0,0.0,0.7632,0.7745,0.8129,0.8674,0.9439,0.9755,0.9884,0.9803,0.0,0.0,0.9503,1.0263,1.1172,1.1344,1.1905,1.2305,1.2186,1.2445,1.2638,0.0,0.0,0.0,0.0,0.0,0.0,0.0,0.0,-1.519,-1.4287,0.0,-1.3501,0.0,0.0,0.0,0.0,0.0,-1.5166,0.0,0.0,-1.9618,-2.0121,-1.8285,-1.7767,-1.7186,-1.6515,-1.5981,-1.4747,-1.2782,-0.9953,0.0,0.0,0.0,0.0,0.0,0.0,-0.9286,-0.9766,-1.1344,-1.1746,-1.0922,-1.0821,-0.9964,-0.8232,-0.6546,-0.4975,-0.3527,-0.3131,-0.2195,-0.0526,-0.0417,0.0,0.0,0.0,0.0,0.0,0.0,0.0,0.0,0.0,0.0,0.0,0.0,0.0,0.0,0.0,0.0,0.0,0.0,0.0,0.0,0.2579,0.0,0.0,0.0,0.0,0.0,0.0,0.0,0.0,0.0,0.0,0.5148,0.5548,0.6186,0.7152,0.0,0.0,0.0,0.0,0.7168,0.6147,0.6096,0.6228,0.6275,0.6796,0.7544,0.8585,0.0,0.0,1.1074,1.0413,0.9791,0.9553,1.0712,1.1525,1.1284,1.1861,1.2496,1.2917,1.2803,1.2651,1.2985,1.2971,1.264,-2.181,0.0,0.0,0.0,0.0,-1.8126,-1.9452,-2.15,-2.0416,-1.966,-1.9089,-1.7981,0.0,0.0,0.0,0.0,0.0,0.0,-1.8596,-1.9753,-2.0546,-2.1075,-2.1276,-2.0824,-2.0194,-1.9377,-1.8951,-1.8309,-1.7424,-1.576,-1.2715,-0.8451,0.0,0.0,0.0,0.0,-1.1094,-1.1781,-1.2821,-1.2962,-1.2104,-1.1485,-1.0225,-0.8243,-0.745,-0.6197,-0.4471,-0.3627,-0.2549,-0.1108,-0.0633,0.0,0.0,0.0,0.0,0.0,0.0,0.0,0.0,0.0,0.0,0.0,0.0,0.0,0.0,0.0,0.0,0.0,0.0,0.0,0.2378,0.2661,0.2725,0.0,0.0,0.0,0.0,0.0,0.0,0.0,0.0,0.0,0.4916,0.5695,0.635,0.0,0.0,0.6294,0.5913,0.6144,0.6402,0.6573,0.0,0.0,0.0,0.7246,0.7353,0.7975,0.9235,1.0439,1.1194,1.1471,1.1523,1.145,1.2248,1.2915,1.2886,1.3451,1.3931,1.4149,1.4762,1.5337,1.5364,1.5534,1.569,-2.7867,-2.4433,-2.2357,-2.1881,-2.2512,-2.2502,-2.3694,-2.5619,-2.472,-2.4014,-2.3402,-2.2618,-2.1023,-1.89,-1.8473,0.0,0.0,0.0,-2.1731,-2.3339,-2.2669,-2.2734,-2.3351,-2.2592,-2.1815,-2.1112,-2.0868,-2.0438,-1.9838,-1.8811,-1.6219,-1.2231,0.0,0.0,-1.1014,-1.2238,-1.3145,-1.3632,-1.4217,-1.4014,-1.294,-1.1711,-1.049,-0.9276,-0.8429,-0.734,-0.5957,-0.472,-0.3485,-0.2141,-0.1302,-0.0568,0.0,0.0,0.0,0.0,0.0,0.0,0.0,0.0,0.0,0.0,0.0,0.1175,0.0,0.0,0.0,0.0,0.2338,0.2474,0.259,0.2856,0.0,0.0,0.0,0.0,0.0,0.0,0.0,0.3531,0.4034,0.4559,0.4938,0.5489,0.5967,0.6193,0.6029,0.5757,0.5526,0.0,0.6192,0.6441,0.637,0.6547,0.7254,0.7602,0.8109,0.9202,1.0105,1.1034,1.1791,1.2288,1.2432,1.2412,1.2703,1.3025,1.3025,1.362,1.4391,1.4943,1.5708,1.6285,1.6483,1.6846,1.7038,-3.2416,-3.1516,-2.78,-2.6469,-2.6793,-2.678,-2.7411,-2.8454,-2.8178,-2.7428,-2.648,-2.7081,-2.5841,-2.3311,-2.2641,0.0,-2.4641,-2.46,-2.5366,-2.6772,-2.5484,-2.4871,-2.4741,-2.3452,-2.2549,-2.2073,-2.2011,-2.1549,-2.0687,-1.982,-1.8769,-1.7517,-1.6036,-1.4966,-1.4422,-1.4804,-1.5123,-1.5274,-1.5445,-1.4886,-1.3491,-1.1862,-1.0985,-1.0832,-0.9506,-0.8413,-0.7649,-0.627,-0.4851,-0.3421,-0.2268,-0.1343,-0.0618,0.0,0.0,0.0,0.0,0.0,0.0,0.0,0.0,0.0,0.0,0.0,0.0,0.0,0.0,0.0,0.2955,0.0,0.2899,0.3073,0.0,0.0,0.0,0.3436,0.3699,0.404,0.4257,0.4217,0.0,0.0,0.4922,0.0,0.5173,0.576,0.5877,0.5786,0.5521,0.6124,0.6412,0.6021,0.635,0.6707,0.6945,0.7854,0.9179,1.0953,1.1635,1.1772,1.2486,1.2611,1.2556,1.2405,1.2325,1.2305,1.2305,1.296,1.3861,1.5217,1.5702,1.6035,1.6707,1.6899,1.6943,-3.4984,-3.4721,-3.3261,-3.1708,-3.0122,-3.0017,-3.0399,-3.1025,-3.0537,-2.9864,-2.9168,-2.9291,-2.8846,-2.798,-2.7805,-2.7652,-2.7512,-2.7244,-2.7126,-2.7145,-2.6616,-2.6172,-2.5735,-2.5172,-2.438,-2.3511,-2.2897,-2.2218,-2.1577,-2.0717,-1.9753,-1.8736,-1.806,-1.6706,-1.4768,-1.5251,-1.5669,-1.5988,-1.6064,-1.5446,-1.4064,-1.3356,-1.2421,-1.1216,-1.0667,-0.967,-0.8206,-0.7594,-0.6201,-0.3889,-0.338,-0.2607,-0.1347,-0.0825,0.0,0.0,0.0,0.0,0.0,0.0,0.0,0.0,0.0,0.0855,0.0893,0.0,0.1301,0.0,0.2225,0.2607,0.2869,0.2965,0.0,0.0,0.3698,0.3774,0.4056,0.3947,0.3794,0.3615,0.3487,0.3423,0.3549,0.3592,0.3765,0.4278,0.5118,0.5624,0.5455,0.6104,0.6594,0.6535,0.6918,0.7477,0.7697,0.8239,0.9036,1.0165,1.0211,1.058,1.2166,1.2045,1.1935,1.2518,1.2445,1.2325,1.2305,1.2482,1.2915,1.389,1.4966,1.6009,1.6726,1.6908,1.6908,-3.6323,-3.6274,-3.5564,-3.4634,-3.3635,-3.2999,-3.2898,-3.3165,-3.2807,-3.2406,-3.205,-3.1943,-3.1618,-3.1084,-3.0945,-3.0501,-2.9781,-2.9261,-2.8893,-2.8581,-2.7817,-2.7329,-2.7012,-2.6432,-2.5677,-2.4701,-2.4261,-2.3545,-2.2592,-2.1917,-2.1172,-2.0339,-1.9756,-1.8536,-1.6732,-1.6316,-1.62,-1.6275,-1.6151,-1.5847,-1.539,-1.4548,-1.3383,-1.1912,-1.1179,-0.9974,-0.8211,-0.7395,-0.6193,-0.4555,-0.3692,-0.2836,-0.1908,-0.1419,-0.0987,0.0,0.0,0.0,0.0,0.0,0.0,0.0,0.0,0.0,0.0,0.0,0.1016,0.121,0.1691,0.2067,0.223,0.2331,0.2647,0.3205,0.3317,0.346,0.3767,0.3689,0.3567,0.3445,0.3342,0.3332,0.3414,0.342,0.3503,0.3776,0.4414,0.4847,0.4769,0.5165,0.5513,0.5587,0.5968,0.6599,0.743,0.8069,0.8732,0.9676,0.9809,1.0131,1.1411,1.1415,1.1425,1.2016,1.2031,1.1996,1.2227,1.2305,1.2629,1.3774,1.4673,1.5498,1.6254,1.6647,1.6908,-3.7158,-3.7119,-3.6374,-3.6403,-3.6899,-3.5721,-3.5107,-3.4891,-3.4776,-3.473,-3.4725,-3.4486,-3.394,-3.3272,-3.3012,-3.2506,-3.1805,-3.1043,-3.0639,-3.0505,-2.9132,-2.8485,-2.8427,-2.7591,-2.671,-2.5903,-2.5764,-2.5039,-2.3709,-2.3183,-2.2547,-2.1794,-2.0974,-1.9994,-1.8822,-1.7449,-1.6684,-1.6441,-1.6188,-1.6331,-1.6785,-1.5366,-1.3929,-1.2513,-1.1406,-0.9966,-0.8249,-0.6915,-0.5939,-0.5321,-0.3935,-0.304,-0.2785,-0.2259,-0.1784,0.0,-0.1681,0.0,0.0,0.0,0.0,0.0,0.0,0.0,0.0,0.0478,0.0495,0.0608,0.0942,0.1156,0.1139,0.1328,0.1679,0.2237,0.2476,0.2728,0.3072,0.3204,0.3289,0.3338,0.34,0.3441,0.3394,0.348,0.3473,0.3368,0.3465,0.3537,0.3546,0.3898,0.4251,0.4134,0.4374,0.5304,0.6508,0.7441,0.8372,0.9375,0.9637,0.9966,1.0647,1.0737,1.0862,1.1365,1.1477,1.163,1.2203,1.2305,1.2732,1.3882,1.4386,1.4958,1.5833,1.6508,1.6874,-3.8441,-3.8879,-3.8175,-3.8165,-3.8525,-3.8183,-3.725,-3.6091,-3.606,-3.6023,-3.5902,-3.5427,-3.5208,-3.5249,-3.5205,-3.4792,-3.4023,-3.3098,-3.2448,-3.2005,-3.058,-2.9913,-2.9852,-2.9045,-2.8197,-2.7283,-2.6624,-2.5807,-2.4792,-2.3852,-2.2657,-2.1338,-2.0724,-1.9541,-1.7873,0.0,0.0,0.0,-1.723,-1.7236,-1.6484,-1.5303,-1.3961,-1.2476,-1.1769,0.0,-0.9219,-0.8698,-0.7691,-0.6031,-0.5788,0.0,0.0,0.0,0.0,0.0,0.0,0.0,0.0,0.0,0.0,0.0,-0.5247,-0.4048,-0.1777,-0.1425,-0.1268,-0.0999,-0.1089,-0.093,-0.0356,-0.0323,-0.0033,0.059,0.1232,0.1759,0.197,0.2031,0.213,0.2409,0.1877,0.153,0.1765,0.1766,0.1796,0.1866,0.1804,0.1835,0.1895,0.3233,0.4219,0.4267,0.4326,0.4959,0.6068,0.6688,0.7445,0.8285,0.8732,0.9152,0.9875,0.9913,1.0278,1.1387,1.157,1.1604,1.2166,1.2305,1.2409,1.2703,1.3738,1.5037,1.6368,1.6769,1.6908,-3.9098,0.0,-3.8603,-3.862,0.0,-3.8455,-3.8128,-3.7966,-3.7234,-3.6862,-3.6832,-3.686,-3.6749,-3.6522,-3.6401,-3.5876,-3.4989,-3.4102,-3.3496,-3.3051,-3.1522,-3.0773,-3.0773,-2.9806,-2.9028,-2.8379,-2.7825,-2.7069,-2.6134,-2.5141,-2.3991,-2.2652,-2.1964,-2.0864,-1.9454,-1.8996,-1.8316,-1.74,-1.7876,-1.806,-1.7957,-1.7175,-1.6075,-1.4644,0.0,0.0,0.0,0.0,0.0,0.0,0.0,0.0,0.0,0.0,0.0,-0.6935,-0.6785,-0.6659,-0.6609,-0.6851,-0.71,-0.737,-0.7323,-0.6277,-0.3893,-0.3154,-0.2719,-0.2556,-0.2339,-0.2004,-0.1553,-0.1498,-0.1309,-0.0879,-0.0479,-0.0186,-0.0114,-0.0077,0.0039,0.0273,0.0235,0.0274,0.0628,0.0992,0.1176,0.1299,0.1318,0.134,0.1469,0.2194,0.2864,0.2908,0.34,0.4158,0.5181,0.598,0.6823,0.7801,0.8248,0.8556,0.8982,0.9048,0.9526,1.0773,1.1163,1.1473,1.2125,1.2305,1.2409,1.2842,1.3528,1.4573,1.6009,1.6656,1.6908,-3.9529,-3.9328,-3.8683,-3.8692,-3.9115,-3.8215,-3.8506,-3.9456,0.0,0.0,0.0,-3.8284,-3.8181,-3.7489,-3.7267,-3.6722,-3.5899,-3.5054,-3.4524,-3.4166,-3.2474,-3.164,-3.1548,-3.0335,-2.9582,-2.9251,-2.8867,-2.8233,-2.7365,-2.6525,-2.5576,-2.45,-2.355,-2.2508,-2.1423,-2.0582,-1.9619,-1.8601,-1.8337,-1.8625,-1.9382,-1.8849,-1.7953,-1.6708,-1.6323,-1.5044,-1.2811,-1.2597,-1.1877,-1.0539,-1.0018,-0.9779,-0.9766,-0.9247,-0.8985,-0.8988,-0.8818,-0.8643,-0.8589,-0.8628,-0.876,-0.9069,-0.8962,-0.8064,-0.6061,-0.5037,-0.4467,-0.4467,-0.375,-0.3233,-0.3106,-0.2885,-0.2697,-0.2533,-0.2389,-0.2256,-0.2221,-0.2072,-0.1836,-0.1684,-0.1175,-0.0705,-0.0314,0.0319,0.0856,0.1042,0.1227,0.1388,0.1419,0.1475,0.1569,0.1659,0.224,0.3044,0.4113,0.5137,0.6248,0.7268,0.7893,0.8201,0.8248,0.8432,0.9013,0.9988,1.0618,1.1224,1.1883,1.2194,1.2519,1.3178,1.3426,1.3854,1.5073,1.6123,1.6691,-3.9933,-3.9373,-3.9284,-3.9203,-3.9101,-3.8924,-3.8872,-3.8925,-3.9723,-3.9361,-3.8224,-3.8991,-3.8954,-3.823,-3.8218,-3.8096,-3.7927,-3.6961,-3.6346,0.0,-3.4016,-3.3014,-3.2658,-3.1105,-3.0197,-2.9831,-2.9316,-2.8675,-2.7958,-2.733,-2.6543,-2.5626,-2.4564,-2.3126,-2.1498,-2.0711,-2.0182,-1.9824,-1.8916,-1.8518,-1.8637,-1.7688,-1.6896,-1.6339,-1.6216,-1.544,-1.4018,-1.4323,-1.3683,-1.2015,-1.2198,-1.2254,-1.2064,-1.1931,-1.2185,-1.2813,-1.285,-1.258,-1.1947,-1.2137,-1.2131,-1.1775,-1.1358,-1.0239,-0.8108,-0.7618,-0.739,-0.7355,-0.6463,-0.5989,-0.6038,-0.538,-0.4887,-0.4722,-0.4199,-0.3742,-0.3558,-0.2932,-0.2464,-0.2229,-0.2034,-0.18,-0.1372,-0.063,-0.004,0.0244,0.0743,0.1296,0.1302,0.1418,0.1389,0.1391,0.1525,0.2061,0.3089,0.4115,0.5225,0.6204,0.7401,0.8157,0.8157,0.8384,0.8815,0.9311,1.0004,1.065,1.1208,1.1855,1.2261,1.2556,1.2989,1.3571,1.3962,1.5046,1.6158,-4.0546,-3.9978,-3.9948,-3.9702,-3.9286,-3.9595,-3.9506,-3.9329,-4.0638,-4.0353,-3.909,-3.9728,-3.9654,-3.9007,-3.8991,-3.8662,-3.8116,-3.7652,-3.7208,-3.6632,-3.5094,-3.4072,-3.3448,-3.2101,-3.1033,-3.029,-2.9831,-2.9256,-2.8651,-2.8174,-2.748,-2.655,-2.4924,-2.3367,-2.2031,-2.1188,-2.0625,-2.0237,-1.9671,-1.9379,-1.9368,-1.8893,-1.8718,-1.8903,-1.8895,-1.8582,-1.7953,-1.7802,-1.7104,-1.5772,-1.5182,-1.4893,-1.484,-1.4176,-1.4056,-1.4627,-1.4366,-1.4055,-1.3716,-1.3784,-1.3663,-1.32,-1.2961,-1.2328,-1.1077,-0.9896,-0.92,-0.9062,-0.8284,-0.7532,-0.6908,-0.6468,-0.6061,-0.5512,-0.5126,-0.489,-0.4771,-0.446,-0.4066,-0.375,-0.3402,-0.3012,-0.2466,-0.1664,-0.1041,-0.077,0.0041,0.0629,0.0734,0.1138,0.1417,0.1386,0.1436,0.1839,0.2732,0.3757,0.4781,0.5761,0.6959,0.7764,0.8028,0.83,0.8712,0.9128,0.962,1.0208,1.0883,1.1372,1.1781,1.2298,1.2519,1.2952,1.3491,1.4724,1.5939,-4.1355,-4.0621,-4.0663,-4.019,-3.946,-3.9758,-3.9955,-4.01,-4.1111,-4.1054,-4.0385,-4.0607,-4.0351,-3.9765,-3.9586,-3.9037,-3.8303,-3.8081,-3.7727,-3.7133,-3.6044,-3.5154,-3.4433,-3.322,-3.2123,-3.1308,-3.075,-3.0132,-2.9507,-2.91,-2.8365,-2.7242,-2.5495,-2.4066,-2.2971,-2.2087,-2.1314,-2.069,-2.0421,-2.0346,-2.0336,-2.0369,-2.0655,-2.113,-2.1296,-2.1192,-2.0879,-2.0505,-1.9925,-1.9018,-1.7994,-1.7374,-1.7106,-1.6201,-1.5679,-1.5728,-1.5369,-1.5085,-1.4985,-1.4811,-1.4591,-1.4207,-1.4199,-1.3995,-1.3463,-1.2164,-1.1076,-1.0644,-0.9825,-0.8865,-0.7966,-0.7251,-0.6749,-0.606,-0.5789,-0.5598,-0.5598,-0.5601,-0.5482,-0.5124,-0.4693,-0.4146,-0.3534,-0.2705,-0.1928,-0.1369,-0.0575,0.0042,0.0171,0.0816,0.1349,0.1416,0.1385,0.1659,0.2509,0.3357,0.4247,0.5228,0.6387,0.719,0.7676,0.8208,0.8504,0.8811,0.9192,0.9636,1.0388,1.0925,1.1298,1.1855,1.2187,1.2592,1.339,1.433,1.5551,-4.2529,-4.1423,-4.1458,-4.068,-3.952,-3.9316,-3.997,-4.1057,-4.094,-4.1526,-4.2372,-4.1821,-4.111,-4.0397,-3.9813,-3.9476,-3.9253,-3.8654,-3.8148,-3.774,-3.6903,-3.6292,-3.5809,-3.4524,-3.3782,-3.3445,-3.2468,-3.1461,-3.0605,-3.0067,-2.9114,-2.7741,-2.6823,-2.5758,-2.4556,-2.3654,-2.2677,-2.1514,-2.1198,-2.1043,-2.1097,-2.1219,-2.1274,-2.1197,-2.1606,-2.1316,-2.0445,-2.0698,-2.0682,-1.9973,-1.9931,-1.9411,-1.8391,-1.8014,-1.7476,-1.6587,-1.6625,-1.6532,-1.6158,-1.5524,-1.518,-1.5081,-1.5081,-1.4907,-1.4543,-1.4292,-1.3725,-1.2647,-1.1276,-1.0423,-1.0142,-0.861,-0.7454,-0.6976,-0.6363,-0.5786,-0.5676,-0.5601,-0.5562,-0.5562,-0.5326,-0.5085,-0.4659,-0.3692,-0.2596,-0.1696,-0.0763,-0.0123,-0.0041,0.071,0.1319,0.139,0.1415,0.1431,0.1747,0.2374,0.3534,0.4423,0.5489,0.6561,0.7411,0.7925,0.8174,0.8197,0.8614,0.9138,0.9453,0.9981,1.1074,1.1521,1.1966,1.2519,1.3244,1.3716,1.4366,-4.3969,-4.2665,-4.2692,-4.2149,-4.1161,-4.0289,-4.0887,-4.2391,-4.1466,-4.1803,-4.2865,-4.2543,-4.1916,-4.1142,-4.0867,-4.0316,-3.9505,-3.9197,-3.8637,-3.7902,-3.7549,-3.6966,-3.6165,-3.5607,-3.4735,-3.3573,-3.3002,-3.2276,-3.1237,-3.0387,-2.949,-2.8533,-2.7647,-2.6717,-2.5858,-2.4562,-2.353,-2.2715,-2.2145,-2.2013,-2.2183,-2.1541,-2.1262,-2.1617,-2.2061,-2.234,-2.216,-2.2061,-2.1855,-2.1517,-2.0976,-2.0362,-1.9834,-1.9004,-1.8278,-1.7876,-1.7469,-1.7186,-1.7006,-1.6712,-1.6453,-1.6202,-1.6132,-1.596,-1.552,-1.5122,-1.4582,-1.3924,-1.2846,-1.1832,-1.074,-0.9821,-0.8831,-0.7658,-0.7057,-0.6637,-0.6064,-0.6028,-0.5948,-0.5831,-0.5898,-0.5789,-0.5218,-0.4421,-0.36,-0.2743,-0.1662,-0.0798,-0.0647,0.041,0.1207,0.1358,0.1333,0.1355,0.1513,0.2776,0.371,0.4421,0.5622,0.6918,0.7323,0.7768,0.7961,0.7711,0.8185,0.8832,0.9448,0.9836,1.0576,1.1254,1.1892,1.2409,1.2739,1.3171,1.3781,-4.5252,-4.4157,-4.3713,-4.3241,-4.2705,-4.1291,-4.1612,-4.2954,-4.2031,-4.1978,-4.2585,-4.2836,-4.2467,-4.1702,-4.1601,-4.1029,-4.0121,-3.97,-3.9098,-3.8335,-3.8056,-3.7431,-3.6708,-3.6569,-3.5748,-3.4433,-3.413,-3.3336,-3.1981,-3.0685,-2.9905,-2.9416,-2.8456,-2.7665,-2.7048,-2.5733,-2.4674,-2.3816,-2.3195,-2.2886,-2.2785,-2.1955,-2.1644,-2.2148,-2.2485,-2.282,-2.3022,-2.2592,-2.2399,-2.2474,-2.1668,-2.114,-2.0951,-1.9955,-1.9176,-1.8704,-1.8153,-1.7763,-1.7632,-1.7649,-1.7484,-1.7183,-1.7138,-1.6926,-1.6357,-1.561,-1.4962,-1.4455,-1.3702,-1.2528,-1.1339,-1.0717,-0.9781,-0.8336,-0.7829,-0.7253,-0.6795,-0.6528,-0.6257,-0.6148,-0.6294,-0.6198,-0.5432,-0.4719,-0.4148,-0.3645,-0.251,-0.1456,-0.112,0.0,0.0975,0.1247,0.1294,0.1317,0.1498,0.2305,0.3505,0.4463,0.5489,0.6337,0.719,0.7632,0.7833,0.7689,0.7824,0.8101,0.8702,0.9288,1.0083,1.136,1.1966,1.204,1.2372,1.2842,1.3208,-4.6308,-4.5394,-4.4121,-4.365,-4.3526,-4.2093,-4.1899,-4.2917,-4.2401,-4.1972,-4.1769,-4.2648,-4.2632,-4.1869,-4.1765,-4.1579,-4.1304,-4.017,-3.9541,-3.9305,-3.8428,-3.7902,-3.7828,-3.7506,-3.7103,-3.643,-3.5964,-3.4884,-3.3029,-3.1391,-3.0451,-3.0335,-2.9444,-2.8705,-2.8112,-2.7471,-2.641,-2.4856,-2.4292,-2.3627,-2.269,-2.2666,-2.2746,-2.2862,-2.2855,-2.2583,-2.1901,-2.1728,-2.1879,-2.2302,-2.223,-2.198,-2.1549,-2.1209,-2.0359,-1.8947,-1.8689,-1.8437,-1.8046,-1.7934,-1.7929,-1.79,-1.7808,-1.7666,-1.7017,-1.6017,-1.5127,-1.4432,-1.3588,-1.2732,-1.2086,-1.1103,-1.0269,-0.9625,-0.8356,-0.771,-0.7668,-0.6795,-0.6451,-0.6465,-0.6448,-0.6122,-0.5405,-0.476,-0.4277,-0.3763,-0.2979,-0.2081,-0.1298,-0.0472,0.0477,0.1092,0.1309,0.1324,0.1377,0.2009,0.277,0.3671,0.4579,0.5179,0.6381,0.7342,0.7509,0.7638,0.7729,0.7846,0.7995,0.8602,0.9613,1.0545,1.1031,1.1329,1.1848,1.2187,1.2556,-4.5949,-4.5697,-4.5138,-4.5195,-4.5507,-4.4109,-4.3949,-4.4528,-4.3605,-4.3057,-4.2854,-4.3143,-4.3113,-4.2803,-4.2561,-4.2126,-4.1579,-4.1045,-4.0607,-4.0108,-3.9324,-3.8795,-3.8558,-3.8009,-3.7356,-3.6753,-3.6368,-3.5149,-3.3339,-3.2491,-3.1616,-3.0554,-2.9965,-2.9361,-2.8728,-2.7926,-2.7055,-2.6303,-2.5358,-2.4576,-2.4037,-2.3788,-2.3573,-2.3474,-2.3401,-2.3011,-2.224,-2.2521,-2.2579,-2.2324,-2.2575,-2.2676,-2.2433,-2.1902,-2.0837,-1.9307,-1.9072,-1.8752,-1.8101,-1.7809,-1.7783,-1.7957,-1.78,-1.7593,-1.729,-1.658,-1.5787,-1.5034,-1.3878,-1.302,-1.2507,-1.189,-1.1105,-0.9976,-0.9041,-0.8203,-0.7633,-0.6949,-0.6451,-0.638,-0.6152,-0.5771,-0.5465,-0.4883,-0.427,-0.3761,-0.2626,-0.1763,-0.1175,-0.0118,0.0867,0.1191,0.1314,0.1328,0.1325,0.1968,0.2701,0.3421,0.4192,0.507,0.6154,0.7139,0.7472,0.7476,0.7598,0.7987,0.8188,0.8686,0.9554,0.9863,1.0314,1.0694,1.1366,1.1669,1.204,-4.5841,-4.602,-4.5805,-4.6269,-4.695,-4.5652,-4.5321,-4.565,-4.4528,-4.3717,-4.3366,-4.338,-4.3295,-4.3113,-4.3054,-4.2686,-4.2014,-4.1756,-4.1336,-4.0804,-4.0124,-3.9599,-3.9149,-3.8653,-3.7902,-3.7057,-3.6446,-3.5336,-3.3879,-3.3378,-3.2354,-3.0895,-3.0285,-2.9707,-2.9063,-2.8275,-2.7655,-2.7117,-2.6295,-2.5625,-2.5048,-2.4626,-2.4214,-2.3936,-2.381,-2.3408,-2.2661,-2.2914,-2.2748,-2.2224,-2.239,-2.2542,-2.2506,-2.2056,-2.1097,-1.9812,-1.9391,-1.8907,-1.807,-1.7588,-1.7406,-1.7598,-1.7449,-1.7295,-1.7256,-1.6566,-1.5893,-1.5194,-1.4021,-1.2921,-1.256,-1.2177,-1.1567,-1.0377,-0.9458,-0.8694,-0.8012,-0.7099,-0.6553,-0.6318,-0.5941,-0.5626,-0.5419,-0.4831,-0.4277,-0.3841,-0.2546,-0.1684,-0.1175,-0.0118,0.1021,0.1218,0.1299,0.1307,0.1332,0.1699,0.2334,0.2999,0.3455,0.4502,0.5554,0.6539,0.7285,0.7289,0.7601,0.8078,0.8471,0.8913,0.9194,0.9415,0.9593,0.9863,1.0507,1.1149,1.1595,-4.6111,-4.6569,-4.602,-4.6585,-4.7588,-4.6416,-4.5786,-4.573,-4.5032,-4.4138,-4.3315,-4.3442,-4.3319,-4.2728,-4.3162,-4.3174,-4.2735,-4.2077,-4.1693,-4.1531,-4.0867,-4.0189,-3.9641,-3.9431,-3.8756,-3.774,-3.6738,-3.5753,-3.4806,-3.3775,-3.2668,-3.1532,-3.0554,-2.9817,-2.914,-2.8707,-2.8101,-2.7416,-2.7067,-2.6405,-2.5192,-2.4992,-2.4687,-2.4207,-2.4096,-2.3629,-2.2681,-2.2638,-2.2377,-2.1744,-2.1682,-2.1625,-2.1712,-2.1642,-2.1203,-2.0298,-1.9578,-1.8839,-1.8109,-1.736,-1.6927,-1.7106,-1.6944,-1.6918,-1.6754,-1.603,-1.5399,-1.5073,-1.3879,-1.2743,-1.2398,-1.1929,-1.1457,-1.0978,-0.9755,-0.8965,-0.8546,-0.7326,-0.6347,-0.6311,-0.5901,-0.5541,-0.5243,-0.4723,-0.4231,-0.3724,-0.2979,-0.2078,-0.1371,-0.0431,0.0353,0.106,0.1297,0.1302,0.1311,0.1404,0.1966,0.2508,0.2831,0.3491,0.4476,0.5504,0.6498,0.6773,0.7695,0.8139,0.8017,0.8372,0.8347,0.8574,0.8751,0.9112,0.983,1.055,1.126,-4.5841,-4.6092,-4.6359,-4.705,-4.7902,-4.7471,-4.7045,-4.6552,-4.6272,-4.5683,-4.4865,-4.4488,-4.4188,-4.3904,-4.3619,-4.3358,-4.3204,-4.2717,-4.2434,-4.2164,-4.1549,-4.1158,-4.0802,-3.9959,-3.8927,-3.7894,-3.6951,-3.6055,-3.5192,-3.4272,-3.3225,-3.2137,-3.1104,-3.0328,-2.9674,-2.8998,-2.8303,-2.7851,-2.7405,-2.6834,-2.6136,-2.5398,-2.4913,-2.4717,-2.4334,-2.3748,-2.3002,-2.2827,-2.2418,-2.1777,-2.1626,-2.1603,-2.1592,-2.1603,-2.122,-2.0364,-1.9627,-1.9119,-1.8653,-1.7394,-1.6859,-1.7305,-1.7005,-1.6579,-1.6516,-1.6184,-1.578,-1.5399,-1.4421,-1.3587,-1.2958,-1.226,-1.1615,-1.1117,-1.0288,-0.9382,-0.8699,-0.7169,-0.6229,-0.5989,-0.5536,-0.5149,-0.4857,-0.4472,-0.4116,-0.3804,-0.3057,-0.2195,-0.141,-0.0587,0.0313,0.11,0.1218,0.1297,0.1304,0.1308,0.1602,0.2006,0.2308,0.2481,0.3445,0.4507,0.5484,0.6643,0.7537,0.7949,0.7837,0.7822,0.7887,0.7829,0.8021,0.858,0.9268,1.0019,1.0763,-4.5184,-4.5733,-4.6182,-4.7015,-4.7968,-4.8001,-4.7752,-4.7289,-4.7007,-4.6626,-4.6113,-4.5417,-4.5102,-4.4953,-4.4249,-4.3861,-4.3767,-4.3246,-4.2899,-4.2679,-4.2213,-4.1857,-4.1515,-4.0461,-3.9331,-3.8339,-3.7417,-3.6458,-3.54,-3.4514,-3.3496,-3.2432,-3.1604,-3.0812,-3.0033,-2.9326,-2.8714,-2.8183,-2.7771,-2.7317,-2.6743,-2.6044,-2.5528,-2.528,-2.4726,-2.4261,-2.379,-2.3257,-2.248,-2.1661,-2.1208,-2.1046,-2.1057,-2.1001,-2.0807,-2.026,-1.9579,-1.9068,-1.8846,-1.7474,-1.6749,-1.7225,-1.6594,-1.6076,-1.5986,-1.5986,-1.5751,-1.5369,-1.4641,-1.3941,-1.3164,-1.2365,-1.1626,-1.0919,-1.0319,-0.9566,-0.8508,-0.7169,-0.6328,-0.6103,-0.5509,-0.4965,-0.4582,-0.435,-0.4038,-0.3726,-0.3059,-0.2195,-0.141,-0.0587,0.0274,0.0982,0.1258,0.1297,0.1297,0.1298,0.1298,0.1564,0.1805,0.1913,0.2394,0.3583,0.4658,0.6271,0.7397,0.7743,0.7661,0.7761,0.7809,0.7637,0.7522,0.8127,0.8851,0.9599,1.0346,-4.422,-4.5536,-4.5624,-4.6445,-4.7688,-4.7754,-4.7638,-4.7638,-4.7061,-4.6797,-4.6664,-4.6004,-4.5785,-4.5682,-4.497,-4.4497,-4.4342,-4.3469,-4.3021,-4.2852,-4.2598,-4.2229,-4.1547,-4.0899,-4.007,-3.9118,-3.8074,-3.6904,-3.5662,-3.4539,-3.3539,-3.2553,-3.1951,-3.1253,-3.0331,-2.9763,-2.9104,-2.8489,-2.8177,-2.7694,-2.7005,-2.6718,-2.6386,-2.585,-2.5249,-2.4896,-2.4667,-2.3682,-2.2457,-2.123,-2.065,-2.0391,-2.0205,-2.0118,-2.0194,-2.0074,-1.9417,-1.907,-1.8637,-1.7699,-1.691,-1.6816,-1.6219,-1.5505,-1.5547,-1.5457,-1.5333,-1.5177,-1.4597,-1.3905,-1.3127,-1.2328,-1.1521,-1.0588,-0.9981,-0.9221,-0.8309,-0.7399,-0.671,-0.6363,-0.5625,-0.481,-0.4423,-0.4194,-0.3999,-0.3763,-0.3137,-0.2469,-0.1645,-0.0823,0.0196,0.0706,0.1061,0.1297,0.1297,0.1297,0.1297,0.1385,0.1533,0.1591,0.1777,0.2888,0.3937,0.557,0.6937,0.7302,0.7567,0.76,0.7644,0.7588,0.768,0.7944,0.8432,0.9183,0.9976,-4.3888,-4.4774,-4.4812,-4.539,-4.625,-4.6304,-4.6304,-4.6288,-4.6163,-4.6435,-4.6594,-4.6075,-4.6142,-4.6429,-4.5284,-4.4688,-4.4434,-4.3596,-4.3066,-4.3021,-4.2711,-4.2245,-4.1725,-4.1417,-4.0887,-3.9969,-3.8357,-3.7068,-3.6373,-3.468,-3.3561,-3.3073,-3.2215,-3.1668,-3.1233,-3.0132,-2.9361,-2.8919,-2.8365,-2.796,-2.7558,-2.6967,-2.6641,-2.6399,-2.5555,-2.507,-2.4892,-2.3764,-2.247,-2.1219,-2.0976,-2.0614,-2.0205,-2.0151,-2.0151,-1.9987,-1.9374,-1.9131,-1.9198,-1.8148,-1.732,-1.7139,-1.6455,-1.586,-1.5311,-1.524,-1.5133,-1.5007,-1.4756,-1.4353,-1.3608,-1.2776,-1.1744,-1.0475,-0.9798,-0.9334,-0.8803,-0.7625,-0.6598,-0.6244,-0.5315,-0.4618,-0.427,-0.4036,-0.3882,-0.3763,-0.3528,-0.3059,-0.2156,-0.1332,-0.0431,0.0274,0.0706,0.11,0.1297,0.1297,0.1297,0.1297,0.1391,0.1407,0.1797,0.2545,0.3502,0.4627,0.6102,0.6732,0.7067,0.7249,0.7313,0.7537,0.7636,0.7833,0.8187,0.8775,0.9609,-4.3771,-4.451,-4.451,-4.4962,-4.566,-4.5697,-4.5877,-4.6127,-4.6182,-4.6585,-4.7088,-4.6862,-4.6914,-4.719,-4.6162,-4.5464,-4.5055,-4.4163,-4.3547,-4.3174,-4.2883,-4.2469,-4.2114,-4.2002,-4.1646,-4.0827,-3.8968,-3.7742,-3.678,-3.497,-3.3902,-3.3346,-3.2583,-3.2068,-3.1688,-3.0856,-2.991,-2.9356,-2.8785,-2.8379,-2.7908,-2.7439,-2.7131,-2.6915,-2.617,-2.5646,-2.5253,-2.4408,-2.329,-2.2204,-2.1678,-2.1219,-2.0603,-2.0506,-2.0399,-2.0118,-1.9539,-1.944,-1.9462,-1.8553,-1.791,-1.7594,-1.6872,-1.607,-1.5551,-1.524,-1.4892,-1.4792,-1.4792,-1.4425,-1.3688,-1.2666,-1.1632,-1.0738,-0.9986,-0.9571,-0.9533,-0.8275,-0.7246,-0.6514,-0.5586,-0.4579,-0.4157,-0.3921,-0.3841,-0.3802,-0.3802,-0.3255,-0.2549,-0.1803,-0.1019,-0.0235,0.0549,0.106,0.1298,0.1299,0.1316,0.1316,0.1329,0.1296,0.1717,0.2286,0.2968,0.3952,0.5233,0.6195,0.6559,0.7013,0.7517,0.7686,0.7645,0.7715,0.8061,0.8899,0.9686,-4.3708,-4.4373,-4.4373,-4.4774,-4.5332,-4.5426,-4.5681,-4.6394,-4.6202,-4.6777,-4.7489,-4.7704,-4.7556,-4.7951,-4.699,-4.6427,-4.5732,-4.4752,-4.4014,-4.3448,-4.3007,-4.2725,-4.2568,-4.2488,-4.2197,-4.1491,-4.0086,-3.8716,-3.7344,-3.5651,-3.4375,-3.3681,-3.3017,-3.2449,-3.1971,-3.1457,-3.0711,-2.9896,-2.9322,-2.8832,-2.8292,-2.7868,-2.7584,-2.7314,-2.6863,-2.6229,-2.5785,-2.5227,-2.4529,-2.3435,-2.2647,-2.1865,-2.1219,-2.1071,-2.072,-2.0205,-1.9868,-1.9704,-1.9539,-1.8931,-1.8418,-1.8046,-1.6975,-1.607,-1.586,-1.5311,-1.4848,-1.4641,-1.4605,-1.4274,-1.3499,-1.2181,-1.1403,-1.0919,-1.0325,-0.9954,-0.9695,-0.8975,-0.8093,-0.7314,-0.6128,-0.5049,-0.4389,-0.396,-0.3802,-0.3802,-0.3802,-0.3528,-0.294,-0.2273,-0.141,-0.0509,0.0274,0.106,0.122,0.1301,0.1325,0.1301,0.132,0.1372,0.1622,0.21,0.2564,0.336,0.4371,0.5377,0.6163,0.672,0.7425,0.7833,0.778,0.7824,0.7984,0.9276,1.0238,-4.3394,-4.3551,-4.3536,-4.3669,-4.381,-4.381,-4.4282,-4.4983,-4.4396,-4.5395,-4.6604,-4.648,-4.6963,-4.7951,-4.7272,-4.6493,-4.5814,-4.4931,-4.4033,-4.3225,-4.2976,-4.2899,-4.2806,-4.2665,-4.2505,-4.2008,-4.0944,-3.9628,-3.8251,-3.6571,-3.5063,-3.4059,-3.3255,-3.2621,-3.2455,-3.1752,-3.1219,-3.0723,-2.9841,-2.9134,-2.8699,-2.8133,-2.7723,-2.7471,-2.7033,-2.6438,-2.5955,-2.5707,-2.547,-2.4924,-2.3775,-2.2512,-2.1541,-2.1178,-2.0752,-2.015,-1.9769,-1.9572,-1.9374,-1.9108,-1.8687,-1.8172,-1.7731,-1.707,-1.593,-1.5692,-1.5196,-1.4812,-1.4569,-1.4274,-1.3608,-1.2659,-1.1855,-1.1223,-1.0481,-0.9846,-0.9582,-0.8932,-0.8322,-0.7663,-0.6433,-0.5165,-0.4813,-0.4192,-0.3958,-0.3841,-0.3763,-0.3724,-0.3253,-0.2666,-0.1769,-0.0826,-0.0079,0.0714,0.1244,0.1332,0.1315,0.1335,0.131,0.1367,0.1581,0.1901,0.2364,0.2844,0.3424,0.4437,0.5644,0.6409,0.7059,0.7486,0.7959,0.7963,0.8326,0.9611,1.0466,-4.3423,-4.329,-4.3305,-4.3305,-4.3305,-4.3344,-4.3786,-4.432,-4.4082,-4.4968,-4.6429,-4.6359,-4.6913,-4.7935,-4.757,-4.7023,-4.6179,-4.5107,-4.4125,-4.3382,-4.3068,-4.2961,-4.2868,-4.2696,-4.2602,-4.241,-4.1562,-4.0388,-3.8997,-3.7562,-3.6084,-3.4806,-3.3644,-3.3157,-3.2925,-3.2173,-3.1594,-3.1151,-3.0315,-2.9571,-2.904,-2.8352,-2.7802,-2.7543,-2.7236,-2.6896,-2.6654,-2.636,-2.6255,-2.5899,-2.4921,-2.3666,-2.2387,-2.1662,-2.0976,-2.0345,-1.9704,-1.944,-1.9274,-1.9175,-1.8931,-1.8543,-1.824,-1.7413,-1.6515,-1.6035,-1.5409,-1.4848,-1.4569,-1.4418,-1.4006,-1.3222,-1.2445,-1.1706,-1.0781,-1.0067,-0.962,-0.9127,-0.8556,-0.7974,-0.7015,-0.5973,-0.5237,-0.4616,-0.4112,-0.3997,-0.3841,-0.3724,-0.3528,-0.2906,-0.2061,-0.1232,-0.0438,0.0321,0.1062,0.1327,0.1351,0.1369,0.1343,0.1399,0.1494,0.1813,0.2117,0.2611,0.3107,0.4153,0.5284,0.6013,0.6906,0.77,0.8146,0.8142,0.8597,0.9754,1.0345,-4.3557,-4.3305,-4.3305,-4.3305,-4.3305,-4.3305,-4.3732,-4.4434,-4.4373,-4.5116,-4.6534,-4.6708,-4.6997,-4.7853,-4.7984,-4.7554,-4.6643,-4.54,-4.4249,-4.3748,-4.33,-4.3115,-4.2945,-4.2759,-4.2634,-4.2522,-4.2037,-4.1002,-3.9612,-3.8404,-3.6992,-3.5664,-3.4177,-3.3596,-3.3437,-3.269,-3.2055,-3.1697,-3.0963,-3.0119,-2.9396,-2.8685,-2.812,-2.7643,-2.7497,-2.7398,-2.7242,-2.7027,-2.6837,-2.6778,-2.6064,-2.5109,-2.4054,-2.2696,-2.1461,-2.078,-1.9998,-1.9539,-1.9274,-1.9175,-1.9065,-1.9075,-1.8519,-1.7833,-1.707,-1.635,-1.5665,-1.5062,-1.4677,-1.4533,-1.4489,-1.3586,-1.29,-1.2261,-1.126,-1.0368,-0.9809,-0.9473,-0.8861,-0.8208,-0.7518,-0.6668,-0.5857,-0.5157,-0.4616,-0.4112,-0.3958,-0.3767,-0.3571,-0.3276,-0.2513,-0.1775,-0.1012,0.0206,0.1005,0.1308,0.1333,0.1395,0.137,0.1465,0.152,0.1853,0.2169,0.2422,0.3056,0.4043,0.4962,0.582,0.6767,0.7839,0.8333,0.8333,0.9007,0.9893,1.0341,-4.3542,-4.3305,-4.3305,-4.3305,-4.3305,-4.3305,-4.3732,-4.4297,-4.381,-4.4781,-4.6483,-4.6198,-4.6671,-4.7638,-4.8001,-4.7587,-4.666,-4.55,-4.4655,-4.4263,-4.3715,-4.3251,-4.3021,-4.2899,-4.2759,-4.2618,-4.2344,-4.1495,-4.0131,-3.8999,-3.7792,-3.6107,-3.4447,-3.3885,-3.3817,-3.308,-3.2484,-3.2372,-3.1644,-3.0709,-3.0057,-2.9275,-2.8465,-2.7802,-2.7556,-2.7503,-2.7503,-2.7411,-2.7359,-2.7274,-2.6563,-2.6024,-2.5394,-2.4038,-2.2647,-2.1401,-2.0544,-1.9899,-1.9374,-1.9142,-1.9098,-1.9042,-1.8764,-1.8293,-1.7604,-1.6872,-1.6079,-1.5355,-1.4748,-1.4433,-1.4425,-1.363,-1.3046,-1.2489,-1.1706,-1.0631,-1.0105,-0.9657,-0.9208,-0.8632,-0.7978,-0.7326,-0.6511,-0.5699,-0.5004,-0.4423,-0.4036,-0.3897,-0.3714,-0.3552,-0.3234,-0.2451,-0.1691,-0.0295,0.1075,0.1208,0.1264,0.1369,0.1427,0.1517,0.1657,0.1971,0.2226,0.2429,0.2898,0.3747,0.4667,0.5608,0.681,0.8009,0.8305,0.8551,0.9122,0.9804,1.0651,-4.3621,-4.3305,-4.3305,-4.3305,-4.3305,-4.3305,-4.3512,-4.3771,-4.3512,-4.4167,-4.5153,-4.5316,-4.5933,-4.705,-4.7371,-4.7144,-4.6678,-4.5831,-4.5086,-4.4624,-4.3842,-4.3281,-4.3096,-4.2976,-4.2806,-4.2634,-4.2538,-4.2006,-4.0805,-3.9723,-3.856,-3.728,-3.5466,-3.4562,-3.4346,-3.352,-3.2974,-3.2821,-3.2067,-3.1396,-3.0834,-2.9869,-2.8719,-2.7894,-2.757,-2.7503,-2.7503,-2.7503,-2.7456,-2.7317,-2.6889,-2.6593,-2.61,-2.5264,-2.3843,-2.2334,-2.126,-2.0369,-1.968,-1.9363,-1.9098,-1.9075,-1.8929,-1.8462,-1.7852,-1.7192,-1.6543,-1.5541,-1.4713,-1.4245,-1.4209,-1.3688,-1.3309,-1.2826,-1.2077,-1.1223,-1.0406,-0.9884,-0.943,-0.9051,-0.8475,-0.7821,-0.7092,-0.6279,-0.5431,-0.4774,-0.4192,-0.3986,-0.3899,-0.3764,-0.3619,-0.2814,-0.1998,-0.0948,0.035,0.0746,0.0968,0.1158,0.1436,0.157,0.1749,0.2018,0.2198,0.2413,0.2982,0.3542,0.474,0.5805,0.6987,0.8032,0.8372,0.8671,0.9074,0.9705,1.0631,-4.3738,-4.3305,-4.3305,-4.3305,-4.3305,-4.3305,-4.329,-4.3305,-4.3305,-4.3771,-4.4434,-4.4624,-4.5374,-4.6534,-4.7019,-4.7094,-4.7023,-4.6245,-4.5467,-4.4887,-4.3952,-4.3342,-4.319,-4.3007,-4.2852,-4.2744,-4.2602,-4.223,-4.1346,-4.0163,-3.9248,-3.7966,-3.6376,-3.5335,-3.4927,-3.4158,-3.3506,-3.3052,-3.2486,-3.2111,-3.1385,-3.0201,-2.8866,-2.7839,-2.7693,-2.7646,-2.7516,-2.7503,-2.7436,-2.7315,-2.7087,-2.6884,-2.6637,-2.6127,-2.5079,-2.362,-2.222,-2.1263,-2.0455,-2.0002,-1.9693,-1.9465,-1.9124,-1.866,-1.8266,-1.783,-1.7051,-1.5698,-1.498,-1.4471,-1.4362,-1.3976,-1.3653,-1.3219,-1.2654,-1.1966,-1.1037,-1.0331,-0.9728,-0.9306,-0.8889,-0.828,-0.7514,-0.6896,-0.6083,-0.519,-0.4609,-0.4108,-0.3991,-0.4002,-0.3747,-0.294,-0.2197,-0.146,-0.0579,0.0089,0.0401,0.0715,0.1166,0.1525,0.175,0.2019,0.22,0.2424,0.2736,0.3395,0.4696,0.5899,0.6877,0.772,0.83,0.87,0.8915,0.9816,1.0945,-4.3738,-4.3305,-4.3305,-4.3305,-4.3305,-4.3305,-4.3305,-4.3305,-4.3305,-4.3732,-4.4488,-4.4548,-4.5264,-4.6569,-4.7471,-4.7754,-4.7438,-4.6543,-4.5798,-4.5367,-4.4263,-4.3545,-4.3342,-4.3143,-4.2976,-4.2821,-4.2681,-4.2229,-4.1539,-4.0369,-3.9359,-3.8371,-3.689,-3.5623,-3.592,-3.4806,-3.4312,-3.4177,-3.3593,-3.2654,-3.1457,-3.0456,-2.9541,-2.8773,-2.8371,-2.8111,-2.7785,-2.7673,-2.7514,-2.7354,-2.7138,-2.6909,-2.6714,-2.6552,-2.6059,-2.5195,-2.4129,-2.2883,-2.1732,-2.1038,-2.0554,-2.0079,-1.9667,-1.9491,-1.905,-1.848,-1.7633,-1.6342,-1.584,-1.5338,-1.4737,-1.4245,-1.4005,-1.3634,-1.314,-1.2614,-1.1887,-1.0694,-1.0056,-0.9377,-0.8922,-0.8475,-0.7906,-0.7322,-0.6703,-0.5817,-0.5044,-0.4508,-0.4145,-0.4168,-0.4028,-0.3338,-0.2975,-0.2278,-0.1613,-0.0941,-0.0224,0.0179,0.0762,0.1346,0.184,0.2109,0.2289,0.2515,0.2739,0.3365,0.4699,0.5808,0.6697,0.7588,0.8392,0.8616,0.8656,0.982,1.1235,-4.3972,-4.3699,-4.3596,-4.3518,-4.3518,-4.3369,-4.3305,-4.3305,-4.3305,-4.3732,-4.4297,-4.3989,-4.4699,-4.6147,-4.6981,-4.7555,-4.7654,-4.6826,-4.6162,-4.5713,-4.4721,-4.3919,-4.3438,-4.3204,-4.3037,-4.2883,-4.268,-4.2522,-4.1815,-4.1067,-4.0164,-3.944,-3.7855,-3.6728,-3.6607,-3.5335,-3.4639,-3.4206,-3.3616,-3.2681,-3.1588,-3.0905,-3.0234,-2.9123,-2.8965,-2.8747,-2.849,-2.8137,-2.7931,-2.7682,-2.731,-2.6909,-2.6726,-2.6577,-2.6336,-2.6138,-2.5685,-2.4541,-2.3059,-2.2091,-2.1382,-2.0761,-2.0221,-1.9667,-1.937,-1.8803,-1.8239,-1.7477,-1.6375,-1.5712,-1.5273,-1.4673,-1.4405,-1.4088,-1.3651,-1.3198,-1.2505,-1.1316,-1.0346,-0.9636,-0.8932,-0.8507,-0.8077,-0.7506,-0.6947,-0.6369,-0.5577,-0.4974,-0.459,-0.4422,-0.4222,-0.3916,-0.3621,-0.3357,-0.2688,-0.206,-0.103,-0.0493,0.0179,0.0852,0.1795,0.22,0.2379,0.256,0.283,0.3631,0.4786,0.563,0.6432,0.7499,0.8572,0.8616,0.8744,1.0081,1.1451,-4.4281,-4.4143,-4.3886,-4.3729,-4.3596,-4.3463,-4.3384,-4.3305,-4.3305,-4.3732,-4.4259,-4.4143,-4.4662,-4.5551,-4.634,-4.7066,-4.7918,-4.7061,-4.6398,-4.5686,-4.5019,-4.4214,-4.363,-4.3281,-4.3129,-4.2961,-4.2806,-4.2617,-4.2362,-4.185,-4.1229,-4.0658,-3.8654,-3.7715,-3.6894,-3.5984,-3.5154,-3.4375,-3.3701,-3.2779,-3.1869,-3.1561,-3.077,-3.0024,-2.9555,-2.9454,-2.9271,-2.893,-2.8565,-2.7993,-2.7601,-2.7173,-2.6777,-2.6589,-2.6474,-2.6399,-2.6221,-2.58,-2.4514,-2.3444,-2.2356,-2.1543,-2.0736,-2.0081,-1.9725,-1.9079,-1.8601,-1.8457,-1.7274,-1.6466,-1.5818,-1.5153,-1.47,-1.4479,-1.4258,-1.3757,-1.3202,-1.2164,-1.1117,-1.0237,-0.9486,-0.8522,-0.8039,-0.7552,-0.7119,-0.6737,-0.6112,-0.5449,-0.5034,-0.4735,-0.4408,-0.4121,-0.403,-0.3851,-0.3539,-0.2822,-0.1925,-0.1165,-0.0538,0.0359,0.13,0.2064,0.2424,0.2649,0.2875,0.3544,0.4431,0.5275,0.6163,0.7231,0.8124,0.848,0.9047,1.0381,1.1757,-4.4572,-4.4549,-4.4143,-4.3754,-4.3384,-4.3596,-4.3503,-4.3305,-4.3305,-4.3747,-4.4412,-4.511,-4.5405,-4.5624,-4.5805,-4.6531,-4.7853,-4.6419,-4.5979,-4.5611,-4.5052,-4.4489,-4.3935,-4.3567,-4.33,-4.3052,-4.2883,-4.2775,-4.2618,-4.2458,-4.1786,-4.0926,-3.9424,-3.8404,-3.7482,-3.6543,-3.5524,-3.4658,-3.3805,-3.3157,-3.2544,-3.214,-3.1492,-3.072,-3.0201,-2.9849,-2.9353,-2.9261,-2.8995,-2.8355,-2.8035,-2.7502,-2.7049,-2.6788,-2.6694,-2.6499,-2.6487,-2.6221,-2.5645,-2.4857,-2.3936,-2.2763,-2.16,-2.0723,-2.033,-2.0429,-2.0042,-1.9277,-1.821,-1.7439,-1.6597,-1.5703,-1.5207,-1.4816,-1.4648,-1.4401,-1.3867,-1.3274,-1.2209,-1.1093,-0.9995,-0.8952,-0.8352,-0.7954,-0.7619,-0.7271,-0.6672,-0.5995,-0.5323,-0.4952,-0.4599,-0.4344,-0.4297,-0.4164,-0.4119,-0.3491,-0.2731,-0.2015,-0.1299,-0.0313,0.0761,0.1479,0.2063,0.2694,0.2964,0.3499,0.4121,0.5053,0.5985,0.6966,0.7764,0.8516,0.9345,1.0506,1.2015,-4.4549,-4.4396,-4.4396,-4.4127,-4.3754,-4.3832,-4.366,-4.3384,-4.3463,-4.3566,-4.3888,-4.5036,-4.5405,-4.511,-4.4999,-4.5551,-4.6499,-4.6585,-4.6088,-4.598,-4.5762,-4.5303,-4.4693,-4.4056,-4.3758,-4.3227,-4.2992,-4.279,-4.2634,-4.2602,-4.2474,-4.161,-4.0466,-3.9487,-3.8497,-3.679,-3.5534,-3.4857,-3.3977,-3.3262,-3.3115,-3.2426,-3.1838,-3.1313,-3.0869,-3.0605,-3.032,-2.9967,-2.9634,-2.9275,-2.8821,-2.818,-2.7496,-2.7246,-2.694,-2.6609,-2.6524,-2.6487,-2.6349,-2.5629,-2.4468,-2.2984,-2.201,-2.1357,-2.0848,-2.0683,-2.0489,-1.9913,-1.9253,-1.8318,-1.7543,-1.662,-1.5932,-1.5375,-1.4992,-1.4794,-1.445,-1.3898,-1.3132,-1.1915,-1.0545,-0.9271,-0.8837,-0.8437,-0.8131,-0.7796,-0.7157,-0.6543,-0.5921,-0.5191,-0.4835,-0.4523,-0.4478,-0.4297,-0.4253,-0.3896,-0.3494,-0.282,-0.2104,-0.0939,0.0134,0.0761,0.1388,0.2153,0.292,0.3187,0.3855,0.4875,0.5808,0.6697,0.7848,0.8995,0.9859,1.0717,1.2143,-4.4496,-4.4396,-4.4534,-4.4396,-4.4026,-4.4003,-4.3778,-4.3463,-4.3503,-4.366,-4.3747,-4.4834,-4.5221,-4.4812,-4.4297,-4.4865,-4.5697,-4.6122,-4.6035,-4.6105,-4.6257,-4.6033,-4.532,-4.4663,-4.4193,-4.3518,-4.307,-4.2883,-4.2696,-4.2618,-4.2554,-4.2329,-4.1866,-4.0769,-3.9169,-3.6945,-3.5362,-3.4935,-3.4153,-3.3597,-3.3541,-3.2783,-3.2128,-3.1736,-3.1355,-3.1057,-3.0865,-3.0529,-3.0231,-2.992,-2.9486,-2.8879,-2.8289,-2.7768,-2.7313,-2.6908,-2.6587,-2.6512,-2.6302,-2.5664,-2.4647,-2.3305,-2.2451,-2.1728,-2.1118,-2.0731,-2.0527,-2.0489,-1.9775,-1.9054,-1.8278,-1.735,-1.6528,-1.5912,-1.5286,-1.5002,-1.4863,-1.4377,-1.3635,-1.2719,-1.1288,-0.986,-0.9197,-0.8788,-0.8432,-0.8064,-0.7534,-0.7055,-0.6675,-0.5899,-0.5104,-0.4837,-0.4656,-0.4478,-0.4297,-0.403,-0.3851,-0.3537,-0.2685,-0.1521,-0.0581,0.0179,0.1208,0.2378,0.292,0.292,0.3588,0.4654,0.5586,0.6428,0.7713,0.9043,1.0289,1.1192,1.2186,-4.4587,-4.4572,-4.4572,-4.4358,-4.4026,-4.4026,-4.3871,-4.3714,-4.3645,-4.3864,-4.4358,-4.4737,-4.5095,-4.5184,-4.4259,-4.4434,-4.5332,-4.5701,-4.5757,-4.5932,-4.6651,-4.6397,-4.5798,-4.5187,-4.4648,-4.4278,-4.36,-4.2976,-4.2852,-4.2665,-4.2602,-4.2571,-4.2251,-4.1661,-4.0371,-3.7962,-3.6398,-3.5664,-3.4698,-3.4225,-3.3899,-3.3171,-3.2453,-3.2019,-3.1666,-3.1347,-3.1009,-3.0895,-3.062,-3.027,-3.0056,-2.9471,-2.8777,-2.8173,-2.768,-2.7316,-2.6813,-2.6575,-2.6418,-2.5734,-2.4886,-2.3963,-2.3231,-2.2322,-2.13,-2.0809,-2.0644,-2.0634,-1.9932,-1.946,-1.8687,-1.7876,-1.7107,-1.6363,-1.5718,-1.5243,-1.5047,-1.4832,-1.4063,-1.3457,-1.2005,-1.0601,-0.9785,-0.9133,-0.8752,-0.8309,-0.7878,-0.7533,-0.7272,-0.6517,-0.5591,-0.528,-0.5102,-0.4612,-0.4431,-0.4342,-0.4164,-0.3894,-0.3357,-0.2281,-0.0895,0.0313,0.1389,0.2558,0.292,0.292,0.3588,0.4433,0.5497,0.6561,0.772,0.8999,1.0376,1.1537,1.24,-4.4496,-4.4435,-4.4549,-4.4435,-4.4205,-4.4205,-4.4065,-4.405,-4.4655,-4.4887,-4.4759,-4.5483,-4.5789,-4.5442,-4.4737,-4.4396,-4.4887,-4.5588,-4.5663,-4.5847,-4.6962,-4.701,-4.6493,-4.5748,-4.5107,-4.4377,-4.3631,-4.3037,-4.2916,-4.2696,-4.2634,-4.2571,-4.2365,-4.1646,-4.0386,-3.8671,-3.7412,-3.6732,-3.5629,-3.4703,-3.4481,-3.3444,-3.2538,-3.2155,-3.1813,-3.1458,-3.1061,-3.1061,-3.0843,-3.0647,-3.0496,-3.0088,-2.9404,-2.8835,-2.8475,-2.7929,-2.7341,-2.6851,-2.6625,-2.6129,-2.5721,-2.4921,-2.4228,-2.3279,-2.2145,-2.168,-2.127,-2.075,-2.0333,-1.9854,-1.9173,-1.8327,-1.7513,-1.6624,-1.5985,-1.5511,-1.5233,-1.5031,-1.4545,-1.4074,-1.301,-1.1304,-1.0148,-0.9204,-0.8715,-0.848,-0.8028,-0.8072,-0.794,-0.7007,-0.6077,-0.5855,-0.5589,-0.4921,-0.4565,-0.4567,-0.4387,-0.4119,-0.3805,-0.3221,-0.17,-0.0045,0.103,0.1884,0.2424,0.2964,0.381,0.4654,0.5719,0.6786,0.79,0.9213,1.0679,1.158,1.2143,-4.4496,-4.4435,-4.4534,-4.4549,-4.4396,-4.432,-4.4143,-4.4089,-4.4715,-4.4812,-4.4684,-4.53,-4.5483,-4.511,-4.4774,-4.451,-4.4624,-4.5608,-4.6076,-4.6253,-4.7337,-4.7506,-4.7106,-4.6278,-4.5551,-4.4702,-4.376,-4.3068,-4.2992,-4.2728,-4.2634,-4.2539,-4.2381,-4.1949,-4.0895,-3.973,-3.8575,-3.7772,-3.6638,-3.5556,-3.499,-3.407,-3.2974,-3.2427,-3.1982,-3.1593,-3.131,-3.1099,-3.1024,-3.1024,-3.0884,-3.0654,-3.0081,-2.9624,-2.9258,-2.8543,-2.7907,-2.7366,-2.6964,-2.6791,-2.6367,-2.5758,-2.5347,-2.4192,-2.2824,-2.2113,-2.1499,-2.1021,-2.0722,-2.0333,-1.9726,-1.8847,-1.8046,-1.7188,-1.6468,-1.5989,-1.5423,-1.5179,-1.4873,-1.4461,-1.3565,-1.1949,-1.0376,-0.9423,-0.8612,-0.8432,-0.8208,-0.8388,-0.8476,-0.754,-0.6694,-0.6473,-0.6166,-0.5544,-0.5099,-0.4879,-0.4656,-0.4342,-0.4072,-0.3758,-0.2505,-0.085,0.0179,0.1255,0.193,0.2782,0.3942,0.4966,0.5985,0.7007,0.8076,0.9471,1.0977,1.158,1.1972,-4.4572,-4.4572,-4.461,-4.4572,-4.4534,-4.4396,-4.4089,-4.369,-4.3542,-4.3873,-4.4488,-4.3966,-4.4396,-4.4699,-4.4586,-4.4662,-4.4871,-4.6095,-4.6448,-4.6828,-4.7404,-4.7638,-4.734,-4.6382,-4.5689,-4.508,-4.4181,-4.3143,-4.3082,-4.2743,-4.2602,-4.2602,-4.2539,-4.2237,-4.1614,-4.0764,-3.973,-3.8758,-3.7666,-3.6551,-3.5663,-3.473,-3.3626,-3.2861,-3.2273,-3.1909,-3.1556,-3.1272,-3.1099,-3.1024,-3.0973,-3.0861,-3.0566,-3.0141,-2.9675,-2.9122,-2.8458,-2.7956,-2.7467,-2.7318,-2.703,-2.6449,-2.575,-2.4394,-2.3342,-2.2638,-2.1973,-2.128,-2.0838,-2.0683,-2.0372,-1.9608,-1.8807,-1.7957,-1.7107,-1.6427,-1.5707,-1.5325,-1.5026,-1.4433,-1.3571,-1.2169,-1.0631,-0.9559,-0.8872,-0.8524,-0.8432,-0.848,-0.8476,-0.816,-0.7448,-0.7132,-0.6738,-0.6166,-0.5766,-0.5458,-0.5102,-0.4832,-0.452,-0.4117,-0.2862,-0.1611,-0.0403,0.0672,0.1525,0.2511,0.3585,0.4877,0.6207,0.7228,0.794,0.9209,1.0544,1.1192,1.1757,-4.4511,-4.4396,-4.4534,-4.4435,-4.4243,-4.4518,-4.4197,-4.3527,-4.4043,-4.4472,-4.4526,-4.4887,-4.5169,-4.6024,-4.5005,-4.5279,-4.5753,-4.6127,-4.6359,-4.6759,-4.7101,-4.7521,-4.7078,-4.6094,-4.5534,-4.505,-4.4276,-4.3235,-4.3035,-4.2774,-4.2634,-4.2602,-4.2602,-4.2508,-4.2173,-4.1563,-4.0683,-3.9701,-3.8611,-3.7361,-3.6197,-3.522,-3.4087,-3.3131,-3.261,-3.2214,-3.1703,-3.1482,-3.131,-3.1061,-3.1024,-3.0911,-3.0697,-3.0504,-3.0161,-2.9262,-2.8897,-2.8596,-2.8033,-2.7871,-2.7632,-2.718,-2.6712,-2.585,-2.4668,-2.3548,-2.2723,-2.1832,-2.1098,-2.0905,-2.0566,-1.9893,-1.9332,-1.8647,-1.7755,-1.6944,-1.627,-1.5741,-1.536,-1.4524,-1.3662,-1.2431,-1.089,-0.999,-0.9345,-0.8872,-0.8616,-0.8616,-0.8524,-0.8252,-0.8025,-0.7713,-0.7445,-0.6918,-0.6476,-0.6121,-0.568,-0.5324,-0.4968,-0.4387,-0.3133,-0.1924,-0.0806,0.0358,0.1615,0.2467,0.3186,0.461,0.6163,0.6697,0.7408,0.8763,0.9985,1.0722,1.1585,-4.4549,-4.4435,-4.4458,-4.4243,-4.3988,-4.4212,-4.4097,-4.3927,-4.4434,-4.4488,-4.4143,-4.4812,-4.5463,-4.5665,-4.5279,-4.5608,-4.6655,-4.6445,-4.6464,-4.6657,-4.6795,-4.6828,-4.6392,-4.5601,-4.5082,-4.4718,-4.4231,-4.3342,-4.3143,-4.2898,-4.2713,-4.2602,-4.2602,-4.2602,-4.2412,-4.1981,-4.1433,-4.0471,-3.9383,-3.8028,-3.6855,-3.5693,-3.442,-3.3477,-3.3004,-3.2372,-3.1886,-3.174,-3.1421,-3.1099,-3.1024,-3.0949,-3.0811,-3.071,-3.0507,-2.9781,-2.9593,-2.9138,-2.8586,-2.8436,-2.8109,-2.7783,-2.7595,-2.6973,-2.5983,-2.4848,-2.3519,-2.2349,-2.1642,-2.1049,-2.0586,-2.0167,-1.9736,-1.9301,-1.8407,-1.7504,-1.6862,-1.6263,-1.5519,-1.4685,-1.3669,-1.2522,-1.1408,-1.0544,-0.9646,-0.8959,-0.8616,-0.8616,-0.8616,-0.8524,-0.834,-0.816,-0.7984,-0.7716,-0.7231,-0.6741,-0.6254,-0.5769,-0.5327,-0.4565,-0.3312,-0.2329,-0.1343,0.0269,0.1974,0.2691,0.3363,0.4654,0.5941,0.6476,0.7187,0.842,0.9646,1.0549,1.1451,-4.4572,-4.4549,-4.4343,-4.4065,-4.3769,-4.3817,-4.4035,-4.4412,-4.4434,-4.4105,-4.3732,-4.4236,-4.4699,-4.5095,-4.5169,-4.5985,-4.662,-4.6655,-4.6655,-4.6811,-4.6811,-4.671,-4.6092,-4.505,-4.4789,-4.4382,-4.3902,-4.3402,-4.3298,-4.3023,-4.2775,-4.2602,-4.2602,-4.2602,-4.2539,-4.2206,-4.1723,-4.1166,-3.9906,-3.8567,-3.754,-3.6273,-3.5009,-3.4153,-3.3376,-3.2643,-3.2191,-3.1813,-3.1445,-3.1198,-3.1024,-3.0986,-3.0911,-3.0836,-3.0608,-3.0406,-3.0126,-2.972,-2.9227,-2.9038,-2.8637,-2.8386,-2.8123,-2.7773,-2.6917,-2.5697,-2.4299,-2.2894,-2.2124,-2.127,-2.0702,-2.0479,-2.0128,-1.9736,-1.9045,-1.8318,-1.7755,-1.6911,-1.5809,-1.4977,-1.4097,-1.2942,-1.2003,-1.1101,-1.0115,-0.9218,-0.8612,-0.8612,-0.8616,-0.8616,-0.8568,-0.8476,-0.8344,-0.8164,-0.7896,-0.736,-0.6786,-0.6254,-0.5774,-0.4746,-0.3494,-0.2643,-0.1927,0.0,0.1974,0.2869,0.3719,0.4875,0.5808,0.652,0.7275,0.8256,0.9262,1.0294,1.1149,-4.4496,-4.432,-4.3988,-4.3886,-4.3988,-4.4212,-4.4004,-4.3669,-4.4259,-4.4373,-4.4259,-4.4434,-4.4849,-4.5332,-4.5036,-4.5825,-4.7118,-4.6689,-4.6809,-4.7015,-4.705,-4.6554,-4.6254,-4.5143,-4.4675,-4.4432,-4.4004,-4.3432,-4.3204,-4.3007,-4.2806,-4.2634,-4.2602,-4.2602,-4.2571,-4.227,-4.1932,-4.154,-4.0554,-3.9157,-3.7876,-3.7308,-3.6425,-3.4952,-3.3792,-3.3243,-3.2731,-3.2164,-3.185,-3.1519,-3.1161,-3.1024,-3.0986,-3.0949,-3.0811,-3.066,-3.0406,-3.0088,-2.9796,-2.9555,-2.9252,-2.8925,-2.8662,-2.836,-2.763,-2.636,-2.5056,-2.3727,-2.2558,-2.1672,-2.0954,-2.077,-2.0479,-2.0089,-1.9736,-1.9164,-1.8607,-1.7391,-1.618,-1.5311,-1.451,-1.3535,-1.2595,-1.1655,-1.0631,-0.9777,-0.8955,-0.8612,-0.8612,-0.8616,-0.8616,-0.8524,-0.8568,-0.8432,-0.8252,-0.794,-0.7319,-0.671,-0.6142,-0.502,-0.3676,-0.251,-0.1345,0.0224,0.1839,0.2645,0.3585,0.4786,0.5675,0.6343,0.7411,0.8392,0.9174,1.012,1.0852,-4.4458,-4.4396,-4.4089,-4.3856,-4.3778,-4.4035,-4.402,-4.3888,-4.395,-4.4182,-4.4472,-4.4548,-4.4946,-4.5624,-4.5221,-4.5717,-4.7202,-4.662,-4.6445,-4.6655,-4.7002,-4.6308,-4.5726,-4.5097,-4.4496,-4.4145,-4.3858,-4.3462,-4.3235,-4.3052,-4.2914,-4.2728,-4.2665,-4.2602,-4.2571,-4.2365,-4.2077,-4.1588,-4.1005,-3.9886,-3.8335,-3.7616,-3.6816,-3.5302,-3.4417,-3.3751,-3.2996,-3.2417,-3.2092,-3.1666,-3.1198,-3.1061,-3.1024,-3.0986,-3.0874,-3.0736,-3.0533,-3.0406,-3.0152,-2.9947,-2.9744,-2.9403,-2.9289,-2.9013,-2.8562,-2.7397,-2.6648,-2.5284,-2.3869,-2.2934,-2.1775,-2.129,-2.079,-2.0333,-2.0128,-1.9805,-1.8798,-1.7594,-1.6665,-1.5933,-1.5012,-1.3957,-1.3063,-1.2473,-1.1365,-1.0072,-0.9301,-0.8784,-0.8744,-0.8616,-0.8616,-0.8616,-0.8616,-0.8616,-0.848,-0.8212,-0.7812,-0.7204,-0.648,-0.5171,-0.378,-0.2155,-0.0673,0.0583,0.157,0.2199,0.3227,0.4518,0.5319,0.5944,0.7231,0.8572,0.9262,0.9907,1.0722,-4.4496,-4.4572,-4.432,-4.3934,-4.3463,-4.3596,-4.3934,-4.4159,-4.363,-4.3708,-4.4259,-4.4434,-4.4983,-4.5478,-4.5861,-4.6288,-4.6604,-4.6638,-4.6429,-4.641,-4.6828,-4.6332,-4.5615,-4.4818,-4.4382,-4.3968,-4.3652,-4.3498,-4.3372,-4.319,-4.3007,-4.2899,-4.2744,-4.2602,-4.2602,-4.2539,-4.2302,-4.1851,-4.1274,-4.0531,-3.9208,-3.7835,-3.691,-3.5963,-3.4937,-3.3898,-3.3215,-3.2624,-3.235,-3.1909,-3.1421,-3.1123,-3.1024,-3.0986,-3.0911,-3.0798,-3.0698,-3.0495,-3.0267,-3.0126,-2.9985,-2.9857,-2.9818,-2.9566,-2.9076,-2.8612,-2.7811,-2.6904,-2.5477,-2.4104,-2.297,-2.1783,-2.1261,-2.0752,-2.0596,-2.0255,-1.9045,-1.7917,-1.7196,-1.6517,-1.5428,-1.4378,-1.3747,-1.3118,-1.1966,-1.0631,-0.9772,-0.9301,-0.8915,-0.87,-0.8616,-0.8616,-0.8616,-0.8616,-0.8616,-0.8404,-0.8095,-0.7186,-0.6361,-0.516,-0.3925,-0.2606,-0.1121,0.0493,0.1391,0.1795,0.2959,0.434,0.5008,0.5677,0.7231,0.8612,0.8959,0.9646,1.0636,-4.4955,-4.4587,-4.4011,-4.3832,-4.3817,-4.3769,-4.366,-4.3527,-4.3409,-4.3409,-4.3708,-4.4297,-4.4962,-4.5733,-4.6375,-4.6638,-4.6378,-4.6622,-4.6777,-4.6742,-4.7236,-4.6618,-4.5766,-4.4998,-4.4626,-4.4028,-4.3548,-4.3512,-4.3402,-4.3204,-4.3021,-4.2883,-4.2696,-4.2602,-4.2602,-4.2539,-4.2397,-4.2013,-4.1621,-4.0956,-4.0025,-3.872,-3.754,-3.6482,-3.5367,-3.4652,-3.3946,-3.311,-3.2737,-3.2345,-3.185,-3.1384,-3.1099,-3.1024,-3.0949,-3.0911,-3.0811,-3.066,-3.0508,-3.0279,-3.0126,-3.0011,-2.9934,-2.9754,-2.9503,-2.9465,-2.8856,-2.8502,-2.7124,-2.5701,-2.441,-2.2888,-2.2082,-2.1567,-2.1311,-2.0409,-1.939,-1.8487,-1.7674,-1.6829,-1.585,-1.5095,-1.4552,-1.3711,-1.2565,-1.1359,-1.0506,-0.9946,-0.9043,-0.8828,-0.87,-0.8616,-0.8616,-0.8616,-0.8616,-0.8605,-0.8226,-0.7278,-0.6239,-0.5077,-0.4046,-0.3235,-0.1792,-0.0134,0.0762,0.1256,0.2552,0.3983,0.5008,0.5852,0.7408,0.8608,0.8867,0.9515,1.0636]},{"header":{"parameterUnit":"m.s-1","parameterCategory":1,"la1":31.0,"la2":29.5877,"lo1":-88.7671,"lo2":-86.6584,"dy":0.0162,"dx":0.0185,"nx":115,"ny":88,"refTime":"2024-05-30T12:00:00:Z","depth":0,"parameterNumber":3,"parameterNumberName":"V-component_of_WINDS"},"data":[0.0,0.0,0.0,0.0,0.0,0.0,0.0,0.0,0.0,0.0,0.0,0.0,0.0,0.0,0.0,0.0,0.0,0.0,0.0,0.0,0.0,0.0,0.0,0.0,0.0,0.0,0.0,0.0,0.0,0.0,0.0,0.0,0.0,0.0,0.0,0.0,0.0,0.0,0.0,0.0,0.0,0.0,0.0,0.0,0.0,0.0,0.0,0.0,0.0,0.0,0.0,0.0,0.0,0.0,0.0,0.0,0.0,0.0,0.0,0.0,0.0,0.0,0.0,0.0,0.0,0.0,0.0,0.0,0.0,0.0,0.0,0.0,0.0,0.0,0.0,0.0,0.0,0.0,0.0,0.0,0.0,0.0,0.0,0.0,0.0,0.0,0.0,0.0,0.0,0.0,0.0,0.0,0.0,0.0,0.0,0.0,0.0,0.0,0.0,0.0,0.0,0.0,0.0,0.0,0.0,0.0,0.0,0.0,0.0,0.0,0.0,0.0,0.0,0.0,0.0,0.0,0.0,0.0,0.0,0.0,0.0,0.0,0.0,0.0,0.0,0.0,0.0,0.0,0.0,0.0,0.0,0.0,0.0,0.0,0.0,0.0,0.0,0.0,0.0,0.0,0.0,0.0,0.0,0.0,0.0,0.0,0.0,0.0,0.0,0.0,0.0,0.0,0.0,0.0,0.0,0.0,0.0,0.0,0.0,0.0,0.0,0.0,0.0,0.0,0.0,0.0,0.0,0.0,0.0,0.0,0.0,0.0,0.0,0.0,0.0,0.0,0.0,0.0,0.0,0.0,0.0,0.0,0.0,0.0,0.0,0.0,0.0,0.0,0.0,0.0,0.0,0.0,0.0,0.0,0.0,0.0,0.0,0.0,0.0,0.0,0.0,0.0,0.0,0.0,0.0,0.0,0.0,0.0,0.0,0.0,0.0,0.0,0.0,0.0,0.0,0.0,0.0,0.0,0.0,0.0,0.0,0.0,0.0,0.0,0.0,0.0,0.0,0.0,0.0,0.0,0.0,0.0,0.0,0.0,0.0,0.0,0.0,0.0,0.0,0.0,0.0,0.0,0.0,0.0,0.0,0.0,0.0,0.0,0.0,0.0,0.0,0.0,0.0,0.0,0.0,0.0,0.0,0.0,0.0,0.0,0.0,0.0,0.0,0.0,0.0,0.0,0.0,0.0,0.0,0.0,0.0,0.0,0.0,0.0,0.0,0.0,0.0,0.0,0.0,0.0,0.0,0.0,0.0,0.0,0.0,0.0,0.0,0.0,0.0,0.0,0.0,0.0,0.0,0.0,0.0,0.0,0.0,0.0,0.0,0.0,0.0,0.0,0.0,0.0,0.0,0.0,0.0,0.0,0.0,0.0,0.0,0.0,0.0,0.0,0.0,0.0,0.0,0.0,0.0,0.0,0.0,0.0,0.0,0.0,0.0,0.0,0.0,0.0,0.0,0.0,0.0,0.0,0.0,0.0,0.0,0.0,0.0,0.0,0.0,0.0,0.0,0.0,0.0,0.0,0.0,0.0,0.0,0.0,0.0,0.0,0.0,0.0,0.0,0.0,0.0,0.0,0.0,0.0,0.0,0.0,0.0,0.0,0.0,0.0,0.0,0.0,0.0,0.0,0.0,0.0,0.0,0.0,0.0,0.0,0.0,0.0,0.0,0.0,0.0,0.0,0.0,0.0,0.0,0.0,0.0,0.0,0.0,0.0,0.0,0.0,0.0,0.0,0.0,0.0,0.0,0.0,0.0,0.0,0.0,0.0,0.0,0.0,0.0,0.0,0.0,0.0,0.0,0.0,0.0,0.0,0.0,0.0,0.0,0.0,0.0,0.0,0.0,0.0,0.0,0.0,0.0,0.0,0.0,0.0,0.0,0.0,0.0,0.0,0.0,0.0,0.0,0.0,0.0,0.0,0.0,0.0,0.0,0.0,0.0,0.0,0.0,0.0,0.0,0.0,0.0,0.0,0.0,0.0,0.0,0.0,0.0,0.0,0.0,0.0,0.0,0.0,0.0,0.0,0.0,0.0,0.0,0.0,0.0,0.0,0.0,0.0,0.0,0.0,0.0,0.0,0.0,0.0,0.0,0.0,0.0,0.0,0.0,0.0,0.0,0.0,0.0,0.0,0.0,0.0,0.0,0.0,0.0,0.0,0.0,0.0,0.0,0.0,0.0,0.0,0.0,0.0,0.0,0.0,0.0,0.0,0.0,0.0,0.0,0.0,0.0,0.0,0.0,0.0,0.0,0.0,0.0,0.0,0.0,0.0,0.0,0.0,0.0,0.0,0.0,0.0,0.0,0.0,0.0,0.0,0.0,0.0,0.0,0.0,0.0,0.0,0.0,0.0,0.0,0.0,0.0,0.0,0.0,0.0,0.0,0.0,0.0,0.0,0.0,0.0,0.0,0.0,0.0,0.0,0.0,0.0,0.0,0.0,0.0,0.0,0.0,0.0,0.0,0.0,0.0,0.0,0.0,0.0,0.0,0.0,0.0,0.0,0.0,0.0,0.0,0.0,0.0,0.0,0.0,0.0,0.0,0.0,0.0,0.0,0.0,0.0,0.0,0.0,0.0,0.0,0.0,0.0,0.0,0.0,0.0,0.0,0.0,0.0,0.0,0.0,0.0,0.0,0.0,0.0,0.0,0.0,0.0,0.0,0.0,0.0,0.0,0.0,0.0,0.0,0.0,0.0,0.0,0.0,0.0,0.0,0.0,0.0,0.0,0.0,0.0,0.0,0.0,0.0,0.0,0.0,0.0,0.0,0.0,0.0,0.0,0.0,0.0,0.0,0.0,0.0,0.0,0.0,0.0,0.0,0.0,0.0,0.0,0.0,0.0,0.0,0.0,0.0,0.0,0.0,0.0,0.0,0.0,0.0,0.0,0.0,0.0,0.0,0.0,0.0,0.0,0.0,0.0,0.0,0.0,0.0,0.0,0.0,0.0,0.0,0.0,0.0,0.0,0.0,0.0,0.0,0.0,0.0,0.0,0.0,0.0,0.0,0.0,0.0,0.0,0.0,0.0,0.0,0.0,0.0,0.0,0.0,0.0,0.0,0.0,0.0,0.0,0.0,0.0,0.0,0.0,0.0,0.0,0.0,0.0,0.0,0.0,0.0,0.0,0.0,0.0,0.0,0.0,0.0,0.0,0.0,0.0,0.0,0.0,0.0,0.0,0.0,0.0,0.0,0.0,0.0,0.0,0.0,0.0,0.0,0.0,0.0,0.0,0.0,0.0,0.0,0.0,0.0,0.0,0.0,0.0,0.0,0.0,0.0,0.0,0.0,0.0,0.0,0.0,0.0,0.0,0.0,0.0,0.0,0.0,0.0,0.0,0.0,0.0,0.0,0.0,0.0,0.0,0.0,0.0,0.0,0.0,0.0,0.0,0.0,0.0,0.0,0.0,0.0,0.0,0.0,0.0,0.0,0.0,0.0,0.0,0.0,0.0,0.0,0.0,0.0,0.0,0.0,0.0,0.0,0.0,0.0,0.0,0.0,0.0,0.0,0.0,0.0,0.0,0.0,0.0,0.0,0.0,0.0,0.0,0.0,0.0,0.0,0.0,0.0,0.0,0.0,0.0,0.0,0.0,0.0,0.0,0.0,0.0,0.0,0.0,0.0,0.0,0.0,0.0,0.0,0.0,0.0,0.0,0.0,0.0,0.0,0.0,0.0,0.0,0.0,0.0,0.0,0.0,0.0,0.0,0.0,0.0,0.0,0.0,0.0,0.0,0.0,0.0,0.0,0.0,0.0,0.0,0.0,0.0,0.0,0.0,0.0,0.0,0.0,0.0,0.0,0.0,0.0,0.0,0.0,0.0,0.0,0.0,0.0,0.0,0.0,0.0,0.0,0.0,0.0,0.0,0.0,0.0,0.0,0.0,0.0,0.0,0.0,0.0,0.0,0.0,0.0,0.0,0.0,0.0,0.0,0.0,0.0,0.0,0.0,0.0,0.0,0.0,0.0,0.0,0.0,0.0,0.0,0.0,0.0,0.0,0.0,0.0,0.0,0.0,0.0,0.0,0.0,0.0,0.0,0.0,0.0,0.0,0.0,0.0,0.0,0.0,0.0,0.0,0.0,0.0,0.0,0.0,0.0,0.0,0.0,0.0,0.0,0.0,0.0,0.0,0.0,0.0,0.0,0.0,0.0,0.0,0.0,0.0,0.0,0.0,0.0,0.0,0.0,0.0,0.0,0.0,0.0,0.0,0.0,0.0,0.0,0.0,0.0,0.0,0.0,0.0,0.0,0.0,0.0,0.0,0.0,1.0184,0.0,0.0,0.0,0.0,0.0,0.0,0.0,0.0,0.0,0.0,0.0,0.0,0.0,0.0,0.0,0.0,0.0,0.0,0.0,0.0,0.0,0.0,0.0,0.0,0.0,0.0,0.0,0.0,0.0,0.0,0.0,0.0,0.0,0.0,0.0,0.0,0.0,0.0,0.0,0.0,0.0,0.0,0.0,0.0,0.0,0.0,0.0,0.0,0.0,0.0,0.0,0.0,0.0,0.0,0.0,0.0,0.0,0.0,0.0,0.0,0.0,0.0,0.0,0.0,0.0,0.0,0.0,0.0,0.0,0.0,0.0,0.0,0.0,0.0,0.0,0.0,0.0,0.0,0.0,0.0,0.0,0.0,0.0,0.0,0.0,0.0,0.0,0.0,0.0,0.0,0.0,0.0,0.0,0.0,0.0,0.0,0.0,0.0,0.0,0.0,0.0,0.0,0.0,0.0,0.0,0.0,0.0,0.0,0.0,0.0,1.0068,1.0096,1.0124,1.0168,1.0202,0.0,0.0,0.0,0.0,0.0,0.0,0.0,0.0,0.0,0.0,0.0,0.0,0.0,0.0,0.0,0.0,0.0,0.0,0.0,0.0,0.0,0.0,0.0,0.0,0.0,0.0,0.0,0.0,0.0,0.0,0.0,0.0,0.0,0.0,0.0,0.0,0.0,0.0,0.0,0.0,0.0,0.0,0.0,0.0,0.0,0.0,0.0,0.0,0.0,0.0,0.0,0.0,0.0,0.0,0.0,0.0,0.0,0.0,0.0,0.0,0.0,0.0,0.0,0.0,0.0,0.0,0.0,0.0,0.0,0.0,0.0,0.0,0.0,0.0,0.0,0.0,0.0,0.0,0.0,0.0,0.0,0.0,0.0,0.0,0.0,0.0,0.0,0.0,0.0,0.0,0.0,0.0,0.0,0.0,0.0,0.0,0.0,0.0,0.0,0.0,0.0,0.0,0.0,0.0,0.0,0.0,0.0,0.0,0.0,0.0,0.0,0.0,1.046,1.0506,1.0522,0.0,0.0,0.0,0.0,0.0,0.0,0.0,0.0,0.0,0.0,0.0,0.0,0.0,0.0,0.0,0.0,0.0,0.0,0.0,0.0,0.0,0.0,0.0,0.0,0.0,0.0,0.0,0.0,0.0,0.0,0.0,0.0,0.0,0.0,0.0,0.0,0.0,0.0,0.0,0.0,0.0,0.0,0.0,0.0,0.0,0.0,0.0,0.0,0.0,0.0,0.0,0.0,0.0,0.0,0.0,0.0,0.0,0.0,0.0,0.0,0.0,0.0,0.0,0.0,0.0,0.0,0.0,0.0,0.0,0.0,0.0,0.0,0.0,0.0,0.0,0.0,0.0,0.0,0.0,0.0,0.0,0.0,0.0,0.0,0.0,0.0,0.0,0.0,0.0,0.0,0.0,0.0,0.0,0.0,0.0,0.0,0.0,0.0,0.0,0.0,0.0,0.0,0.0,0.0,0.0,0.0,0.0,0.0,0.0,0.0,1.0477,1.1252,1.1341,0.0,1.1479,0.0,0.0,0.0,0.0,0.0,0.0,0.0,0.0,0.0,0.0,0.0,0.0,0.0,0.0,0.0,0.0,0.0,0.0,0.0,0.0,0.0,0.0,0.0,0.0,0.0,0.0,0.0,0.0,0.0,0.0,0.0,0.0,0.0,0.0,0.0,0.0,0.0,0.0,0.0,0.0,0.0,0.0,0.0,0.0,0.0,0.0,0.0,0.0,0.0,0.0,0.0,0.0,0.0,0.0,0.0,0.0,0.0,0.0,0.0,0.0,0.0,0.0,0.0,0.0,0.0,0.0,0.0,0.0,0.0,0.0,0.0,0.0,0.0,0.0,0.0,0.0,0.0,0.0,0.0,0.0,0.0,0.0,0.0,0.0,0.0,0.0,0.0,0.0,0.0,0.0,0.0,0.0,0.0,0.0,0.0,0.0,0.0,0.0,0.0,0.0,0.0,0.0,0.0,0.0,0.0,0.0,0.0,0.0,0.0,0.0,0.0,1.1389,1.1462,1.1543,0.0,0.0,0.0,0.0,0.0,0.0,0.0,0.0,0.0,0.0,0.0,0.0,0.0,0.0,0.0,0.0,0.0,0.0,0.0,0.0,0.0,0.0,0.0,0.0,0.0,0.0,0.0,0.0,0.0,0.0,0.0,0.0,0.0,0.0,0.0,0.0,0.0,0.0,0.0,0.0,0.0,0.0,0.0,0.0,0.0,0.0,0.0,0.0,0.0,0.0,0.0,0.0,0.0,0.0,0.0,0.0,0.0,0.0,0.0,0.0,0.0,0.0,0.0,0.0,0.0,0.0,0.0,0.0,0.0,0.0,0.0,0.0,0.0,0.0,0.0,0.0,0.0,0.0,0.0,0.0,0.0,0.0,0.0,0.0,0.0,0.0,0.0,0.0,0.0,0.0,0.0,0.0,0.0,0.0,0.0,0.0,0.0,0.0,0.0,0.0,0.0,0.0,0.0,0.0,0.0,0.0,0.0,0.0,0.0,0.0,1.1141,0.0,1.1777,1.184,1.1809,1.1617,0.0,0.0,0.0,0.0,0.0,0.0,0.0,0.0,0.0,0.0,0.0,0.0,0.0,0.0,0.0,0.0,0.0,0.0,0.0,0.0,0.0,0.0,0.0,0.0,0.0,0.0,0.0,0.0,0.0,0.0,0.0,0.0,0.0,0.0,0.0,0.0,0.0,0.0,0.0,0.0,0.0,0.0,0.0,0.0,0.0,0.0,0.0,0.0,0.0,0.0,0.0,0.0,0.0,0.0,0.0,0.0,0.0,0.0,0.0,0.0,0.0,0.0,0.0,0.0,0.0,0.0,0.0,0.0,0.0,0.0,0.0,0.0,0.0,0.0,0.0,0.0,0.0,0.0,0.0,0.0,0.0,0.0,0.0,0.0,0.0,0.0,0.0,0.0,0.0,0.0,0.0,0.0,0.0,0.0,0.0,0.0,0.0,0.0,0.0,0.0,0.0,0.0,0.0,0.0,0.0,0.0,0.0,0.0,0.0,1.1766,1.1825,1.27,1.2799,1.2456,0.0,0.0,0.0,0.0,0.0,0.0,0.0,0.0,0.0,0.0,0.0,0.0,0.0,0.0,0.0,0.0,0.0,0.0,0.0,0.0,0.0,0.0,0.0,0.0,0.0,0.0,0.0,0.0,0.0,0.0,0.0,0.0,0.0,0.0,0.0,0.0,0.0,0.0,0.0,0.0,0.0,0.0,0.0,0.0,0.0,0.0,0.0,0.0,0.0,0.0,0.0,0.0,0.0,0.0,0.0,0.0,0.0,0.0,0.0,0.0,0.0,0.0,0.0,0.0,0.0,0.0,0.0,0.0,0.0,0.0,0.0,0.0,0.0,0.0,0.0,0.0,0.0,0.0,0.0,0.0,0.0,0.0,0.0,0.0,0.0,0.0,0.0,0.0,0.0,0.0,0.0,0.0,0.0,0.0,0.0,0.0,0.0,0.0,0.0,0.0,0.0,0.0,0.0,0.0,0.0,0.0,0.0,0.0,0.0,1.0981,1.1254,1.2104,0.0,1.2545,1.2133,0.0,0.0,0.0,0.0,0.0,0.0,0.0,0.0,0.0,0.0,0.0,0.0,0.0,0.0,0.0,0.0,0.0,0.0,0.0,0.0,0.0,0.0,0.0,0.0,0.0,0.0,0.0,0.0,0.0,0.0,0.0,0.0,0.0,0.0,0.0,0.0,0.0,0.0,0.0,0.0,0.0,0.0,0.0,0.0,0.0,0.0,0.0,0.0,0.0,0.0,0.0,0.0,0.0,0.0,0.0,0.0,0.0,0.0,0.0,0.0,0.0,0.0,0.0,0.0,0.0,0.0,0.0,0.0,0.0,0.0,0.0,0.0,0.0,0.0,0.0,0.0,0.0,0.0,0.0,0.0,0.0,0.0,0.0,0.0,0.0,0.0,0.0,0.0,0.0,0.0,0.0,0.0,0.0,0.0,0.0,0.0,0.0,0.0,0.0,0.0,0.0,0.0,0.0,0.0,0.0,0.0,0.0,0.0,0.0,1.0969,0.0,1.2711,0.0,1.2522,1.1974,0.0,0.0,0.0,0.0,0.0,0.0,0.0,0.0,0.0,0.0,0.0,0.0,0.0,0.0,0.0,0.0,0.0,0.0,0.0,0.0,0.0,0.0,0.0,0.0,0.0,0.0,0.0,0.0,0.0,0.0,0.0,0.0,0.0,0.0,0.0,0.0,0.0,0.0,0.0,0.0,0.0,0.0,0.0,0.0,0.0,0.0,0.0,0.0,0.0,0.0,0.0,0.0,0.0,0.0,0.0,0.0,0.0,0.0,0.0,0.0,0.0,0.0,0.0,0.0,0.0,0.0,0.0,0.0,0.0,0.0,0.0,0.0,0.0,0.0,0.0,0.0,0.0,0.0,0.0,0.0,0.0,0.0,0.0,0.0,0.0,0.0,0.0,0.0,0.0,0.0,0.0,0.0,0.0,0.0,0.0,0.0,0.0,0.0,0.0,0.0,0.0,0.0,0.0,0.0,0.0,0.0,0.0,0.0,1.0982,1.2683,1.3473,1.3593,1.298,1.282,1.2002,0.0,0.0,0.0,0.0,0.0,0.0,0.0,0.0,0.0,0.0,0.0,0.0,0.0,0.0,0.0,0.0,0.0,0.0,0.0,0.0,0.0,0.0,0.0,0.0,0.0,0.0,0.0,0.0,0.0,0.0,0.0,0.0,0.0,0.0,0.0,0.0,0.0,0.0,0.0,0.0,0.0,0.0,0.0,0.0,0.0,0.0,0.0,0.0,0.0,0.0,0.0,0.0,0.0,0.0,0.0,0.0,0.0,0.0,0.0,0.0,0.0,0.0,0.0,0.0,0.0,0.0,0.0,0.0,0.0,0.0,0.0,0.0,0.0,0.0,0.0,0.0,0.0,0.0,0.0,0.0,0.0,0.0,0.0,0.0,0.0,0.0,0.0,0.0,0.0,0.0,0.0,0.0,0.0,0.0,0.0,0.0,0.0,0.0,0.0,0.0,0.0,0.0,0.0,0.0,0.0,0.0,0.0,0.0,0.0,1.1929,1.273,1.3622,1.4509,1.2918,1.226,0.0,0.0,0.0,0.0,0.0,0.0,0.0,0.0,0.0,0.0,0.0,0.0,0.0,0.0,0.0,0.0,0.0,0.0,0.0,0.0,0.0,0.0,0.0,0.0,0.0,0.0,0.0,0.0,0.0,0.0,0.0,0.0,0.0,0.0,0.0,0.0,0.0,0.0,0.0,0.0,0.0,0.0,0.0,0.0,0.0,0.0,0.0,0.0,0.0,0.0,0.0,0.0,0.0,0.0,0.0,0.0,0.0,0.0,0.0,0.0,0.0,0.0,0.0,0.0,0.0,0.0,0.0,0.0,0.0,0.0,0.0,0.0,0.0,0.0,0.0,0.0,0.0,0.0,0.0,0.0,0.0,0.0,0.0,0.0,0.0,0.0,0.0,0.0,0.0,0.0,0.0,0.0,0.0,0.0,0.0,0.0,0.0,0.0,0.0,0.0,0.0,0.0,0.0,0.0,0.0,0.0,0.0,0.0,0.0,1.3923,1.4776,1.559,1.6372,1.4485,1.3375,1.3122,0.0,0.0,0.0,0.0,0.0,0.0,0.0,0.0,0.0,0.0,0.0,0.0,0.0,0.0,0.0,0.0,0.0,0.0,0.0,0.0,0.0,0.0,0.0,0.0,0.0,0.0,0.0,0.0,0.0,0.0,0.0,0.0,0.0,0.0,0.0,0.0,0.0,0.0,0.0,0.0,0.0,0.0,0.0,0.0,0.0,0.0,0.0,0.0,0.0,0.0,0.0,0.0,0.0,0.0,0.0,0.0,0.0,0.0,0.0,0.0,0.0,0.0,0.0,0.0,0.0,0.0,0.0,0.0,0.0,0.0,0.0,0.0,0.0,0.0,0.0,0.0,0.0,0.0,0.0,0.0,0.0,0.0,0.0,0.0,0.0,0.0,0.0,0.0,0.0,0.0,0.0,0.0,0.0,0.0,0.0,0.0,0.0,0.0,0.0,0.0,0.0,0.0,0.0,0.0,0.0,0.0,0.0,0.0,1.8039,1.9139,1.9295,1.8398,1.7264,1.5193,0.0,0.0,0.0,0.0,0.0,0.0,0.0,0.0,0.0,0.0,0.0,0.0,0.0,0.0,0.0,0.0,0.0,0.0,0.0,0.0,0.0,0.0,0.0,0.0,0.0,0.0,0.0,0.0,0.0,0.0,0.0,0.0,0.0,0.0,0.0,0.0,0.0,0.0,0.0,0.0,0.0,0.0,0.0,0.0,0.0,0.0,0.0,0.0,0.0,0.0,0.0,0.0,0.0,0.0,0.0,0.0,0.0,0.0,0.0,0.0,0.0,0.0,0.0,0.0,0.0,0.0,0.0,0.0,0.0,0.0,0.0,0.0,0.0,0.0,0.0,0.0,0.0,0.0,0.0,0.0,0.0,0.0,0.0,0.0,0.0,0.0,0.0,0.0,0.0,0.0,0.0,0.0,0.0,0.0,0.0,0.0,0.0,0.0,0.0,0.0,0.0,0.0,0.0,0.0,0.0,0.0,0.0,0.0,0.0,1.9822,2.3145,2.4214,2.2688,1.8761,1.6539,0.0,0.0,0.0,0.0,0.0,0.0,0.0,0.0,0.0,0.0,0.0,0.0,0.0,0.0,0.0,0.0,0.0,0.0,0.0,0.0,0.0,0.0,0.0,0.0,0.0,0.0,0.0,0.0,0.0,0.0,0.0,0.0,0.0,0.0,0.0,0.0,0.0,0.0,0.0,0.0,0.0,0.0,0.0,0.0,0.0,0.0,0.0,0.0,0.0,0.0,0.0,0.0,0.0,0.0,0.0,0.0,0.0,0.0,0.0,0.0,0.0,0.0,0.0,0.0,0.0,0.0,0.0,0.0,0.0,0.0,0.0,0.0,0.0,0.0,0.0,0.0,0.0,0.0,0.0,0.0,0.0,0.0,0.0,0.0,0.0,0.0,0.0,0.0,0.0,0.0,0.0,0.0,0.0,0.0,0.0,0.0,0.0,0.0,0.0,0.0,0.0,0.0,0.0,0.0,0.0,0.0,0.0,0.0,1.9276,2.1504,2.6057,2.8004,2.7008,2.2015,1.8696,0.0,0.0,0.0,0.0,0.0,0.0,0.0,0.0,0.0,0.0,0.0,0.0,0.0,0.0,0.0,0.0,0.0,0.0,0.0,0.0,0.0,0.0,0.0,0.0,0.0,0.0,0.0,0.0,0.0,0.0,0.0,0.0,0.0,0.0,0.0,0.0,0.0,0.0,0.0,0.0,0.0,0.0,0.0,0.0,0.0,0.0,0.0,0.0,0.0,0.0,0.0,0.0,0.0,0.0,0.0,0.0,0.0,0.0,0.0,0.0,0.0,0.0,0.0,0.0,0.0,0.0,0.0,0.0,0.0,0.0,0.0,0.0,0.0,0.0,0.0,0.0,0.0,0.0,0.0,0.0,0.0,0.0,0.0,0.0,0.0,0.0,0.0,0.0,0.0,0.0,0.0,0.0,0.0,0.0,0.0,0.0,0.0,0.0,0.0,0.0,0.0,0.0,0.0,0.0,0.0,0.0,0.0,0.0,2.1377,2.3188,2.803,3.06,3.0466,2.5634,2.1085,0.0,0.0,0.0,0.0,0.0,0.0,0.0,0.0,0.0,0.0,0.0,0.0,0.0,0.0,0.0,0.0,0.0,0.0,0.0,0.0,0.0,0.0,0.0,0.0,0.0,0.0,0.0,0.0,0.0,0.0,0.0,0.0,0.0,0.0,0.0,0.0,0.0,0.0,0.0,0.0,0.0,0.0,0.0,0.0,0.0,0.0,0.0,0.0,0.0,0.0,0.0,0.0,0.0,0.0,0.0,0.0,0.0,0.0,0.0,0.0,0.0,0.0,0.0,0.0,0.0,0.0,0.0,0.0,0.0,0.0,0.0,0.0,0.0,0.0,0.0,0.0,0.0,0.0,0.0,0.0,0.0,0.0,0.0,0.0,0.0,0.0,0.0,0.0,0.0,0.0,0.0,0.0,0.0,0.0,0.0,0.0,0.0,0.0,0.0,0.0,0.0,0.0,0.0,0.0,0.0,0.0,0.0,0.0,2.2453,2.4923,2.8649,3.0607,3.0572,2.4999,2.1268,0.0,0.0,0.0,0.0,0.0,0.0,0.0,0.0,0.0,0.0,0.0,0.0,0.0,0.0,0.0,0.0,0.0,0.0,0.0,0.0,0.0,0.0,0.0,0.0,0.0,0.0,0.0,0.0,0.0,0.0,0.0,0.0,0.0,0.0,0.0,0.0,0.0,0.0,0.0,0.0,0.0,0.0,0.0,0.0,0.0,0.0,0.0,0.0,1.1384,0.0,0.0,0.0,0.0,0.0,0.0,0.0,0.0,0.0,0.0,0.0,0.0,0.0,0.0,0.0,0.0,0.0,0.0,0.0,0.0,0.0,0.0,0.0,0.0,0.0,0.0,0.0,0.0,0.0,0.0,0.0,0.0,0.0,0.0,0.0,0.0,0.0,0.0,0.0,0.0,0.0,0.0,0.0,0.0,0.0,0.0,0.0,0.0,0.0,0.0,0.0,0.0,0.0,0.0,0.0,0.0,0.0,0.0,0.0,2.301,2.6014,2.9031,3.0617,3.0448,2.6388,2.2989,0.0,0.0,0.0,0.0,0.0,0.0,0.0,0.0,0.0,0.0,0.0,0.0,0.0,0.0,0.0,0.0,0.0,0.0,0.0,0.0,0.0,0.0,0.0,0.0,0.0,0.0,0.0,0.0,0.0,0.0,0.0,0.0,0.0,0.0,0.0,0.0,0.0,0.0,0.0,0.0,0.0,0.0,0.0,0.0,0.0,0.0,0.0,0.0,0.0,0.0,0.0,0.0,0.0,0.0,0.0,0.0,0.0,0.0,0.0,0.0,0.0,0.0,0.0,0.0,0.0,0.0,0.0,0.0,0.0,0.0,0.0,0.0,0.0,0.0,0.0,0.0,0.0,0.0,0.0,0.0,0.0,0.0,0.0,0.0,0.0,0.0,0.0,0.0,0.0,0.0,0.0,0.0,0.0,0.0,0.0,0.0,0.0,0.0,0.0,0.0,0.0,0.0,0.0,0.0,0.0,0.0,0.0,2.0129,2.3446,2.7185,2.9452,3.0617,3.0564,2.8194,2.4856,2.0588,0.0,0.0,0.0,0.0,0.0,0.0,0.0,0.0,0.0,0.0,0.0,0.0,0.0,0.0,0.0,0.0,0.0,0.0,0.0,0.0,0.0,0.0,0.0,0.0,0.0,0.0,0.0,0.0,0.0,0.0,0.0,0.0,0.0,0.0,0.0,0.0,0.0,0.0,0.9151,1.1099,0.0,0.0,0.0,0.0,0.0,0.0,0.0,0.0,1.1955,0.0,0.0,0.0,0.0,0.0,0.0,0.0,0.0,0.0,0.0,0.0,0.0,0.0,0.0,0.0,0.0,0.0,0.0,0.0,0.0,0.0,0.0,0.0,0.0,0.0,0.0,0.0,0.0,0.0,0.0,0.0,0.0,0.0,0.0,0.0,0.0,0.0,0.0,0.0,0.0,0.0,0.0,0.0,0.0,0.0,0.0,0.0,0.0,0.0,0.0,0.0,0.0,0.0,0.0,0.0,0.0,2.0674,2.1259,2.427,2.98,3.0366,3.0617,3.0544,2.8194,2.4853,2.0625,0.0,0.0,0.0,0.0,0.0,0.0,0.0,0.0,0.0,0.0,0.0,0.0,0.0,0.0,0.0,0.0,0.0,0.0,0.0,0.0,0.0,0.0,0.0,0.0,0.0,0.0,0.0,0.0,0.0,0.0,0.0,0.0,0.0,0.0,0.0,0.0,0.0,0.0,0.0,1.4221,1.4981,0.0,0.0,0.0,0.0,0.0,0.0,0.0,0.0,1.4345,0.0,0.0,0.0,0.0,0.0,0.0,0.0,0.0,0.0,0.0,0.0,0.0,0.0,0.0,0.0,0.0,0.0,0.0,0.0,0.0,0.0,0.0,0.0,0.0,0.0,0.0,0.0,0.0,0.0,0.0,0.0,0.0,0.0,0.0,0.0,0.0,0.0,0.0,0.0,0.0,0.0,0.0,0.0,0.0,0.0,0.0,0.0,0.0,0.0,0.0,0.0,0.0,0.0,0.0,0.0,2.055,2.2911,2.6114,3.026,3.0545,3.0617,3.0544,2.7763,2.4382,0.0,0.0,0.0,0.0,0.0,0.0,0.0,0.0,0.0,0.0,0.0,0.0,0.0,0.0,0.0,0.0,0.0,0.0,0.0,0.0,0.0,0.0,0.0,0.0,0.0,0.0,0.0,0.0,0.0,0.0,0.0,0.0,0.0,0.0,0.0,0.0,0.0,0.0,0.0,0.0,1.5628,1.6663,1.8153,0.0,0.0,0.0,0.0,0.0,0.0,1.5946,1.5426,0.0,0.0,0.0,0.0,0.0,0.0,0.0,0.0,0.0,0.0,0.0,0.0,0.0,0.0,0.0,0.0,0.0,0.0,0.0,0.0,0.0,0.0,0.0,0.0,0.0,0.0,0.0,0.0,0.0,0.0,0.0,0.0,0.0,0.0,0.0,0.0,0.0,0.0,0.0,0.0,0.0,0.0,0.0,0.0,0.0,0.0,0.0,0.0,0.0,0.0,0.0,0.0,0.0,0.0,0.0,1.9934,2.4003,2.7506,3.0157,3.0509,3.0617,3.054,2.7016,2.3597,0.0,0.0,0.0,0.0,0.0,0.0,0.0,0.0,0.0,0.0,0.0,0.0,0.0,0.0,0.0,0.0,0.0,0.0,0.0,0.0,0.0,0.0,0.0,0.0,0.0,0.0,0.0,0.0,0.0,0.0,0.0,0.0,0.0,0.0,0.0,0.0,0.0,0.0,0.0,0.0,0.0,1.8484,2.0673,1.8717,0.0,0.0,0.0,0.0,1.7509,1.7381,0.0,0.0,0.0,0.0,0.0,0.0,0.0,0.0,0.0,0.0,0.0,0.0,0.0,0.0,0.0,0.0,0.0,0.0,0.0,0.0,0.0,0.0,0.0,0.0,0.0,0.0,0.0,0.0,0.0,0.0,0.0,0.0,0.0,0.0,0.0,0.0,0.0,0.0,0.0,0.0,0.0,0.0,0.0,0.0,0.0,0.0,0.0,0.0,0.0,0.0,0.0,0.0,0.0,0.0,0.0,0.0,1.988,2.3408,2.6895,3.0099,3.049,3.0617,3.054,2.5855,2.2401,0.0,0.0,0.0,0.0,0.0,0.0,0.0,0.0,0.0,0.0,0.0,0.0,0.0,0.0,0.0,0.0,0.0,0.0,0.0,0.0,0.0,0.0,0.0,0.0,0.0,0.0,0.0,0.0,0.0,0.0,0.0,0.0,0.0,0.0,0.0,0.0,0.0,0.0,0.0,0.0,0.0,2.0825,2.0454,1.9424,1.8721,0.0,0.0,2.0156,2.1653,2.2425,0.0,0.0,0.0,0.0,0.0,0.0,0.0,0.0,0.0,0.0,0.0,0.0,0.0,0.0,0.0,0.0,0.0,0.0,0.0,0.0,0.0,0.0,0.0,0.0,0.0,0.0,0.0,0.0,0.0,0.0,0.0,0.0,0.0,0.0,0.0,0.0,0.0,0.0,0.0,0.0,0.0,0.0,0.0,0.0,0.0,0.0,0.0,0.0,0.0,0.0,0.0,0.0,0.0,0.0,0.0,1.7899,1.9839,2.4573,2.8072,3.0046,3.0327,3.05,3.0598,2.5189,2.1675,0.0,0.0,0.0,0.0,0.0,0.0,0.0,0.0,0.0,0.0,0.0,0.0,0.0,0.0,0.0,0.0,0.0,0.0,0.0,0.0,0.0,0.0,0.0,0.0,0.0,0.0,0.0,0.0,0.0,0.0,0.0,0.0,0.0,0.0,0.0,0.0,0.0,0.0,0.0,0.0,0.0,0.0,2.2268,2.1652,0.0,0.0,0.0,2.155,2.1285,0.0,0.0,0.0,0.0,0.0,0.0,0.0,0.0,0.0,0.0,0.0,0.0,0.0,0.0,0.0,0.0,0.0,0.0,0.0,0.0,0.0,0.0,0.0,0.0,0.0,0.0,0.0,0.0,0.0,0.0,0.0,0.0,0.0,0.0,0.0,0.0,0.0,0.0,0.0,0.0,0.0,0.0,0.0,0.0,0.0,0.0,0.0,0.0,0.0,0.0,0.0,0.0,0.0,0.0,0.0,0.0,0.0,1.9713,2.5525,2.9041,2.995,3.0203,3.0395,3.0477,2.5447,0.0,0.0,0.0,0.0,0.0,0.0,0.0,0.0,0.0,0.0,0.0,0.0,0.0,0.0,0.0,0.0,0.0,0.0,0.0,0.0,0.0,0.0,0.0,0.0,0.0,0.0,0.0,0.5707,0.0,0.0,0.0,0.0,0.0,0.0,0.0,0.0,0.0,0.0,0.0,0.0,0.0,0.0,2.2326,2.348,2.3338,2.322,0.0,0.0,2.2724,2.1877,2.4117,2.4526,0.0,0.0,0.0,0.0,0.0,0.0,0.0,0.0,0.0,0.0,0.0,0.0,0.0,0.0,0.0,0.0,0.0,0.0,0.0,0.0,0.0,0.0,0.0,0.0,0.0,0.0,0.0,0.0,0.0,0.0,0.0,0.0,0.0,0.0,0.0,0.0,0.0,0.0,0.0,0.0,0.0,0.0,0.0,0.0,0.0,0.0,0.0,0.0,0.0,0.0,0.0,0.0,0.0,0.0,0.0,1.986,2.5521,2.8971,2.9961,3.019,3.0395,3.052,2.7184,2.3768,0.0,0.0,0.0,0.0,0.0,0.0,0.0,0.0,0.0,0.0,0.0,0.0,0.0,0.0,0.0,0.0,0.0,0.0,0.0,0.0,0.0,0.0,0.0,0.0,0.0,0.0,0.0,0.0,0.0,0.0,0.0,0.0,0.0,0.0,0.0,0.0,0.0,0.0,0.0,0.0,0.0,2.2744,2.2862,2.3484,2.4452,0.0,0.0,2.4379,2.5746,2.7376,2.6945,2.219,0.0,0.0,0.0,0.0,0.0,0.0,0.0,0.0,0.0,0.0,0.0,0.0,0.0,0.0,0.0,0.0,0.0,0.0,0.0,0.0,0.0,0.0,0.0,0.0,0.0,0.0,0.0,0.0,0.0,0.0,0.0,0.0,0.0,0.0,0.0,0.0,0.0,0.0,0.0,0.0,0.0,0.0,0.0,0.0,0.0,0.0,0.0,0.0,0.0,0.0,0.0,0.0,0.0,1.8131,1.9556,2.4693,2.8156,2.9672,3.0021,3.024,3.0419,2.778,2.4471,0.0,0.0,0.0,0.0,0.0,0.0,0.0,0.0,0.0,0.0,0.0,0.0,0.0,0.0,0.0,0.0,0.0,0.0,0.0,0.0,0.0,0.0,0.0,0.0,0.0,0.0,0.0,0.0,1.1318,1.1697,1.1661,0.0,0.0,0.0,0.0,0.0,0.0,0.0,0.0,0.0,0.0,2.3561,2.5515,2.5704,0.0,0.0,2.6677,2.5943,2.5064,2.6654,2.6383,2.1607,2.0834,0.0,0.0,0.0,0.0,0.0,0.0,0.0,0.0,0.0,0.0,0.0,0.0,0.0,0.0,0.0,0.0,0.0,0.0,0.0,0.0,0.0,0.0,0.0,0.0,0.0,0.0,0.0,0.0,0.0,0.0,0.0,0.0,0.0,0.0,0.0,0.0,0.0,0.0,0.0,0.0,0.0,0.0,0.0,0.0,0.0,0.0,0.0,0.0,0.0,0.0,0.0,0.0,1.7916,1.9398,2.4423,2.7873,2.957,2.9829,3.0063,3.0217,2.8242,2.5366,0.0,0.0,0.0,0.0,0.0,0.0,0.0,0.0,0.0,0.0,0.0,0.0,0.0,0.0,0.0,0.0,0.0,0.0,0.0,0.0,0.0,0.0,0.0,0.0,0.0,0.0,0.0,0.0,1.2787,1.2963,1.2335,0.0,0.0,0.0,0.0,0.0,0.0,0.0,0.0,0.0,0.0,2.4351,2.6329,2.6196,2.6078,2.6588,2.6237,2.5484,2.4257,2.5481,2.5325,2.1735,0.0,0.0,0.0,0.0,0.0,0.0,0.0,0.0,0.0,0.0,0.0,0.0,0.0,0.0,0.0,0.0,0.0,0.0,0.0,0.0,0.0,0.0,0.0,0.0,0.0,0.0,0.0,0.0,0.0,0.0,1.0023,0.0,0.0,0.0,0.0,0.0,0.0,0.0,0.0,0.0,0.0,0.0,0.0,0.0,0.0,0.0,0.0,0.0,0.0,0.0,0.0,0.0,0.0,1.8536,1.9364,2.4872,2.8361,2.9541,2.9614,2.9831,3.0219,2.8738,2.669,2.4127,0.0,0.0,0.0,0.0,0.0,0.0,0.0,0.0,0.0,0.0,0.0,0.0,0.0,0.0,0.0,0.0,0.0,0.0,0.0,0.0,0.0,0.0,0.0,0.0,0.0,0.0,0.9094,1.0952,1.2357,0.0,0.0,0.0,0.0,0.0,0.0,0.0,0.0,0.0,0.0,2.2676,2.4974,2.4341,2.4252,2.4365,2.4438,2.3107,2.2528,2.4016,2.4367,2.4099,0.0,0.0,0.0,0.0,0.0,0.0,0.0,0.0,0.0,0.0,0.0,0.0,0.0,0.0,0.0,0.0,0.0,0.0,0.0,0.0,0.0,0.0,0.0,0.0,0.0,0.0,0.0,1.392,1.3407,0.0,0.0,0.0,0.0,0.0,0.0,0.0,0.0,0.0,0.0,0.0,1.8275,1.9214,0.0,0.0,0.0,0.0,0.0,0.0,0.0,0.0,0.0,0.0,0.0,0.0,1.8556,2.0044,2.4973,2.8088,2.91,2.9438,2.9666,2.9839,2.9645,2.7905,2.4352,0.0,0.0,0.0,0.0,0.0,0.0,0.0,0.0,0.0,0.0,0.0,0.0,0.0,0.0,0.0,0.0,0.0,0.0,0.0,0.0,0.0,0.0,0.0,0.0,0.0,1.1629,0.0,0.0,0.0,0.0,0.0,0.0,0.0,0.0,0.0,0.0,0.0,1.895,2.1349,2.2429,2.3446,2.4757,2.4588,2.5116,0.0,0.0,0.0,0.0,0.0,0.0,0.0,0.0,0.0,0.0,0.0,0.0,0.0,0.0,1.9583,1.5601,1.5725,1.656,1.6806,0.0,0.0,0.0,0.0,0.0,0.0,0.0,0.0,0.0,0.0,0.0,0.0,0.0,0.0,1.632,0.0,1.5886,0.0,0.0,0.0,0.0,0.0,0.0,0.0,0.0,1.9076,2.0788,2.142,2.2407,2.2605,0.0,2.1528,1.8899,0.0,0.0,0.0,0.0,0.0,0.0,0.0,0.0,1.9112,2.062,2.5308,2.8161,2.888,2.9193,2.9429,2.9586,2.9471,2.8058,2.5189,2.0759,1.7606,0.0,0.0,0.0,0.0,0.0,0.0,0.0,0.0,0.0,0.0,0.0,0.0,0.0,0.0,0.0,0.0,0.0,0.0,0.0,0.0,0.0,0.0,0.0,1.2841,0.0,0.0,0.0,0.0,0.0,0.0,0.0,0.0,0.0,1.818,1.9497,2.1339,2.4049,2.4216,2.4253,2.4644,0.0,0.0,0.0,0.0,0.0,0.0,0.0,2.3231,2.21,2.2565,2.3592,2.5079,2.6004,2.6435,2.6132,0.0,0.0,1.9811,1.9715,2.047,2.0732,2.1203,2.1694,2.2097,2.2221,2.2337,0.0,0.0,0.0,0.0,0.0,0.0,0.0,0.0,1.7746,1.7255,0.0,1.7755,0.0,0.0,0.0,0.0,0.0,1.8074,0.0,0.0,2.4774,2.6461,2.5052,2.5374,2.5301,2.4717,2.4087,2.2817,2.0961,1.862,0.0,0.0,0.0,0.0,0.0,0.0,2.0258,2.1306,2.6013,2.8621,2.8924,2.8942,2.9144,2.9559,2.8356,2.7344,2.6564,2.3385,2.0881,1.929,1.5287,0.0,0.0,0.0,0.0,0.0,0.0,0.0,0.0,0.0,0.0,0.0,0.0,0.0,0.0,0.0,0.0,0.0,0.0,0.0,0.0,1.2131,0.0,0.0,0.0,0.0,0.0,0.0,0.0,0.0,0.0,0.0,2.1341,2.1946,2.3496,2.6574,0.0,0.0,0.0,0.0,2.5739,2.207,2.1983,2.2554,2.2724,2.3896,2.5265,2.6619,0.0,0.0,3.0118,2.8322,2.672,2.5808,2.7457,2.7909,2.5271,2.3789,2.3196,2.379,2.3518,2.3179,2.373,2.3827,2.334,2.1527,0.0,0.0,0.0,0.0,1.8689,2.0232,2.2706,2.2774,2.2271,2.1341,2.1193,0.0,0.0,0.0,0.0,0.0,0.0,2.0339,2.1794,2.4216,2.5909,2.7049,2.7447,2.7794,2.8062,2.7382,2.6828,2.6387,2.4858,2.1161,1.5525,0.0,0.0,0.0,0.0,2.201,2.4155,2.7812,2.9633,2.9403,2.9629,2.9695,2.9596,2.8677,2.7954,2.7451,2.5406,2.3279,2.1143,1.87,0.0,0.0,0.0,0.0,0.0,0.0,0.0,0.0,0.0,0.0,0.0,0.0,0.0,0.0,0.0,0.0,0.0,0.0,0.0,1.2093,1.353,1.3856,0.0,0.0,0.0,0.0,0.0,0.0,0.0,0.0,0.0,2.5587,2.4303,2.3493,0.0,0.0,2.3488,2.1972,2.3971,2.6041,2.7246,0.0,0.0,0.0,2.9333,2.8561,2.888,3.0324,3.1313,3.1072,3.1408,3.1659,3.1353,3.17,3.1667,3.0918,2.9178,2.8017,2.8148,2.8207,2.8321,2.8594,2.8836,2.8973,2.576,2.3085,2.1637,2.1315,2.1787,2.1825,2.3233,2.5508,2.5598,2.5031,2.4128,2.4255,2.2644,1.9787,1.9087,0.0,0.0,0.0,2.2701,2.4595,2.5398,2.656,2.7829,2.8149,2.8559,2.9058,2.8656,2.8653,2.9,2.7692,2.4562,1.9717,0.0,0.0,1.8651,2.1576,2.4022,2.591,2.8594,2.9799,2.9408,2.9541,2.952,2.9309,2.8343,2.7878,2.8026,2.6596,2.4993,2.33,2.1288,1.8585,0.0,0.0,0.0,0.0,0.0,0.0,0.0,0.0,0.0,0.0,0.0,0.9655,0.0,0.0,0.0,0.0,1.21,1.3029,1.406,1.5044,0.0,0.0,0.0,0.0,0.0,0.0,0.0,1.9408,2.2592,2.5692,2.8005,2.6827,2.6104,2.7094,2.651,2.5571,2.4422,0.0,2.8975,2.998,3.0294,3.1135,3.3061,3.2602,3.2077,3.2492,3.3183,3.3462,3.2954,3.3647,3.4156,3.3872,3.3638,3.3494,3.3494,3.2283,3.1217,3.0979,3.108,3.1201,3.1163,3.1434,3.1709,2.906,2.8191,2.5197,2.4308,2.4821,2.4864,2.5505,2.6592,2.6799,2.6199,2.5183,2.6613,2.5617,2.2758,2.2298,0.0,2.4911,2.4924,2.5869,2.7663,2.775,2.7804,2.7842,2.7949,2.8158,2.8508,2.8556,2.8858,2.9339,2.811,2.6867,2.5666,2.4752,2.3835,2.3024,2.4577,2.5932,2.6859,2.8595,2.9373,2.9181,2.8995,2.89,2.8875,2.7608,2.741,2.8301,2.7157,2.6175,2.5553,2.3288,2.0836,1.8271,0.0,0.0,0.0,0.0,0.0,0.0,0.0,0.0,0.0,0.0,0.0,0.0,0.0,0.0,0.0,1.6039,0.0,1.6981,1.6891,0.0,0.0,0.0,1.8651,2.033,2.2769,2.4298,2.4225,0.0,0.0,2.9217,0.0,3.0304,3.2878,3.2302,3.1028,2.9428,3.1878,3.3374,3.1341,3.2292,3.3336,3.3945,3.4708,3.5654,3.6538,3.6901,3.6365,3.5381,3.5005,3.4734,3.4082,3.3862,3.3807,3.3807,3.3435,3.3157,3.2449,3.2282,3.2162,3.184,3.1783,3.1781,3.0012,2.8749,2.7602,2.7322,2.7723,2.7808,2.8286,2.8932,2.8539,2.7971,2.72,2.6606,2.5521,2.4109,2.4012,2.4572,2.5711,2.591,2.6483,2.7324,2.7622,2.7883,2.8208,2.8451,2.8545,2.8458,2.898,2.9086,2.8764,2.891,2.8276,2.7008,2.6902,2.5481,2.285,2.4348,2.5949,2.7485,2.8611,2.9436,2.9905,2.9307,2.891,2.8749,2.7789,2.7593,2.8267,2.7384,2.6992,2.7243,2.546,2.3331,2.0894,1.6796,0.0,0.0,0.0,0.0,0.0,0.0,0.0,0.0,0.0,1.1022,0.7545,0.0,1.2923,0.0,1.7043,1.9967,2.1253,2.0766,0.0,0.0,2.0708,2.1269,2.3004,2.5458,2.6783,2.6138,2.84,3.0335,3.1146,3.122,3.2419,3.5485,3.3498,3.1296,3.0354,3.2935,3.5149,3.5259,3.6439,3.7803,3.8257,3.8763,3.8946,3.9131,3.8614,3.7988,3.7304,3.6131,3.5158,3.4747,3.4192,3.3862,3.3807,3.3721,3.3536,3.3124,3.2651,3.2197,3.1874,3.18,3.18,3.1091,3.0303,2.9842,2.958,2.9303,2.8246,2.7974,2.8263,2.802,2.7738,2.7373,2.6744,2.6064,2.5453,2.5622,2.5878,2.6233,2.6754,2.718,2.748,2.7757,2.7993,2.8217,2.8283,2.8392,2.8604,2.8978,2.9011,2.8722,2.9217,2.8942,2.793,2.8345,2.7288,2.4924,2.5245,2.5989,2.702,2.8045,2.9111,3.0124,2.9259,2.8455,2.781,2.6742,2.59,2.5364,2.5065,2.4724,2.4283,2.3145,2.1907,2.0517,1.6854,1.4341,0.0,0.0,0.0,0.0,0.0,0.0,0.0,0.0,0.0,0.0,0.0,1.524,1.5598,1.9575,2.2228,2.2389,2.2654,2.3229,2.4341,2.4779,2.5844,2.7911,2.9772,3.0711,3.0234,3.1797,3.3094,3.3538,3.3596,3.4412,3.6701,3.5626,3.4485,3.42,3.59,3.7448,3.795,3.9058,3.9967,4.0337,4.0334,4.0215,3.9918,3.9524,3.8998,3.8216,3.7337,3.6373,3.5399,3.4816,3.4352,3.3939,3.3807,3.3666,3.3151,3.2763,3.2402,3.2073,3.1893,3.18,3.1947,3.1843,3.1481,3.0817,2.988,2.772,2.6756,2.6652,2.6866,2.683,2.6645,2.6762,2.6636,2.6348,2.6673,2.6677,2.6452,2.7224,2.7648,2.7709,2.7949,2.8054,2.8057,2.7954,2.8208,2.8768,2.8866,2.8931,2.8953,2.9276,2.9055,2.8403,2.8869,2.8488,2.7258,2.63,2.5937,2.6184,2.7345,2.8572,2.9819,2.8749,2.7559,2.6382,2.5173,2.3693,2.1917,2.2271,2.1783,2.021,1.9669,1.9471,1.9509,1.6467,1.4795,0.0,1.345,0.0,0.0,0.0,0.0,0.0,0.0,0.0,0.0,1.8255,1.8919,1.9913,2.2715,2.4074,2.3175,2.4319,2.6059,2.8428,2.9408,3.0797,3.3041,3.4049,3.4551,3.4664,3.5305,3.5733,3.5659,3.5729,3.6064,3.7093,3.7712,3.8039,3.8587,3.9142,3.9616,3.9746,4.0349,4.0632,4.0516,4.0394,4.0252,4.001,3.9948,3.9605,3.8719,3.839,3.7725,3.6044,3.5454,3.5013,3.3989,3.3807,3.3606,3.3105,3.289,3.2634,3.2283,3.1966,3.1818,3.1759,3.1065,3.057,2.9952,2.9295,2.9035,2.8583,2.8008,2.8047,2.7455,2.6445,2.6035,2.5639,2.5317,2.5344,2.5745,2.6403,2.6504,2.6808,2.7275,2.7655,2.7833,2.7899,2.8543,2.8756,2.8688,2.9247,2.9427,2.922,2.9063,2.8547,2.762,2.7254,2.665,2.5824,0.0,0.0,0.0,2.7441,2.8127,2.8055,2.6843,2.5579,2.4485,2.44,0.0,2.2395,2.3188,2.3068,2.1839,2.1601,0.0,0.0,0.0,0.0,0.0,0.0,0.0,0.0,0.0,0.0,0.0,2.0471,1.9566,1.8038,1.9753,2.1916,2.4081,2.4937,2.6624,2.9685,2.9608,3.0117,3.183,3.2262,3.2883,3.4045,3.4432,3.4818,3.5563,3.581,3.5944,3.5933,3.5953,3.6557,3.7981,3.8434,3.9097,4.0366,4.0516,4.0562,4.0597,4.0728,4.0754,4.0604,4.0506,4.0414,4.027,4.0215,4.0041,3.9608,3.9034,3.8192,3.6671,3.5876,3.5063,3.4002,3.3807,3.3748,3.3638,3.3166,3.2619,3.2037,3.1873,3.18,3.2374,0.0,3.147,3.0857,0.0,3.0248,2.9588,2.8415,2.87,2.8094,2.676,2.605,2.5494,2.5101,2.5311,2.5649,2.6068,2.6524,2.6944,2.7427,2.795,2.8198,2.8198,2.8657,2.8838,2.8878,2.9385,2.9476,2.9216,2.9436,2.8974,2.7849,2.7924,2.7687,2.7148,2.7446,2.7412,2.6986,2.7725,2.8349,2.8807,2.789,2.6753,2.5622,0.0,0.0,0.0,0.0,0.0,0.0,0.0,0.0,0.0,0.0,0.0,2.3042,2.2454,2.239,2.3239,2.3697,2.4459,2.5702,2.6183,2.4945,2.1526,2.3756,2.5873,2.7165,2.8145,2.9581,3.1622,3.1918,3.2415,3.3563,3.3766,3.414,3.4922,3.5156,3.5391,3.58,3.5917,3.5936,3.5951,3.6373,3.7149,3.8396,3.8962,3.9626,4.0794,4.1015,4.0955,4.0951,4.0914,4.0844,4.0726,4.0617,4.0503,4.0366,4.0317,4.0253,4.01,3.9785,3.8929,3.7263,3.6229,3.5312,3.4121,3.3807,3.3748,3.3564,3.3273,3.2829,3.2197,3.1911,3.18,3.3169,3.3074,3.2748,3.2251,3.1675,3.1572,3.0561,2.8996,0.0,0.0,0.0,2.6435,2.5753,2.5347,2.5673,2.5773,2.5784,2.6535,2.7095,2.7483,2.8167,2.8551,2.8594,2.8724,2.8944,2.9251,2.9439,2.9428,2.9281,2.9784,2.9551,2.875,2.9082,2.9135,2.8951,2.9531,2.9361,2.8372,2.8101,2.8543,2.9704,2.8956,2.7978,2.6869,2.6442,2.5412,2.378,2.4071,2.3628,2.2346,2.1856,2.2093,2.3077,2.2743,2.333,2.512,2.5429,2.6209,2.7662,2.7895,2.8652,3.0252,3.0874,2.9706,2.6122,2.8206,2.9666,2.9666,3.1103,3.2103,3.2253,3.2979,3.3799,3.4595,3.4703,3.5005,3.5673,3.5799,3.5773,3.5878,3.5879,3.5891,3.5936,3.6502,3.7373,3.8189,3.877,3.9761,4.0639,4.0969,4.1083,4.108,4.1033,4.0961,4.0848,4.0732,4.0596,4.0446,4.0368,4.0307,4.0317,4.0319,3.9432,3.744,3.6576,3.5597,3.4268,3.3847,3.3707,3.3455,3.3335,3.3139,3.2602,3.2161,3.1893,3.3508,3.3111,3.3036,3.3041,3.3101,3.3098,3.2401,3.1101,2.8662,2.7689,2.7835,2.6923,2.6213,2.5786,2.5839,2.5878,2.5884,2.5941,2.6166,0.0,2.7607,2.8259,2.864,2.9133,2.9545,2.9831,2.938,2.9435,2.985,2.9501,2.9479,2.974,2.8952,2.8622,2.892,2.9441,2.9711,2.9599,2.8444,2.7912,2.8091,2.6915,2.5893,2.516,2.5887,2.5196,2.3158,2.4499,2.4371,2.2656,2.3001,2.4116,2.5946,2.6029,2.705,2.9293,2.9554,2.9818,3.0329,3.101,3.1913,3.3022,3.2754,3.1749,3.0261,3.1132,3.1849,3.1857,3.2309,3.2916,3.3602,3.3971,3.4499,3.5271,3.5475,3.5605,3.5722,3.5759,3.5794,3.5809,3.5821,3.5834,3.5911,3.6088,3.6562,3.7245,3.7844,3.8318,3.9764,4.062,4.1051,4.1109,4.1104,4.1042,4.0958,4.0867,4.0721,4.0603,4.0422,4.0316,4.0316,4.0309,3.9557,3.7695,3.7012,3.6098,3.4494,3.3947,3.3802,3.3694,3.3508,3.3276,3.3093,3.2636,3.2144,3.4022,3.3545,3.352,3.3388,3.3185,3.2785,3.2494,3.2062,2.9729,2.8519,2.8205,2.7368,2.6747,2.631,2.6299,2.6262,2.6196,2.6181,2.654,2.723,2.7728,2.8338,2.9012,2.935,2.9578,2.9701,2.9637,2.9577,2.954,2.9431,2.9468,2.9552,2.8798,2.8728,2.9302,2.9365,2.9525,2.9792,2.9232,2.8934,2.8918,2.8342,2.8013,2.7959,2.8412,2.8478,2.7978,2.8351,2.8117,2.7045,2.718,2.7717,2.8584,2.8985,2.9887,3.1367,3.1615,3.1755,3.1924,3.2277,3.2985,3.4054,3.3875,3.3757,3.3839,3.3144,3.2756,3.2815,3.3382,3.38,3.3953,3.4477,3.5046,3.5552,3.5629,3.5643,3.5639,3.5679,3.5687,3.5682,3.5737,3.5772,3.5833,3.629,3.6684,3.714,3.7539,3.8413,3.9583,4.0101,4.0581,4.0973,4.1108,4.1092,4.1003,4.0882,4.0775,4.0668,4.05,4.0413,4.0362,4.0346,3.95,3.784,3.7032,3.6043,3.4516,3.4111,3.3972,3.3788,3.3707,3.3522,3.3288,3.2782,3.2231,3.4395,3.4085,3.3669,3.3352,3.3038,3.2556,3.2283,3.204,3.0699,2.9555,2.8542,2.7778,2.7217,2.6759,2.6639,2.6579,2.651,2.6418,2.6787,2.7539,2.7845,2.8404,2.9214,2.9391,2.95,2.9516,2.976,2.9611,2.9187,2.9483,2.9437,2.9022,2.8817,2.8937,2.9269,2.9112,2.9201,2.948,2.9643,2.9812,3.0079,3.0057,3.0264,3.0672,3.0842,3.1198,3.1619,3.135,3.1051,3.0883,3.0701,3.063,3.0781,3.1289,3.1793,3.2248,3.268,3.3005,3.3265,3.3364,3.3759,3.462,3.4708,3.519,3.6128,3.4956,3.3962,3.4018,3.4548,3.4746,3.4503,3.4859,3.5338,3.5502,3.5547,3.5598,3.5598,3.5617,3.5616,3.561,3.5649,3.5697,3.5881,3.6403,3.6785,3.6889,3.7632,3.8476,3.9082,3.9347,3.9879,4.0561,4.0953,4.108,4.1017,4.0937,4.0834,4.074,4.0614,4.0519,4.043,4.0345,3.9585,3.7976,3.704,3.6119,3.4791,3.4257,3.4136,3.3947,3.3829,3.368,3.335,3.2957,3.242,3.4286,3.4375,3.3125,3.2722,3.3088,3.321,3.2295,3.0869,3.0991,3.0102,2.8446,2.8076,2.7664,2.7184,2.6791,2.6627,2.6539,2.6134,2.6218,2.6734,2.7619,2.8354,2.8868,2.9227,2.9431,2.946,2.9556,2.9466,2.9234,2.9676,2.9497,2.879,2.9145,2.8923,2.8186,2.8568,2.883,2.8811,2.9044,2.9637,3.0553,3.0516,3.0525,3.0698,3.1364,3.116,3.0453,3.0542,3.0953,3.1276,3.121,3.1444,3.2096,3.2332,3.2271,3.2034,3.2717,3.3616,3.4553,3.4971,3.5121,3.5313,3.5313,3.5768,3.6801,3.6752,3.6467,3.609,3.5764,3.5615,3.5514,3.5353,3.5256,3.5274,3.5409,3.5528,3.5585,3.5617,3.5623,3.5623,3.5639,3.5615,3.5693,3.5885,3.6,3.6132,3.6789,3.7441,3.7734,3.8294,3.8982,3.98,4.0522,4.0991,4.1037,4.1025,4.0902,4.0796,4.0666,4.0566,4.0479,4.0302,3.9734,3.8153,3.75,3.6651,3.5279,3.4524,3.4209,3.4061,3.3908,3.3707,3.3408,3.3217,3.2941,3.3815,3.4242,3.358,3.3228,3.3183,3.3508,3.2305,3.0237,3.0614,2.9818,2.8305,2.8225,2.8074,2.7685,2.75,2.7129,2.6584,2.6377,2.6369,2.6539,2.6969,2.773,2.8767,2.8963,2.9341,2.9965,3.0043,2.9967,2.9902,2.9992,2.9619,2.8972,2.907,2.903,2.8781,2.8569,2.8544,2.875,2.8601,2.8948,2.9774,3.0409,3.0937,3.138,3.2023,3.2353,3.2168,3.2023,3.2023,3.2203,3.207,3.2116,3.2445,3.2916,3.3146,3.3009,3.3557,3.4097,3.458,3.4744,3.5084,3.5758,3.5812,3.6273,3.7353,3.7664,3.7499,3.6873,3.6786,3.6551,3.5827,3.5563,3.542,3.5272,3.5278,3.5379,3.5521,3.5547,3.5541,3.556,3.5965,3.6042,3.5714,3.5684,3.5757,3.5852,3.6251,3.6593,3.7084,3.7576,3.8145,3.8902,3.9411,4.0055,4.0773,4.098,4.0867,4.0777,4.0648,4.0527,4.0495,4.0432,3.9797,3.8114,3.7696,3.6787,3.4956,3.4586,3.4325,3.413,3.3934,3.3748,3.3625,3.3437,3.3169,3.318,3.373,3.3923,3.3481,3.2768,3.3736,3.2584,3.0287,3.0537,2.9942,2.8724,2.842,2.8375,2.846,2.8192,2.7609,2.6998,2.6715,2.6559,2.6532,2.6523,2.7133,2.8103,2.8315,2.8819,2.9604,2.9865,3.0082,3.0282,3.0023,2.9646,2.9224,2.9021,2.9025,2.9069,2.8579,2.8446,2.8509,2.8263,2.8388,2.8968,2.9942,3.0839,3.1558,3.2038,3.259,3.3187,3.2795,3.2668,3.2853,3.2736,3.2708,3.2807,3.3376,3.3807,3.4093,3.4412,3.4768,3.5076,3.511,3.5454,3.6229,3.6337,3.6716,3.7506,3.7802,3.7622,3.7171,3.7393,3.704,3.5826,3.5467,3.527,3.5058,3.5134,3.5258,3.5369,3.5439,3.5488,3.5546,3.6155,3.6548,3.6078,3.5843,3.5717,3.5811,3.5889,3.6064,3.6662,3.6894,3.7233,3.8085,3.824,3.8942,4.0363,4.0599,4.0571,4.0752,4.0666,4.0582,4.0519,4.0438,4.0062,3.8657,3.8032,3.7114,3.5733,3.5121,3.4453,3.4074,3.3908,3.3881,3.3762,3.3564,3.3422,3.2275,3.3284,3.3778,3.3042,3.1769,3.3707,3.3104,3.0542,3.109,3.0916,2.9932,2.8631,2.862,2.9454,2.8437,2.798,2.7794,2.7031,2.6671,2.6636,2.6535,2.6539,2.661,2.7062,2.758,2.8271,2.88,2.9467,3.0332,2.9854,2.9535,2.9487,2.9251,2.883,2.8483,2.8697,2.857,2.8157,2.8131,2.8158,2.8271,2.9012,2.9912,3.0826,3.1099,3.1441,3.2015,3.2062,3.236,3.3064,3.3113,3.3209,3.3421,3.3614,3.4136,3.4895,3.5056,3.5607,3.6593,3.6669,3.6759,3.6904,3.6818,3.7038,3.7233,3.7058,3.686,3.6991,3.7206,3.6846,3.5478,3.5082,3.4806,3.4706,3.4973,3.5141,3.513,3.5369,3.5453,3.553,3.6108,3.6581,3.6714,3.6153,3.58,3.5799,3.5853,3.5955,3.6031,3.6052,3.6462,3.7074,3.7477,3.7926,3.9429,4.0008,4.0237,4.0439,4.0582,4.0707,4.0575,4.0353,3.9786,3.9065,3.7991,3.7109,3.6438,3.5657,3.481,3.4356,3.4203,3.4105,3.3928,3.3829,3.3694,3.2851,3.3201,3.3401,3.2761,3.1716,3.2788,3.1785,2.9543,2.9899,2.9454,2.8499,2.7951,2.7998,2.8398,2.8304,2.8147,2.798,2.762,2.7326,2.7053,2.6712,2.6725,2.6998,2.6862,2.7203,2.8011,2.8542,2.9363,3.0283,3.0166,2.9872,2.957,2.964,2.9361,2.8917,2.8855,2.8823,2.8642,2.8101,2.7779,2.7835,2.7791,2.828,2.9444,3.0222,3.0886,3.1469,3.1941,3.2472,3.3097,3.3469,3.3778,3.3893,3.4215,3.4851,3.5744,3.587,3.6214,3.6805,3.6513,3.6461,3.6919,3.6496,3.6271,3.6351,3.6381,3.6093,3.5418,3.5572,3.5292,3.4834,3.5153,3.5491,3.4789,3.4802,3.5009,3.5157,3.5339,3.5453,3.5505,3.5803,3.6183,3.6566,3.6176,3.5742,3.5779,3.5861,3.5894,3.5899,3.5937,3.6122,3.6367,3.65,3.6871,3.7946,3.9189,3.9869,4.0108,4.031,4.0563,4.0571,4.0489,4.0071,3.9375,3.8197,3.7179,3.6555,3.5496,3.4745,3.4537,3.4405,3.4309,3.4093,3.4011,3.3881,3.3001,3.275,3.3051,3.2398,3.1297,3.2189,3.1367,2.9434,2.9543,2.9211,2.8432,2.7836,2.7715,2.7998,2.816,2.8186,2.8139,2.8032,2.7816,2.7523,2.7064,2.6899,2.6969,2.669,2.6911,2.7609,2.841,2.9323,3.0238,3.0385,3.017,2.9835,2.9956,2.9707,2.919,2.9089,2.9142,2.8952,2.8383,2.7965,2.7697,2.7289,2.7369,2.8025,2.8819,2.9894,3.1119,3.1684,3.2187,3.2716,3.3194,3.342,3.3445,3.372,3.4259,3.5018,3.5253,3.5559,3.5948,3.5665,3.5688,3.6182,3.5776,3.546,3.5479,3.5526,3.4976,3.4327,3.4485,3.4558,3.4275,3.524,3.5733,3.4753,3.4691,3.487,3.5053,3.5289,3.5573,3.5834,3.574,3.6028,3.6534,3.6084,3.58,3.5791,3.5847,3.5878,3.5899,3.5937,3.5982,3.5995,3.607,3.6305,3.6988,3.797,3.8856,3.9202,3.9988,4.0296,4.048,4.0432,4.0284,3.9569,3.8654,3.7599,3.6511,3.5419,3.4923,3.4682,3.4593,3.4537,3.4367,3.4185,3.4036,3.2588,3.1931,3.275,3.1942,3.0536,3.205,3.2134,3.0628,3.0231,3.0053,2.9769,2.8279,2.7931,2.8617,2.803,2.7904,2.8219,2.8115,2.8056,2.7947,2.75,2.7108,2.6801,2.6659,2.6574,2.6734,2.8063,2.9277,3.0189,3.0411,3.0463,3.0384,3.0156,2.9817,2.914,2.9404,2.9419,2.9207,2.9026,2.8627,2.7857,2.7695,2.7418,2.7062,2.7056,2.8284,3.0863,3.1088,3.1372,3.1861,3.2069,3.206,3.219,3.2237,3.2341,3.2962,3.3237,3.3639,3.4148,3.4535,3.4705,3.4879,3.474,3.4688,3.4637,3.4376,3.4085,3.3953,3.4353,3.4541,3.4064,3.4768,3.5132,3.4425,3.4588,3.4821,3.4926,3.5223,3.5769,3.6252,3.5984,3.6002,3.6441,3.6177,3.5747,3.5803,3.5853,3.5897,3.5892,3.5915,3.5936,3.598,3.6012,3.6148,3.6402,3.675,3.7507,3.8258,3.9253,3.9906,4.0063,4.0112,4.0458,3.9937,3.9133,3.8085,3.6733,3.5731,3.5276,3.504,3.4936,3.4763,3.4567,3.4374,3.4148,3.3001,3.265,3.2235,3.1289,3.0151,3.0754,3.0478,2.98,2.9621,2.9455,2.9136,2.8206,2.7948,2.8105,2.7788,2.7689,2.7857,2.814,2.8354,2.844,2.8025,2.7696,2.7456,2.6889,2.6567,2.6719,2.7718,2.8873,2.9858,3.0589,3.0983,3.0967,3.0767,3.0328,2.9739,2.9638,2.9631,2.9736,2.9324,2.9029,2.89,2.8145,2.7608,2.7391,2.7026,2.744,2.8596,2.9481,3.0159,3.0672,3.154,3.2028,3.2012,3.2028,3.2213,3.2669,3.3072,3.3367,3.3564,3.3772,3.3999,3.4147,3.4013,3.3897,3.3863,3.3741,3.3458,3.3118,3.3364,3.3523,3.3646,3.4031,3.4339,3.4216,3.4454,3.4711,3.4889,3.5235,3.5552,3.5791,3.5706,3.5784,3.5982,3.5776,3.578,3.5814,3.5846,3.589,3.589,3.5894,3.5917,3.5999,3.5995,3.6012,3.6207,3.6324,3.6703,3.7485,3.8427,3.916,3.9381,3.9942,4.0293,4.0236,3.9462,3.8425,3.7071,3.6216,3.5762,3.5314,3.5091,3.4898,3.4742,3.4513,3.4267,3.3895,3.3151,3.2488,3.1341,3.0047,2.9994,2.9839,2.9549,2.9373,2.9135,2.8814,2.838,2.8183,2.809,2.7852,2.7808,2.7883,2.8151,2.8395,2.8585,2.8473,2.8233,2.7936,2.7227,2.6842,2.697,2.7877,2.8806,2.9704,3.067,3.1236,3.1251,3.1261,3.0812,3.0099,2.9973,2.9995,2.996,2.9651,2.9486,2.9377,2.8798,2.829,2.8014,2.7461,2.7302,2.761,2.8339,2.9033,2.9746,3.0714,3.1202,3.1218,3.1209,3.1362,3.1649,3.2029,3.229,3.2397,3.2605,3.2961,3.3178,3.3192,3.3143,3.3143,3.3143,3.2931,3.268,3.2884,3.3144,3.3419,3.3743,3.4005,3.4239,3.4424,3.4641,3.4936,3.5235,3.5435,3.5515,3.5532,3.5612,3.5703,3.5752,3.5788,3.5822,3.5866,3.589,3.589,3.5894,3.5936,3.5983,3.6013,3.6012,3.6012,3.6031,3.6031,3.6744,3.7574,3.8096,3.8461,3.9466,4.0101,4.0158,3.9668,3.8706,3.7447,3.6708,3.6158,3.5736,3.5201,3.5027,3.4851,3.4612,3.4375,3.5174,3.3388,3.33,3.2145,3.0453,3.0349,3.0422,3.0203,2.9909,2.967,2.9443,2.9097,2.8749,2.8545,2.81,2.8008,2.8181,2.8094,2.8139,2.843,2.853,2.8484,2.7958,2.7522,2.7283,2.739,2.8302,2.9093,2.9725,3.0759,3.1276,3.1436,3.1605,3.1253,3.0463,3.042,3.027,3.0021,3.0019,2.9829,2.9535,2.9479,2.9305,2.871,2.8042,2.765,2.7698,2.7728,2.8107,2.902,2.9698,3.0018,2.9955,2.9896,3.008,3.0185,3.0333,3.0667,3.0864,3.1523,3.1887,3.2047,3.2354,3.2507,3.2595,3.2681,3.2696,3.264,3.2882,3.316,3.3433,3.3757,3.4061,3.4363,3.4524,3.4714,3.4944,3.5187,3.5345,3.5409,3.5514,3.5634,3.5704,3.577,3.5793,3.5799,3.5859,3.5872,3.588,3.5908,3.5937,3.597,3.6,3.6012,3.6012,3.6012,3.6012,3.6263,3.696,3.7368,3.7849,3.8858,3.9531,3.963,3.9592,3.8692,3.7825,3.6941,3.6154,3.5507,3.5187,3.5108,3.4954,3.4724,3.4505,3.5619,3.4434,3.4385,3.3586,3.246,3.2348,3.2348,3.2336,3.2174,3.1469,3.0986,3.0497,2.9751,2.9082,2.8297,2.7924,2.8036,2.8042,2.8034,2.8139,2.8606,2.8495,2.8078,2.7871,2.7644,2.7534,2.8577,2.942,2.9784,3.0953,3.1709,3.1938,3.1865,3.1668,3.1301,3.0797,3.0538,3.0474,3.0218,3.0115,3.0008,2.9754,2.9523,2.9319,2.8319,2.7782,2.7706,2.758,2.7997,2.9005,2.9205,2.9509,2.9814,2.9874,2.9874,2.9984,3.0338,3.0468,3.0426,3.1041,3.1488,3.1565,3.1949,3.2249,3.2556,3.2589,3.2639,3.274,3.2854,3.3011,3.3262,3.3611,3.3985,3.4397,3.4596,3.4684,3.4822,3.5119,3.5386,3.5411,3.5562,3.5679,3.5742,3.5769,3.5806,3.5799,3.5823,3.5866,3.5892,3.5893,3.5915,3.5936,3.597,3.5999,3.6012,3.6012,3.6012,3.6012,3.6419,3.6829,3.7418,3.8196,3.8572,3.8728,3.88,3.818,3.7444,3.6653,3.5943,3.5458,3.5357,3.5333,3.5113,3.487,3.4649,3.5763,3.4775,3.4775,3.419,3.325,3.3201,3.2951,3.26,3.2488,3.1942,3.1019,3.0651,3.0176,2.9559,2.8845,2.834,2.8222,2.8135,2.801,2.7904,2.8384,2.8511,2.834,2.8331,2.8091,2.7733,2.8703,2.9289,2.9717,3.0803,3.1545,3.1992,3.216,3.2068,3.1758,3.1537,3.104,3.0732,3.0466,3.0366,3.019,3.0011,3.0,2.9827,2.9,2.842,2.817,2.7771,2.788,2.8356,2.8638,2.9005,2.9493,2.956,2.9681,2.9896,3.0231,3.0295,3.0258,3.0801,3.1179,3.1336,3.1731,3.2144,3.242,3.2589,3.2771,3.2838,3.2838,3.2979,3.325,3.3652,3.4023,3.4316,3.4542,3.466,3.467,3.4972,3.5219,3.5362,3.552,3.5684,3.5794,3.5801,3.5791,3.5795,3.5795,3.5849,3.5886,3.5892,3.5903,3.5917,3.5953,3.598,3.6051,3.607,3.6539,3.6539,3.689,3.7106,3.7441,3.8056,3.8244,3.841,3.8139,3.7777,3.7199,3.6719,3.634,3.5965,3.5774,3.5719,3.5623,3.5362,3.5074,3.587,3.4981,3.4981,3.4434,3.3697,3.3537,3.3189,3.2185,3.2426,3.1626,3.0619,3.0391,3.0369,2.9963,2.9363,2.9011,2.8576,2.8373,2.804,2.7947,2.8196,2.8481,2.8645,2.8659,2.8462,2.825,2.8659,2.9108,2.9638,3.0314,3.1088,3.1753,3.2304,3.2378,3.2111,3.2151,3.1733,3.1026,3.0764,3.0583,3.034,3.028,3.0301,3.0335,2.9769,2.9131,2.8637,2.8141,2.7847,2.7682,2.8029,2.8496,2.9005,2.9136,2.9387,2.9814,3.0017,3.0124,3.0231,3.0593,3.0882,3.11,3.1675,3.2144,3.2249,3.2556,3.277,3.2884,3.29,3.3024,3.3306,3.381,3.408,3.4239,3.4443,3.4572,3.4666,3.4859,3.5054,3.5165,3.5431,3.564,3.5747,3.5797,3.5795,3.5795,3.5795,3.5823,3.5856,3.5885,3.589,3.5895,3.5936,3.598,3.6054,3.6129,3.6792,3.7262,3.7809,3.81,3.811,3.8458,3.8469,3.8408,3.7992,3.7665,3.7327,3.6933,3.6698,3.6653,3.6604,3.6615,3.658,3.6193,3.5852,3.625,3.6061,3.6048,3.5918,3.5715,3.5715,3.5066,3.4129,3.4921,3.3514,3.188,3.2095,3.1454,2.9963,2.9539,2.9052,2.8628,2.8418,2.812,2.8004,2.8243,2.8395,2.8535,2.871,2.8738,2.867,2.9003,2.9323,2.9684,3.0281,3.1021,3.1347,3.2114,3.2621,3.2455,3.2382,3.2328,3.1884,3.1241,3.0835,3.0708,3.0434,3.0387,3.051,2.9958,2.9363,2.8826,2.855,2.8474,2.8358,2.8085,2.8238,2.8912,2.9082,2.9364,2.9804,3.0081,3.021,3.0338,3.0506,3.072,3.1004,3.1259,3.1603,3.2214,3.2352,3.2588,3.2786,3.2916,3.3024,3.3262,3.3634,3.3947,3.4161,3.4416,3.4623,3.4697,3.485,3.5001,3.5111,3.5357,3.5623,3.5653,3.5751,3.5778,3.5791,3.5799,3.5803,3.5829,3.5878,3.6011,3.6065,3.6172,3.6341,3.6776,3.6988,3.7653,3.8219,3.8728,3.9136,3.9148,3.8703,3.8658,3.8273,3.7716,3.7492,3.7488,3.7543,3.7406,3.7423,3.7445,3.7464,3.7365,3.6995,3.6498,3.6275,3.6405,3.6417,3.6417,3.6417,3.637,3.5775,3.5017,3.5379,3.4117,3.2134,3.2235,3.1494,3.0026,2.9725,2.9384,2.8856,2.8323,2.7976,2.7905,2.8102,2.8301,2.8441,2.8664,2.8803,2.8808,2.8699,2.8875,2.9253,2.9678,3.0011,3.0457,3.1649,3.216,3.2426,3.2597,3.2645,3.2258,3.1599,3.1094,3.087,3.0471,3.0341,3.0523,3.0248,2.9871,2.9668,2.9276,2.916,2.8954,2.8542,2.8329,2.8784,2.8944,2.9205,2.9671,3.0124,3.0295,3.0401,3.0464,3.0593,3.0784,3.0965,3.1414,3.1896,3.2162,3.2488,3.277,3.2916,3.2961,3.3096,3.3459,3.3734,3.3998,3.4323,3.4539,3.4687,3.482,3.4964,3.5062,3.5266,3.5457,3.5574,3.5659,3.5741,3.5773,3.5791,3.5803,3.5823,3.5918,3.6289,3.6424,3.6521,3.6834,3.7446,3.8004,3.8687,3.9214,3.9704,4.0073,4.0265,3.9548,3.877,3.8544,3.841,3.7918,3.7895,3.7964,3.8189,3.8276,3.8323,3.8304,3.8185,3.7886,3.7303,3.6146,3.6417,3.6417,3.6417,3.6417,3.6417,3.581,3.4872,3.4981,3.392,3.1982,3.1728,3.1403,3.0193,2.9984,2.9715,2.9145,2.8369,2.7852,2.7804,2.7852,2.8066,2.829,2.8571,2.8757,2.8749,2.8488,2.8444,2.8582,2.8808,2.9359,2.9661,3.1044,3.1673,3.1869,3.269,3.2905,3.2326,3.1923,3.1462,3.1045,3.056,3.042,3.0433,3.0539,3.0496,3.0322,3.0016,2.974,2.974,2.9331,2.9077,2.8922,2.879,2.9069,2.9608,3.0071,3.0231,3.0401,3.0464,3.051,3.0526,3.0821,3.1201,3.1603,3.2003,3.2387,3.2672,3.2868,3.2932,3.293,3.3313,3.3605,3.3802,3.4148,3.445,3.4634,3.4747,3.4888,3.5028,3.5182,3.5333,3.5477,3.5566,3.5659,3.5741,3.5778,3.5838,3.5858,3.6082,3.6515,3.695,3.7115,3.7734,3.8366,3.8669,3.9391,3.9956,4.0485,4.0677,4.0968,4.0426,3.9726,3.9594,3.9374,3.8872,3.8667,3.8942,3.9126,3.9184,3.9202,3.9202,3.9013,3.8777,3.8094,3.6133,3.6417,3.6417,3.6417,3.6417,3.6417,3.581,3.5078,3.5715,3.4362,3.2022,3.2499,3.1852,3.0495,2.9994,2.9735,2.9227,2.8431,2.7903,2.7793,2.7783,2.782,2.8139,2.8395,2.8571,2.8746,2.8628,2.8452,2.8428,2.8924,2.9064,2.9369,3.0745,3.1392,3.1466,3.2295,3.284,3.2372,3.2131,3.187,3.1467,3.0917,3.0525,3.0473,3.0538,3.0612,3.0612,3.051,3.0452,3.0424,3.009,2.9938,2.9733,2.929,2.9447,2.9934,3.0032,3.0136,3.0338,3.0485,3.0489,3.0547,3.0695,3.0978,3.1353,3.1731,3.2162,3.2557,3.2836,3.2997,3.2979,3.3316,3.3549,3.3739,3.3998,3.437,3.4528,3.4676,3.4819,3.4946,3.5081,3.5223,3.5343,3.5483,3.5607,3.5704,3.5769,3.5942,3.6098,3.6468,3.6968,3.74,3.7775,3.8573,3.9399,3.9552,3.9941,4.0465,4.0873,4.087,4.1041,4.1027,4.0779,4.0435,4.0188,3.9824,3.9805,3.9901,3.9892,3.9808,3.9927,4.0014,3.9708,3.9323,3.89,3.6038,3.6417,3.6417,3.6417,3.6417,3.6417,3.6108,3.5763,3.6108,3.521,3.3871,3.3685,3.2839,3.1289,3.0836,3.0324,2.9309,2.8638,2.8173,2.7952,2.7729,2.7773,2.7987,2.8243,2.8535,2.8757,2.876,2.8534,2.811,2.8662,2.8794,2.88,2.9958,3.0645,3.0857,3.1809,3.2403,3.2253,3.2207,3.2019,3.1722,3.1133,3.0663,3.0574,3.0552,3.0612,3.0612,3.0612,3.0628,3.0673,3.0661,3.066,3.0492,3.0176,2.9774,2.9977,3.0082,3.0127,3.0233,3.0321,3.0489,3.0526,3.0663,3.0878,3.1235,3.1581,3.2035,3.249,3.2852,3.3057,3.3073,3.3355,3.3466,3.3633,3.3868,3.4161,3.4439,3.4612,3.4739,3.484,3.4964,3.5096,3.5251,3.5385,3.5544,3.5658,3.5751,3.603,3.6334,3.6977,3.758,3.8432,3.8933,3.9481,4.0135,4.0227,4.032,4.0823,4.1108,4.1103,4.1095,4.1083,4.1074,4.0925,4.0731,4.049,4.0426,4.0346,4.0396,4.0381,4.0252,4.0148,4.0099,3.9851,3.9331,3.5895,3.6417,3.6417,3.6417,3.6417,3.6417,3.6405,3.6417,3.6417,3.5763,3.4872,3.4629,3.3575,3.1982,3.1195,3.051,2.9384,2.8897,2.8411,2.8048,2.7665,2.7678,2.7914,2.8196,2.843,2.8628,2.8803,2.8552,2.8151,2.845,2.832,2.8415,2.9129,2.9781,3.0228,3.1095,3.1796,3.1988,3.2064,3.1832,3.1729,3.1274,3.082,3.0783,3.0756,3.0772,3.0627,3.0612,3.0672,3.0806,3.0955,3.1131,3.1188,3.093,3.0355,2.9827,3.0305,3.0366,3.0541,3.0653,3.1061,3.1227,3.1208,3.1442,3.1718,3.2166,3.2409,3.2913,3.3353,3.3683,3.3836,3.3638,3.3686,3.3775,3.3845,3.3908,3.4221,3.4461,3.4636,3.4732,3.4841,3.4991,3.5163,3.527,3.5399,3.5797,3.5916,3.641,3.6815,3.7679,3.847,3.9559,4.0233,4.054,4.0836,4.0781,4.0818,4.0951,4.1116,4.1104,4.1115,4.1103,4.1113,4.11,4.1061,4.0855,4.0824,4.0688,4.0554,4.0422,4.0346,4.0282,4.0215,3.9924,3.9467,3.5895,3.6417,3.6417,3.6417,3.6417,3.6417,3.6417,3.6417,3.6417,3.581,3.4836,3.4727,3.3723,3.1931,3.0681,3.0203,2.9715,2.9083,2.8618,2.8349,2.7793,2.7541,2.7678,2.7951,2.8243,2.8477,2.8721,2.8484,2.8283,2.8464,2.84,2.8328,2.8952,2.9496,2.9413,3.0457,3.0895,3.1044,3.1533,3.1949,3.2151,3.1815,3.1472,3.1332,3.1302,3.1221,3.0858,3.0801,3.0759,3.085,3.1014,3.1161,3.1278,3.1364,3.0987,3.0563,3.047,3.0714,3.1253,3.156,3.1878,3.2133,3.257,3.2925,3.2912,3.3168,3.3604,3.4553,3.4657,3.4754,3.4823,3.471,3.4555,3.4283,3.412,3.3964,3.4039,3.4309,3.4502,3.4693,3.4812,3.4964,3.5117,3.5203,3.5307,3.5721,3.6173,3.6716,3.7467,3.8447,3.9149,4.0174,4.0633,4.0913,4.1042,4.1063,4.1074,4.1093,4.1106,4.1111,4.1111,4.1098,4.1108,4.1114,4.11,4.1034,4.0844,4.0681,4.0564,4.0447,4.0347,4.032,4.0291,3.9943,3.9508,3.5608,3.5943,3.6098,3.6193,3.6193,3.631,3.6417,3.6417,3.6417,3.581,3.5078,3.5463,3.4532,3.2538,3.1392,3.0588,2.9995,2.9331,2.8845,2.8495,2.7945,2.7644,2.7673,2.7857,2.8149,2.8384,2.8653,2.8749,2.8538,2.8556,2.8583,2.8786,2.8982,2.9346,2.9184,3.0113,3.0646,3.1071,3.1623,3.2116,3.2214,3.2143,3.1999,3.1991,3.2028,3.1857,3.1642,3.125,3.1225,3.1289,3.1279,3.1161,3.1292,3.1394,3.1316,3.115,3.102,3.0991,3.1021,3.1622,3.2152,3.251,3.2918,3.3139,3.3381,3.3748,3.4034,3.43,3.4818,3.5186,3.5443,3.5315,3.532,3.509,3.4654,3.4495,3.4357,3.4192,3.4375,3.4601,3.485,3.5097,3.5339,3.5504,3.5737,3.6122,3.6767,3.7464,3.8418,3.9578,4.0169,4.0671,4.0875,4.0937,4.1006,4.1022,4.1061,4.1071,4.1113,4.1104,4.1113,4.1113,4.1103,4.1112,4.1114,4.0992,4.0814,4.0706,4.0607,4.0463,4.0329,4.032,4.0273,3.9878,3.9446,3.5223,3.5428,3.5777,3.5968,3.6098,3.6228,3.6323,3.6417,3.6417,3.581,3.5126,3.5271,3.4581,3.34,3.2297,3.13,3.0015,2.9765,2.9204,2.8686,2.8131,2.7762,2.7662,2.7773,2.8008,2.8301,2.8535,2.8678,2.8776,2.8763,2.8869,2.9202,2.8799,2.9005,2.9544,2.9795,3.0024,3.0884,3.1703,3.2212,3.2431,3.254,3.2567,3.2622,3.268,3.264,3.2437,3.206,3.1864,3.164,3.1543,3.1397,3.1352,3.1409,3.1481,3.1391,3.1387,3.1229,3.1236,3.1611,3.2151,3.2702,3.3265,3.4006,3.4078,3.4243,3.4527,3.4803,3.5318,3.5616,3.5738,3.6025,3.6043,3.5838,3.5401,3.5263,3.5078,3.4832,3.4729,3.4978,3.525,3.5495,3.5708,3.5914,3.6201,3.6572,3.7276,3.8168,3.9229,4.0387,4.066,4.0926,4.0915,4.0932,4.0961,4.0997,4.1009,4.1058,4.109,4.1092,4.1073,4.11,4.11,4.1106,4.111,4.1019,4.0874,4.0754,4.0629,4.0492,4.0382,4.0329,4.0186,3.9781,3.9376,3.4823,3.4884,3.5428,3.5908,3.6323,3.6098,3.6181,3.6417,3.6417,3.5823,3.4933,3.3993,3.3598,3.33,3.3051,3.2055,3.012,3.0579,2.9931,2.8987,2.8152,2.78,2.7654,2.7688,2.7852,2.8092,2.8384,2.8581,2.8746,2.8773,2.8786,2.8723,2.8709,2.8677,2.8891,2.9264,2.9677,3.0595,3.1593,3.23,3.2615,3.2849,3.3041,3.3016,3.3176,3.3151,3.26,3.2498,3.2344,3.205,3.1968,3.1707,3.1531,3.1573,3.1602,3.1511,3.1496,3.1387,3.1457,3.1959,3.2945,3.3907,3.4568,3.4919,3.5036,3.5295,3.5606,3.5782,3.6031,3.6562,3.6844,3.7107,3.6827,3.6671,3.6254,3.5869,3.566,3.5385,3.5333,3.5453,3.5738,3.6074,3.6538,3.6827,3.7037,3.7405,3.833,3.9232,3.9762,4.0696,4.0757,4.0903,4.0888,4.0902,4.0906,4.0926,4.0983,4.1025,4.1054,4.1053,4.1028,4.1067,4.1081,4.1103,4.1104,4.1023,4.0926,4.0782,4.0655,4.0539,4.0413,4.0281,4.0077,3.9728,3.9298,3.4884,3.5078,3.5078,3.5416,3.5908,3.5812,3.5991,3.6323,3.6228,3.6073,3.5619,3.4091,3.3598,3.3993,3.4141,3.34,3.2033,3.1422,3.0795,3.0002,2.9224,2.8377,2.8063,2.7865,2.8079,2.8072,2.8254,2.8524,2.8757,2.8803,2.8784,2.8732,2.8665,2.8887,2.9009,2.933,2.9817,3.0368,3.1408,3.2191,3.2259,3.2925,3.3331,3.3505,3.3835,3.3916,3.3674,3.3282,3.3056,3.28,3.2577,3.2204,3.1841,3.1901,3.1752,3.1571,3.154,3.1496,3.1611,3.2148,3.2991,3.3995,3.4633,3.5108,3.5481,3.5554,3.5667,3.5924,3.6305,3.6741,3.6988,3.7219,3.7307,3.735,3.7105,3.6616,3.6334,3.6088,3.5958,3.6133,3.6475,3.684,3.7348,3.786,3.8047,3.8316,3.9335,4.0174,4.0527,4.0804,4.0848,4.0883,4.0888,4.0888,4.0893,4.0928,4.0964,4.0977,4.1001,4.1005,4.1015,4.1008,4.1031,4.1076,4.1107,4.1068,4.0971,4.0804,4.0681,4.0564,4.0377,4.0157,3.9914,3.9651,3.9259,3.492,3.5078,3.4872,3.5078,3.5572,3.5633,3.5847,3.6228,3.6181,3.5991,3.5823,3.4325,3.3845,3.4385,3.5078,3.4348,3.3201,3.237,3.1639,3.0734,2.9682,2.8904,2.8388,2.8112,2.8087,2.8126,2.8171,2.8384,2.8664,2.8746,2.8771,2.8754,2.8774,2.9013,2.9382,2.9917,3.0202,3.0368,3.1158,3.1813,3.1759,3.2569,3.3269,3.3589,3.3919,3.4192,3.4129,3.3906,3.3649,3.3376,3.3109,3.2786,3.2472,3.2226,3.205,3.1855,3.1615,3.1525,3.1625,3.212,3.2857,3.3751,3.4325,3.4857,3.5321,3.5549,3.5644,3.5667,3.6045,3.6409,3.6761,3.7101,3.7452,3.7485,3.7597,3.7249,3.7136,3.6971,3.6835,3.681,3.7212,3.7616,3.8125,3.8642,3.9041,3.9199,3.9682,4.0265,4.0429,4.0688,4.0834,4.0867,4.0868,4.0888,4.0888,4.0915,4.0932,4.0941,4.0967,4.0987,4.0992,4.0996,4.1017,4.1083,4.1107,4.1107,4.1015,4.0849,4.0712,4.0588,4.0383,4.0166,3.9785,3.952,3.9245,3.4835,3.4823,3.4823,3.5126,3.5572,3.5572,3.5764,3.5955,3.5978,3.5679,3.4969,3.4483,3.3981,3.3895,3.5126,3.4872,3.3697,3.3128,3.2413,3.1201,3.0007,2.9133,2.8618,2.8305,2.8171,2.8208,2.8179,2.8243,2.843,2.871,2.8803,2.885,2.8903,2.9036,2.9399,2.9927,2.9938,2.9661,3.0698,3.1224,3.1405,3.2173,3.2952,3.3374,3.3736,3.4059,3.4288,3.4312,3.4008,3.3692,3.3675,3.3384,3.3031,3.2624,3.2481,3.2482,3.1884,3.16,3.1553,3.2064,3.2652,3.3287,3.3802,3.4456,3.5188,3.5503,3.5577,3.556,3.5958,3.6216,3.6577,3.6958,3.7321,3.7632,3.7715,3.7846,3.7715,3.7653,3.7488,3.7482,3.7931,3.8387,3.8885,3.9364,3.9891,4.0165,4.0292,4.0397,4.0465,4.0574,4.0751,4.0792,4.0815,4.0873,4.0874,4.0883,4.0902,4.0909,4.0937,4.0952,4.1006,4.1014,4.1051,4.1092,4.1107,4.1107,4.1015,4.0893,4.0724,4.0566,4.0422,4.0176,3.9762,3.9421,3.9178,3.492,3.503,3.4884,3.503,3.532,3.532,3.5524,3.5512,3.4653,3.4288,3.4422,3.3426,3.3039,3.3549,3.4483,3.4921,3.4288,3.335,3.2646,3.2252,3.057,2.9661,2.9052,2.8587,2.8323,2.8271,2.8132,2.8149,2.8405,2.8664,2.8757,2.885,2.9048,2.9296,2.9544,2.9875,2.9959,2.9745,3.07,3.1453,3.0911,3.1946,3.2895,3.3297,3.3597,3.3957,3.4346,3.4346,3.4254,3.4037,3.4093,3.3933,3.3677,3.3317,3.3266,3.3064,3.2512,3.1929,3.166,3.1768,3.2048,3.2625,3.3119,3.3793,3.4593,3.4864,3.5138,3.5492,3.5756,3.6002,3.6346,3.6759,3.7132,3.7559,3.7772,3.8033,3.8061,3.8036,3.8015,3.8151,3.8465,3.8939,3.9418,3.9669,4.0139,4.0329,4.0362,4.0353,4.0379,4.0512,4.0662,4.0694,4.0732,4.0818,4.0859,4.0878,4.0878,4.0906,4.0917,4.0928,4.098,4.1035,4.1061,4.109,4.11,4.1104,4.0975,4.0849,4.0694,4.0549,4.0407,4.0108,3.9682,3.9408,3.9259,3.492,3.503,3.4872,3.4884,3.5078,3.5175,3.5428,3.5464,3.4544,3.4385,3.452,3.3674,3.3426,3.3993,3.4434,3.4775,3.4629,3.3289,3.2639,3.2387,3.0888,2.9974,2.9435,2.8918,2.8533,2.8342,2.8148,2.8102,2.8254,2.8617,2.8757,2.8896,2.9128,2.9237,2.9508,2.9871,2.9935,2.9978,3.0811,3.1526,3.1368,3.191,3.2902,3.3142,3.3409,3.3805,3.4094,3.4312,3.438,3.438,3.4375,3.4345,3.4226,3.4003,3.3881,3.3568,3.3185,3.2542,3.2064,3.1928,3.2128,3.2094,3.237,3.3145,3.4078,3.4544,3.4998,3.5333,3.5532,3.5756,3.6049,3.6495,3.6898,3.7283,3.765,3.7898,3.8174,3.8167,3.8245,3.8423,3.8708,3.9236,3.9762,4.0019,4.0301,4.0319,4.0345,4.0328,4.031,4.0436,4.0545,4.0581,4.0648,4.0738,4.0796,4.0842,4.0868,4.0883,4.0891,4.0902,4.0959,4.1007,4.1054,4.1074,4.1107,4.1078,4.0943,4.0812,4.0655,4.0512,4.0372,4.0027,3.958,3.9408,3.9311,3.4823,3.4823,3.4775,3.4823,3.4872,3.5078,3.5464,3.6015,3.6133,3.5607,3.4836,3.5523,3.4921,3.4532,3.4678,3.4581,3.4276,3.2577,3.2072,3.1586,3.0785,3.0276,2.9725,2.9194,2.8828,2.8512,2.8214,2.7951,2.8045,2.856,2.8803,2.8803,2.8896,2.9096,2.941,2.9821,2.9871,3.0145,3.098,3.1425,3.1345,3.2175,3.2686,3.2933,3.3129,3.3479,3.3839,3.4128,3.4312,3.438,3.4399,3.4501,3.4397,3.4069,3.4062,3.3947,3.3691,3.3169,3.2662,3.2557,3.2213,3.2086,3.23,3.3118,3.3726,3.4202,3.4657,3.5155,3.5464,3.5554,3.5734,3.6114,3.6516,3.6919,3.7321,3.7667,3.8037,3.8171,3.8269,3.8476,3.8726,3.9189,3.9675,4.0007,4.0225,4.032,4.0319,4.0329,4.031,4.0335,4.0433,4.045,4.0537,4.0648,4.0707,4.0769,4.0815,4.0828,4.0864,4.0887,4.0935,4.1003,4.1033,4.1069,4.1104,4.1056,4.0976,4.0823,4.0622,4.0473,4.0379,4.0089,3.9698,3.952,3.9376,3.4932,3.5078,3.4872,3.503,3.5271,3.486,3.5235,3.6121,3.5427,3.4824,3.4787,3.4288,3.3883,3.2678,3.4068,3.3735,3.3089,3.26,3.2235,3.1688,3.1176,3.064,3.0209,2.9791,2.9289,2.8631,2.8139,2.7809,2.8081,2.8513,2.8757,2.8803,2.8803,2.8943,2.9257,2.9784,2.9899,3.0395,3.1336,3.1559,3.1535,3.2132,3.2489,3.2772,3.2824,3.3213,3.3701,3.3908,3.4094,3.4346,3.438,3.4481,3.462,3.4478,3.4468,3.4186,3.3984,3.3779,3.3334,3.3215,3.2931,3.2392,3.2476,3.2571,3.311,3.363,3.4169,3.4769,3.5287,3.5402,3.5622,3.598,3.6262,3.6597,3.7017,3.7395,3.7757,3.8002,3.8136,3.8462,3.8715,3.9127,3.9604,3.9881,4.0077,4.0225,4.032,4.032,4.032,4.0336,4.0342,4.0383,4.0414,4.0527,4.06,4.0655,4.0739,4.0787,4.0832,4.0878,4.0954,4.099,4.1027,4.1073,4.1101,4.1078,4.1048,4.0854,4.0629,4.0564,4.046,4.0148,3.9862,3.967,3.9427,3.4884,3.503,3.4969,3.5271,3.562,3.5247,3.5391,3.5571,3.4872,3.4836,3.5271,3.4385,3.3487,3.3178,3.3735,3.3289,3.1841,3.2145,3.2083,3.1768,3.1564,3.1586,3.1218,3.0469,2.9839,2.904,2.8246,2.7678,2.7951,2.8326,2.8675,2.8803,2.8803,2.8803,2.9013,2.9532,2.9965,3.0705,3.1467,3.198,3.2179,3.228,3.2734,3.2755,3.2789,3.3086,3.3528,3.3667,3.3991,3.4312,3.438,3.4448,3.4597,3.4635,3.471,3.4487,3.4572,3.4343,3.3992,3.3888,3.3499,3.311,3.2886,3.2793,3.2739,3.3049,3.3745,3.4415,3.4887,3.5293,3.5566,3.5827,3.6067,3.6301,3.6719,3.7114,3.7432,3.7739,3.8051,3.838,3.8733,3.9119,3.9458,3.9698,3.9986,4.0205,4.032,4.032,4.032,4.032,4.0318,4.0335,4.037,4.0402,4.0492,4.0557,4.0635,4.0726,4.0806,4.0859,4.094,4.1008,4.1033,4.1073,4.1105,4.1064,4.1015,4.0849,4.0662,4.06,4.05,4.0262,3.9986,3.9717,3.9446,3.4823,3.4884,3.5114,3.5524,3.592,3.58,3.55,3.4933,3.4872,3.5319,3.581,3.5187,3.4532,3.3981,3.3883,3.2801,3.1891,3.1841,3.1841,3.1575,3.1575,3.1655,3.1383,3.1107,2.9927,2.9375,2.8647,2.7584,2.7783,2.8207,2.8581,2.8803,2.8803,2.8803,2.8896,2.9347,2.9829,3.0461,3.1814,3.2794,3.2849,3.3238,3.3587,3.3125,3.2942,3.2929,3.3262,3.3597,3.3942,3.4196,3.438,3.4414,3.4481,3.4549,3.4673,3.4824,3.4886,3.4797,3.4601,3.453,3.4204,3.3829,3.359,3.3246,3.3091,3.2964,3.3599,3.4102,3.456,3.5138,3.5498,3.565,3.5849,3.6067,3.6392,3.6741,3.7017,3.7431,3.7931,3.8267,3.86,3.8961,3.9261,3.9525,3.9829,4.0127,4.0301,4.0301,4.032,4.032,4.031,4.031,4.0337,4.0354,4.0388,4.0449,4.0549,4.0635,4.0765,4.0858,4.0964,4.1009,4.1048,4.1074,4.1105,4.1033,4.0964,4.0804,4.0681,4.0593,4.0484,4.0355,4.0117,3.9804,3.9532,3.492,3.5175,3.562,3.5777,3.562,3.5247,3.5475,3.5918,3.5126,3.4981,3.5126,3.4872,3.4337,3.3697,3.4091,3.2989,3.1187,3.179,3.1648,3.1341,3.1289,3.1327,3.0687,3.0521,2.964,2.8511,2.7765,2.7536,2.7857,2.8196,2.8535,2.8757,2.8803,2.8803,2.885,2.9255,2.9703,3.025,3.14,3.2639,3.2998,3.2935,3.3014,3.3024,3.2991,3.2882,3.309,3.3234,3.3563,3.3874,3.423,3.438,3.4414,3.4448,3.4597,3.4731,3.4902,3.4919,3.5041,3.4989,3.4784,3.4472,3.4158,3.3799,3.3517,3.3362,3.3478,3.3886,3.4325,3.4937,3.5396,3.5526,3.565,3.5871,3.6067,3.6329,3.6618,3.7189,3.7774,3.8135,3.8426,3.8759,3.9054,3.9345,3.9675,3.9954,4.0186,4.0301,4.0301,4.032,4.032,4.032,4.031,4.0319,4.0336,4.0379,4.0476,4.0641,4.079,4.0884,4.0988,4.1037,4.1072,4.1093,4.1092,4.1048,4.0976,4.0814,4.07,4.0621,4.0479,4.0347,4.0137,3.9848,3.9635,3.4969,3.5078,3.5464,3.5752,3.5847,3.55,3.5488,3.5619,3.5511,3.5223,3.4824,3.4727,3.4178,3.33,3.3845,3.3139,3.1094,3.1891,3.2145,3.1841,3.1184,3.1308,3.0843,3.0204,2.9661,2.8668,2.7739,2.7489,2.7809,2.8092,2.8337,2.8617,2.871,2.8803,2.885,2.9117,2.9531,3.0216,3.097,3.1869,3.2886,3.3206,3.3077,3.3137,3.3019,3.295,3.2853,3.2988,3.3304,3.3736,3.4196,3.4346,3.438,3.4414,3.4515,3.4664,3.4817,3.4902,3.5148,3.5219,3.5213,3.4964,3.4906,3.4577,3.4114,3.3984,3.4031,3.4404,3.4406,3.4896,3.5447,3.5696,3.565,3.5756,3.5849,3.6006,3.6498,3.7094,3.7541,3.7879,3.8232,3.8609,3.89,3.9114,3.9471,3.984,4.0087,4.0244,4.0273,4.032,4.032,4.032,4.032,4.032,4.0329,4.0364,4.0424,4.0596,4.0916,4.1003,4.1135,4.1115,4.1108,4.1109,4.1103,4.1093,4.1006,4.0845,4.0748,4.0681,4.0492,4.0329,4.0117,3.9922,3.967,3.492,3.4823,3.5175,3.5656,3.6228,3.6098,3.5656,3.5283,3.5966,3.587,3.5126,3.4872,3.4129,3.3499,3.2939,3.2336,3.188,3.183,3.2134,3.2196,3.1586,3.0958,3.0623,3.0444,2.9516,2.8689,2.7809,2.7578,2.7631,2.7914,2.8196,2.8395,2.8628,2.8803,2.8803,2.8896,2.9209,2.9852,3.0611,3.1524,3.2609,3.3695,3.3526,3.3316,3.3154,3.3022,3.2854,3.2838,3.3136,3.3479,3.3991,3.4264,3.438,3.4414,3.4481,3.4582,3.4698,3.485,3.5049,3.5195,3.5264,3.5347,3.5457,3.5235,3.4728,3.4632,3.4729,3.4747,3.4746,3.4908,3.5456,3.5809,3.5736,3.5673,3.5763,3.58,3.6392,3.6939,3.7301,3.7649,3.8066,3.8455,3.8685,3.8923,3.9292,3.9675,3.9935,4.0087,4.0215,4.0282,4.032,4.032,4.032,4.032,4.032,4.0405,4.0468,4.1016,4.133,4.128,4.1239,4.1128,4.1078,4.111,4.1109,4.1113,4.1026,4.0864,4.0787,4.0719,4.0492,4.0301,4.0205,3.9986,3.9693,3.4262,3.4835,3.556,3.5812,3.58,3.592,3.5991,3.6121,3.6263,3.6263,3.587,3.5078,3.419,3.3151,3.2246,3.183,3.2174,3.1819,3.1626,3.1677,3.1043,3.0202,2.9579,2.9362,2.8498,2.7982,2.761,2.752,2.7584,2.7857,2.8139,2.8384,2.8664,2.8803,2.8803,2.8896,2.9071,2.9623,3.017,3.1003,3.2196,3.3216,3.4024,3.402,3.4005,3.3536,3.3141,3.2822,3.2808,3.3058,3.3563,3.4025,3.4312,3.438,3.4448,3.4481,3.4597,3.4731,3.4865,3.5063,3.5195,3.5294,3.5359,3.5459,3.516,3.5192,3.524,3.5276,3.5268,3.5212,3.5599,3.5926,3.5947,3.5894,3.591,3.5982,3.6276,3.6678,3.7055,3.7468,3.7914,3.82,3.841,3.8718,3.9105,3.9452,3.9728,3.9892,4.0166,4.0234,4.0282,4.032,4.032,4.032,4.032,4.0482,4.066,4.1277,4.1743,4.1723,4.1542,4.1103,4.1035,4.1093,4.1106,4.1114,4.0995,4.09,4.0787,4.0675,4.046,4.0282,4.0206,4.0017,3.9693]}]]